GFSSGP_sfc_30mbdewp_027.txt.gz
Dewpoint
60 53 47 41 32 33 28 26 33 32 30 29 29 31 32 35 42 37 63 66 66 67 69 68 69 69 69 69 68 68 70 71 70 69 67 66 65 63 63 62 61 60 66 66 65 65 64 63 62
56 50 43 40 30 24 23 30 30 31 31 32 29 38 40 43 55 60 63 67 67 69 68 66 68 68 68 68 69 67 68 70 70 68 67 65 64 62 61 60 60 65 65 65 64 63 63 62 61
52 45 40 36 32 25 21 27 30 32 32 29 29 33 37 47 56 61 63 68 68 68 67 67 68 68 68 68 69 67 68 70 69 67 65 64 60 61 61 61 62 63 63 63 62 62 62 62 62
47 43 39 35 31 32 26 30 31 31 31 29 30 33 44 54 56 61 66 68 68 68 67 68 68 68 68 68 68 69 68 69 68 67 65 61 60 61 61 61 62 62 62 62 62 64 64 64 64
44 41 36 34 33 32 34 33 33 31 29 29 29 29 40 53 63 66 67 68 68 68 68 67 68 67 66 67 67 67 68 68 68 66 63 60 61 61 61 63 64 64 64 64 64 65 65 64 61
41 39 35 33 33 32 33 33 32 30 30 30 28 31 41 60 65 66 68 67 67 68 68 67 68 68 67 68 68 68 68 70 67 65 63 61 61 61 62 64 65 65 66 65 65 66 62 57 55
40 38 34 33 33 32 30 32 30 28 28 29 29 28 37 55 65 66 66 67 67 69 68 68 67 67 68 68 67 67 68 68 67 66 64 64 63 62 62 63 64 65 65 65 66 63 54 53 54
42 38 34 32 30 29 29 31 30 29 29 31 30 28 32 54 65 66 66 66 67 69 68 68 67 66 67 67 66 66 66 67 67 66 65 65 65 64 63 64 64 64 67 66 64 59 54 52 51
42 36 32 33 30 28 32 29 35 35 33 32 30 36 50 60 65 65 65 65 66 68 68 68 68 67 67 67 66 66 66 66 66 66 65 65 65 64 64 64 65 66 65 65 62 58 55 50 49
40 35 34 33 32 30 34 34 35 34 34 32 33 39 58 63 63 62 62 63 64 65 66 68 68 67 66 67 66 65 65 64 64 65 66 65 66 66 65 64 65 66 65 63 57 52 44 32 30
40 35 37 37 35 37 37 37 36 34 31 34 33 39 51 60 62 62 62 62 63 64 65 67 68 68 67 65 65 66 65 65 65 65 65 65 65 66 66 65 65 65 61 54 43 34 29 29 28
38 39 38 38 40 39 38 37 36 36 34 35 38 39 39 55 59 61 62 63 63 64 64 66 67 67 68 67 65 64 65 65 65 65 65 63 64 65 66 65 66 64 61 50 38 30 26 26 25
38 38 39 39 39 38 37 36 35 35 37 37 38 39 39 38 42 52 57 62 64 65 64 66 66 66 67 67 66 64 64 64 64 64 65 62 63 65 65 65 65 63 58 50 35 28 26 24 24
39 38 38 38 37 37 36 36 36 36 37 37 37 37 38 37 38 39 39 43 59 64 65 66 67 66 66 66 66 65 64 64 64 64 64 63 62 65 64 64 64 62 57 47 35 28 27 25 24
38 36 36 36 36 35 37 33 35 37 36 35 36 37 37 38 38 38 38 38 42 58 64 66 66 67 65 66 66 65 65 64 63 63 64 63 61 62 64 64 63 61 52 40 30 27 26 25 22
37 35 33 35 36 35 32 24 32 37 37 36 36 37 37 37 38 39 39 39 39 40 52 63 66 66 66 65 66 66 65 65 63 63 62 63 62 60 62 62 62 59 45 34 30 28 26 25 23
35 30 31 32 37 35 35 33 34 36 34 33 34 35 36 36 36 37 37 39 39 40 40 44 63 66 66 66 66 66 65 65 64 63 62 62 62 61 60 61 61 55 43 33 30 27 26 23 23
31 31 33 29 31 34 33 33 33 31 29 30 32 34 34 33 33 35 36 36 37 39 39 40 47 62 66 66 65 65 65 65 65 63 62 61 61 61 60 59 59 50 42 34 30 28 24 23 23
32 31 31 32 32 30 30 30 29 29 29 28 28 28 28 29 30 31 33 34 34 35 36 38 40 48 63 64 64 64 63 63 64 64 63 61 60 60 60 58 55 48 42 35 30 27 24 24 29
31 30 30 32 29 28 27 26 27 28 28 28 28 28 28 28 28 29 29 30 30 31 32 35 37 40 54 62 63 63 62 63 64 63 63 62 61 59 59 57 53 46 40 33 29 26 23 24 29
33 30 31 30 28 26 26 24 22 23 23 22 21 21 24 26 24 23 23 25 29 30 30 31 34 38 47 58 63 63 62 61 62 62 62 62 61 59 58 56 53 45 40 35 30 26 25 23 27
32 33 31 27 27 25 25 21 21 21 17 18 19 20 19 19 21 23 24 25 24 27 31 31 32 35 42 58 61 61 59 59 60 61 62 61 61 59 57 55 53 48 42 38 32 29 26 25 25
31 29 27 26 24 22 22 18 15 16 15 17 20 24 26 26 28 30 31 30 31 32 35 35 31 32 36 50 62 62 60 60 61 61 61 61 59 59 56 55 52 48 42 41 36 30 28 24 25
28 26 25 24 23 18 18 19 9 13 17 19 20 23 26 28 29 32 33 34 36 36 36 38 38 34 32 36 55 61 60 60 60 60 60 59 58 57 55 53 52 50 46 44 40 35 31 27 24
27 26 21 12 16 15 21 20 14 18 21 21 21 24 27 29 30 32 34 36 37 37 36 36 38 38 40 37 40 53 60 61 60 59 59 57 56 55 53 51 50 48 45 45 41 38 36 33 30
26 26 20 8 4 11 22 16 14 21 21 21 23 26 28 30 32 33 35 37 38 38 37 36 35 36 36 39 46 47 56 59 57 57 58 57 56 55 54 51 49 48 46 44 41 40 38 36 33
26 25 22 19 18 15 13 15 15 20 20 21 24 27 29 31 34 35 37 38 39 38 37 35 34 35 38 38 40 47 55 57 56 56 56 57 55 54 53 50 48 47 46 43 40 39 36 33 29
27 26 21 19 5 2 8 12 11 16 17 22 24 26 29 33 37 38 39 39 39 39 37 38 39 38 39 40 41 42 47 54 56 54 54 54 54 52 49 48 47 46 44 42 40 37 32 28 27
26 25 23 21 18 8 5 9 18 18 19 22 25 27 30 37 38 38 38 39 39 39 40 41 42 43 43 44 44 44 44 46 51 54 52 53 51 49 47 46 45 43 41 39 39 36 29 26 27
28 26 22 16 16 20 19 12 22 23 23 23 25 28 36 38 37 35 35 38 40 40 41 41 40 40 41 42 43 44 46 47 49 50 51 50 49 46 45 43 42 41 38 37 34 29 27 27 28

GFSSGP_sfc_30mbdewp_030.txt.gz
Dewpoint
60 50 46 42 32 28 23 22 28 31 30 29 30 30 30 33 34 33 62 64 62 65 65 66 68 67 68 70 71 71 71 71 70 69 68 66 65 64 64 62 61 67 67 67 66 65 64 62 60
54 47 44 38 29 23 19 24 25 30 31 32 31 32 38 37 51 58 61 65 63 65 65 65 67 68 68 67 67 69 71 70 70 68 66 65 64 63 61 60 64 66 65 65 64 64 62 61 61
50 45 39 35 31 24 20 24 24 31 30 29 29 33 36 46 53 57 62 64 64 65 64 65 68 67 67 67 66 66 69 70 69 67 66 64 62 61 61 61 64 65 64 63 62 62 62 62 62
45 42 39 33 29 29 25 28 30 30 30 30 30 31 44 53 55 59 64 64 64 64 63 67 67 67 67 68 67 65 69 70 68 67 65 61 61 62 62 63 63 63 63 62 63 64 64 64 64
44 41 35 33 30 30 31 29 32 30 28 28 29 30 39 55 62 62 64 64 63 63 63 65 68 68 68 68 68 67 68 69 68 66 62 61 62 62 62 63 63 63 63 64 64 65 64 62 61
41 40 34 32 30 32 33 32 31 29 28 27 28 29 39 59 62 64 65 64 64 64 64 64 68 68 68 68 68 68 67 69 68 65 62 61 61 62 63 64 65 64 64 65 66 64 59 57 57
40 39 34 31 31 31 32 32 31 27 26 23 30 28 38 55 64 66 65 64 65 65 65 63 65 66 68 68 69 68 67 70 67 65 63 63 63 62 63 65 65 66 65 66 65 57 55 55 56
41 39 34 33 32 30 33 31 30 27 24 31 30 27 33 55 65 65 65 64 66 66 65 64 63 62 63 65 67 68 69 68 66 65 65 64 63 63 63 65 65 65 66 66 61 55 53 53 55
43 36 33 33 33 30 31 28 32 33 29 32 30 34 49 55 65 65 64 65 65 66 66 65 62 61 62 63 64 66 67 67 66 65 65 64 60 61 62 61 64 67 66 64 60 57 53 52 50
35 33 30 32 33 31 30 27 31 31 31 31 33 41 58 62 63 63 62 62 64 65 66 66 64 62 62 63 62 61 60 62 63 64 63 60 60 60 59 61 65 66 65 63 60 57 48 39 37
35 29 31 34 33 32 31 32 34 30 30 30 31 38 54 61 63 62 62 62 63 64 66 66 66 63 63 62 62 62 60 59 60 61 62 60 62 64 64 62 62 61 62 58 54 44 39 36 32
36 33 32 35 38 37 34 34 33 33 28 34 37 38 39 56 60 61 61 62 63 64 64 65 66 65 64 63 63 62 61 60 60 61 61 62 62 62 63 63 62 62 59 55 50 42 37 32 30
36 38 37 37 40 39 38 36 33 34 35 37 37 38 38 39 50 58 61 62 63 64 64 65 66 66 66 65 64 62 61 60 59 60 61 61 61 61 61 62 64 62 61 56 49 41 35 31 29
37 37 36 37 37 38 37 36 37 34 35 34 35 33 35 37 37 41 51 55 59 62 64 65 66 66 66 66 65 65 63 61 59 59 60 61 60 60 61 63 64 64 61 57 49 41 36 33 30
38 35 36 37 36 35 36 34 34 34 32 32 30 31 35 36 37 38 39 41 44 48 55 62 66 67 66 66 65 66 65 64 62 61 60 60 60 59 60 61 63 64 61 57 48 40 35 32 28
34 33 31 30 34 35 34 22 29 33 33 31 31 30 32 34 35 36 37 38 39 39 42 51 61 65 66 66 66 67 66 65 64 62 62 61 60 59 59 61 62 63 61 54 46 40 35 33 29
31 21 24 29 36 30 30 21 27 31 34 32 32 31 32 34 35 35 36 36 37 37 38 39 48 60 63 66 66 66 66 66 64 63 63 62 62 60 58 59 61 61 59 51 45 40 37 33 30
26 22 26 23 30 34 33 28 34 34 33 31 30 30 30 32 34 34 35 36 36 37 38 39 40 46 55 63 66 66 66 65 65 65 64 63 62 61 60 58 59 60 58 51 45 40 35 33 30
28 26 24 28 32 31 29 29 30 31 30 30 29 28 28 30 31 31 31 32 33 34 37 37 38 40 45 55 63 64 64 64 64 64 65 64 63 62 61 61 59 59 56 53 46 41 34 31 29
30 27 27 31 30 29 28 27 28 28 29 29 29 28 28 29 28 25 25 29 30 30 32 34 35 37 39 47 55 59 62 63 64 64 64 64 63 62 62 61 60 59 56 54 47 39 35 33 31
31 28 30 27 29 28 26 23 25 24 24 21 21 21 22 25 20 24 26 27 30 30 33 32 33 34 36 40 50 57 61 62 62 63 63 63 63 62 62 61 61 58 55 53 48 40 37 34 31
28 33 32 29 29 22 26 14 23 20 18 21 22 22 25 28 30 32 34 35 36 38 38 37 34 33 34 37 45 52 57 57 58 59 61 63 62 62 62 61 61 58 55 52 48 42 38 37 33
29 32 29 28 27 25 22 20 17 16 16 21 25 27 29 30 32 33 35 37 39 40 42 41 40 36 33 36 42 51 54 55 55 57 60 61 62 62 62 61 60 58 54 53 51 44 39 37 38
28 27 26 26 25 23 21 19 11 13 16 20 23 26 31 32 34 36 38 39 39 41 42 41 38 38 40 35 37 46 53 55 56 58 60 60 60 61 61 60 59 58 56 53 52 47 41 37 36
29 28 26 23 24 20 21 19 14 17 20 20 24 30 32 33 36 37 38 38 40 41 41 40 38 36 37 39 40 36 44 53 55 56 57 58 59 58 59 59 58 57 57 55 51 48 45 41 35
28 29 24 15 12 13 21 14 14 20 21 21 25 28 32 34 37 38 39 40 40 40 40 39 38 37 35 37 38 42 45 44 51 55 57 57 57 58 58 57 57 57 56 55 52 49 46 42 39
28 29 23 21 19 17 12 15 17 21 21 22 24 29 33 36 39 38 39 39 39 40 40 40 40 40 38 37 41 41 41 49 53 53 55 56 57 58 58 57 56 55 55 54 52 50 48 45 43
29 27 24 25 15 11 7 9 11 18 19 21 26 30 33 38 38 38 37 38 39 40 41 42 42 42 43 44 44 43 43 44 47 53 52 52 54 55 55 56 55 53 52 51 50 48 47 43 40
26 26 24 23 20 13 4 7 16 18 22 24 26 29 32 39 37 36 36 38 40 40 41 41 41 41 41 42 42 43 44 45 45 45 48 50 51 53 53 53 52 50 49 47 46 44 42 37 35
28 26 22 18 20 21 19 12 19 21 22 23 26 29 34 39 36 35 36 37 38 39 40 39 40 39 38 38 41 44 46 47 48 47 48 50 50 51 50 49 48 47 46 44 43 39 37 37 36

GFSSGP_sfc_30mbdewp_036.txt.gz
Dewpoint
58 52 50 45 38 33 28 25 23 26 24 28 28 26 28 31 49 50 59 60 65 66 68 71 72 72 73 73 73 72 71 71 71 69 67 66 66 65 63 66 68 68 67 67 65 63 62 62 62
56 52 48 42 35 31 27 26 24 23 30 31 31 28 27 47 56 58 61 61 64 66 66 67 69 72 73 72 73 72 71 71 69 67 65 64 65 63 62 67 68 67 67 65 63 62 62 62 62
56 51 45 39 35 31 28 26 23 30 29 30 29 28 31 49 54 59 63 61 63 64 64 67 67 68 69 70 71 72 71 69 68 67 65 65 63 61 67 67 66 66 65 63 62 62 62 64 64
51 46 42 38 33 33 31 24 24 29 29 30 30 32 50 56 57 61 61 61 62 62 66 67 67 66 65 66 68 69 70 69 68 67 65 63 62 62 66 66 65 64 64 63 63 64 64 64 63
51 45 38 35 34 33 31 26 27 27 28 29 29 36 53 57 60 60 60 61 61 65 66 67 66 65 65 65 66 68 70 69 68 65 63 62 63 64 65 65 64 64 64 64 65 64 63 62 62
49 43 38 34 33 32 31 28 28 28 28 28 28 39 54 58 60 60 60 60 60 65 65 65 65 64 65 66 66 68 70 69 67 64 63 63 63 63 64 64 63 63 65 65 64 61 59 59 61
46 44 38 37 33 31 31 30 28 27 27 27 29 33 55 60 61 61 60 60 60 63 64 65 65 66 67 66 65 67 68 68 66 64 64 64 63 63 63 64 64 64 65 66 60 58 58 58 60
46 43 41 39 36 32 31 31 30 28 26 28 29 40 55 61 63 62 61 61 61 61 63 64 64 66 66 67 66 66 67 67 65 65 65 64 64 64 65 66 66 65 66 63 58 57 57 59 59
48 42 39 41 40 36 32 31 31 30 28 27 30 48 60 63 64 63 62 63 63 62 62 62 62 61 61 62 66 67 66 67 65 64 64 63 62 63 65 64 65 66 67 61 57 56 54 56 55
41 41 40 41 42 39 33 32 32 29 28 27 32 50 60 62 63 62 63 62 64 63 62 60 60 60 60 61 66 65 67 67 65 64 63 62 60 60 61 64 65 67 66 61 59 56 54 49 43
40 38 41 43 43 38 34 32 32 29 28 27 27 46 54 59 61 61 61 62 63 63 65 65 62 59 60 61 64 63 66 66 65 63 63 62 58 58 61 63 65 65 64 62 60 56 50 46 44
35 38 36 35 35 34 33 32 29 29 30 30 31 40 54 56 59 60 61 61 63 63 63 65 66 62 60 60 61 59 60 62 63 64 62 62 59 60 60 61 61 64 63 62 59 56 51 45 38
37 34 33 33 36 35 34 31 29 30 32 36 37 37 37 45 54 58 60 61 61 63 63 65 65 66 62 61 61 61 59 59 59 59 62 61 62 62 63 63 60 59 61 60 57 53 45 41 37
36 36 34 32 36 36 33 30 30 31 33 34 34 35 35 35 39 50 58 59 60 62 63 64 65 66 66 63 62 62 62 60 59 59 59 60 62 63 63 63 64 62 61 60 56 52 45 40 37
36 34 35 33 36 35 36 33 31 31 32 32 33 32 32 31 32 37 41 53 58 60 63 64 65 66 65 65 65 64 64 63 60 59 59 59 59 61 62 62 63 63 63 61 59 53 46 41 37
35 34 32 33 34 34 35 30 32 33 33 33 32 30 30 31 30 30 34 39 42 45 51 64 65 65 65 65 66 65 64 64 63 62 60 59 59 59 59 59 62 63 63 63 60 54 46 42 38
34 29 32 30 34 34 34 30 31 31 32 31 32 31 29 28 28 29 30 30 38 39 41 42 53 64 65 66 66 66 65 66 64 64 63 61 60 60 59 59 61 62 62 63 61 56 46 42 40
31 28 28 28 32 33 33 32 30 29 29 27 28 27 27 28 28 29 31 31 33 36 38 39 41 44 47 62 65 66 65 65 66 65 63 63 62 61 60 59 59 62 61 62 61 55 48 44 42
27 27 24 24 32 31 30 30 30 29 30 30 30 28 27 26 27 28 32 31 32 33 35 36 37 39 41 43 53 65 65 65 65 65 66 64 62 62 62 61 60 62 61 61 61 55 49 46 42
24 24 23 23 30 29 27 27 28 27 29 30 29 27 26 26 25 27 25 27 29 31 33 35 36 38 40 41 43 52 64 64 64 64 65 65 65 64 63 62 61 60 61 61 60 54 49 45 41
25 24 21 25 30 29 26 24 25 27 27 28 27 25 24 24 26 24 28 34 37 39 39 39 38 36 36 37 38 40 44 59 62 62 63 64 64 64 64 63 63 62 60 60 60 55 50 45 41
24 25 24 28 28 21 26 9 19 25 25 25 22 22 22 24 29 32 34 36 40 43 44 43 41 40 36 35 36 37 39 42 52 61 63 63 63 63 63 63 63 63 62 61 60 57 52 46 41
25 29 29 29 28 27 25 22 20 23 21 20 23 27 29 30 31 33 36 37 42 44 45 45 44 40 39 40 37 37 38 40 44 51 58 60 62 63 62 62 62 63 63 62 61 59 54 48 45
32 30 30 30 28 24 24 20 19 21 19 22 26 28 29 30 33 35 38 39 41 43 44 43 41 40 40 39 40 40 38 39 42 46 53 55 56 60 62 62 61 62 63 62 61 60 57 51 49
31 29 25 25 24 23 23 21 19 17 20 23 24 28 30 32 36 38 39 40 41 41 42 42 41 41 41 41 40 39 41 43 41 40 43 51 56 58 60 61 61 61 62 62 61 60 58 51 50
30 28 25 17 21 21 20 20 18 19 21 23 28 29 32 34 38 39 39 39 39 40 41 42 42 42 42 43 43 43 41 42 43 46 47 47 53 55 56 59 59 60 60 60 60 59 58 55 51
32 29 25 23 16 17 18 17 19 20 19 25 25 27 32 35 39 38 37 38 39 40 41 42 42 41 42 42 42 43 43 43 43 44 44 49 53 53 54 54 57 59 59 59 59 58 58 56 53
32 30 27 27 16 11 14 13 14 18 19 20 23 23 32 36 38 37 37 38 39 40 40 40 41 41 41 40 40 40 42 44 44 45 44 44 47 49 52 53 54 55 57 57 57 56 55 54 52
31 30 29 26 23 21 11 10 18 19 19 20 22 27 31 35 38 37 36 37 39 39 39 39 40 40 39 38 39 40 42 44 46 46 47 48 49 50 50 51 51 52 52 52 52 51 51 49 46
34 31 30 27 23 20 19 15 19 21 23 26 27 29 31 38 38 37 36 36 38 38 38 38 38 38 37 37 39 40 41 42 44 45 47 48 48 49 49 49 49 49 49 49 48 46 45 44 42

GFSSGP_sfc_30mbdewp_039.txt.gz
Dewpoint
59 54 52 46 38 37 32 30 25 25 25 29 29 27 42 44 51 46 60 67 68 70 72 73 73 73 73 73 72 72 72 72 71 68 67 67 66 63 67 68 67 67 67 65 64 63 62 62 61
58 52 50 43 37 32 30 30 23 29 30 30 29 28 44 54 57 59 61 67 68 70 71 72 73 73 73 73 72 71 71 71 69 67 66 66 64 62 68 68 68 67 66 64 62 62 61 62 62
55 52 46 41 37 33 31 28 26 28 29 30 30 28 47 52 59 59 62 66 66 66 67 71 73 72 72 73 71 71 69 69 68 66 65 64 61 65 68 67 67 66 64 63 62 62 63 63 63
51 48 44 39 37 35 34 33 29 28 29 30 30 46 54 58 59 62 63 65 65 65 67 68 68 69 70 71 71 69 69 68 67 66 65 62 63 66 67 66 65 64 63 63 64 64 64 64 63
51 48 41 37 36 36 35 30 29 28 28 29 30 48 55 60 61 62 62 63 65 66 66 66 66 66 67 69 69 69 69 69 67 65 63 63 63 65 66 65 65 64 64 64 64 64 63 63 62
47 50 41 36 36 36 35 31 28 28 28 28 47 52 56 60 59 60 62 65 65 65 66 66 65 64 66 67 67 69 70 68 65 64 63 63 64 64 65 64 64 64 64 65 63 61 60 61 63
43 45 41 39 37 36 35 31 27 27 26 27 33 52 58 60 60 60 62 65 65 65 65 65 64 65 64 66 66 68 69 68 65 65 65 64 63 64 64 64 63 65 66 64 60 59 59 60 61
45 44 40 40 38 38 39 30 28 27 26 28 36 50 57 61 63 61 61 63 64 64 64 64 65 66 66 66 65 67 68 67 65 65 65 64 64 64 65 66 65 66 67 61 59 58 59 60 59
47 41 38 39 40 40 42 39 30 30 28 40 47 57 61 63 64 62 62 62 62 63 64 64 65 65 65 66 66 66 67 66 65 65 64 64 64 65 66 65 66 66 66 60 58 57 58 58 56
46 41 40 39 40 41 42 41 30 29 28 36 56 62 62 62 63 62 61 62 63 61 63 64 64 63 62 63 66 66 67 66 65 64 63 62 62 63 64 65 65 66 65 61 58 57 54 50 45
45 41 41 41 41 48 45 43 36 29 28 29 49 59 61 61 61 62 62 62 63 63 65 63 61 61 61 63 64 64 66 66 64 63 62 61 61 61 62 64 66 66 64 61 60 57 52 47 45
39 41 41 41 48 47 43 40 31 30 31 34 44 57 59 60 61 61 61 61 62 63 63 65 65 61 61 64 63 63 66 66 65 63 62 61 60 59 62 63 64 65 64 61 60 57 53 49 44
39 37 39 41 43 42 44 39 34 30 36 37 41 51 56 57 59 61 61 62 62 62 63 64 65 65 63 62 61 62 63 65 65 64 63 62 61 59 61 61 62 63 63 62 60 58 54 49 39
38 38 37 35 39 40 41 35 34 31 35 35 35 35 37 46 56 59 61 61 63 63 63 64 64 65 65 64 61 60 60 62 61 62 63 62 61 61 61 62 59 59 61 61 60 57 51 43 39
37 35 36 36 37 36 36 32 32 33 32 33 33 33 32 32 33 52 59 59 61 63 63 64 64 65 65 65 65 64 63 61 59 59 60 62 62 62 62 62 63 61 61 60 59 55 49 42 39
36 35 33 34 36 36 32 29 32 34 32 33 32 32 32 32 31 31 39 54 58 61 63 64 64 65 65 65 65 65 65 64 62 60 59 59 59 62 62 62 62 63 63 62 60 56 50 45 39
36 31 33 32 35 34 34 32 32 33 33 33 33 33 33 31 31 31 30 30 33 44 61 64 64 65 65 65 65 66 65 65 64 63 61 59 59 59 60 60 61 62 63 63 62 59 51 45 41
32 31 31 31 33 33 33 33 32 29 32 32 31 29 28 28 29 29 31 34 33 34 36 38 57 65 65 65 65 66 66 65 66 66 65 63 62 60 59 59 59 62 62 62 62 60 53 46 42
33 31 28 31 32 33 33 33 32 32 29 28 28 28 28 27 28 31 30 30 31 32 33 35 36 38 44 58 64 64 64 64 64 64 65 66 65 62 61 60 59 61 61 61 62 60 57 48 43
31 29 28 27 31 32 31 31 32 32 29 29 29 30 29 27 26 25 28 31 35 36 37 37 37 36 36 40 43 58 64 64 65 64 64 64 64 65 64 62 60 61 61 61 61 59 54 51 43
29 25 26 26 29 29 27 24 26 28 28 30 30 28 26 26 24 25 34 38 40 41 41 41 41 39 37 36 36 38 42 56 62 63 63 64 64 64 64 64 63 62 61 61 60 60 56 51 46
26 26 26 29 27 23 25 17 17 25 26 27 26 23 23 23 30 34 36 39 42 44 45 44 44 41 40 36 36 35 36 37 45 59 62 62 63 63 63 63 63 63 62 61 61 61 58 53 48
26 29 29 29 27 27 25 20 20 23 25 24 22 23 23 28 32 35 36 40 43 44 44 43 42 40 40 40 41 39 37 38 40 43 47 57 62 63 63 63 62 62 62 62 61 60 57 53 51
32 30 30 29 28 22 24 23 19 22 23 21 26 28 30 32 34 37 39 41 43 43 43 42 42 41 42 42 41 40 40 40 40 40 41 44 52 58 62 62 62 62 61 61 61 61 59 56 52
31 26 25 23 24 20 22 23 22 22 21 24 26 28 29 31 36 38 39 40 40 41 42 42 42 42 43 43 43 43 43 42 42 45 44 45 47 56 59 61 61 60 60 60 61 60 60 57 54
31 26 22 15 19 21 20 20 20 20 22 26 27 29 30 35 38 39 39 39 39 41 41 42 41 41 42 41 41 41 42 43 44 44 44 45 50 53 57 58 59 59 59 59 59 59 59 57 55
32 29 26 23 19 19 20 18 19 21 24 25 28 31 33 37 39 38 37 38 40 40 40 40 41 41 41 40 39 39 40 43 44 45 45 45 46 51 53 54 54 55 57 58 58 58 58 57 55
33 31 28 26 19 12 16 15 15 18 23 26 27 28 32 37 38 37 37 39 40 39 39 40 40 39 38 38 39 41 43 45 46 47 47 48 49 51 52 52 52 53 54 56 56 55 54 54 52
33 30 29 27 25 19 11 12 18 18 20 24 24 24 28 38 37 36 37 38 39 39 38 38 37 37 36 37 39 40 41 42 43 43 44 47 49 49 49 49 50 50 50 51 51 51 51 50 48
34 31 28 25 23 20 20 16 20 20 20 20 21 25 33 38 37 36 36 38 38 38 37 37 37 36 36 38 38 38 39 40 39 39 38 38 42 43 44 45 44 44 46 46 46 45 45 45 44

GFSSGP_sfc_30mbdewp_042.txt.gz
Dewpoint
57 52 52 45 37 36 33 30 27 25 26 29 29 44 49 49 48 38 62 66 70 71 72 73 73 73 73 73 72 72 72 71 70 68 68 66 64 65 68 67 68 67 65 64 64 63 62 61 61
55 50 48 42 36 33 30 31 29 27 29 30 29 37 49 53 57 63 64 68 70 71 72 72 73 73 73 73 72 72 72 71 69 68 67 65 63 68 68 68 68 66 65 63 61 61 61 61 59
51 50 44 40 37 33 29 31 28 29 30 29 28 43 51 55 59 61 66 68 70 71 72 73 73 73 73 72 72 72 71 69 68 66 65 62 64 68 68 68 67 65 63 62 62 63 63 63 61
45 47 43 39 37 36 34 35 30 28 29 30 42 50 56 59 59 63 67 68 67 68 70 73 73 73 73 72 72 71 70 67 67 66 64 63 67 68 67 66 65 64 63 62 64 64 64 63 63
50 47 42 38 36 37 37 36 30 27 28 29 39 52 56 60 62 66 66 65 66 67 69 70 70 72 72 71 70 70 69 68 67 65 62 63 66 67 66 65 65 64 64 64 64 64 63 63 63
45 48 41 38 36 37 37 36 33 28 28 39 52 55 56 60 61 64 64 65 66 66 66 67 67 68 69 69 69 70 69 68 66 64 63 63 63 64 65 65 65 64 65 64 63 62 62 62 63
42 42 41 40 39 39 38 41 31 27 27 29 52 54 58 59 60 64 64 65 65 65 65 65 65 66 67 67 68 69 69 67 66 65 65 65 64 64 64 65 64 65 65 63 61 60 60 61 62
43 42 39 40 38 39 42 42 40 27 27 30 50 53 57 60 62 64 65 64 64 64 64 64 64 65 65 65 67 68 68 67 66 66 65 64 64 65 65 64 65 66 65 61 60 59 60 60 60
48 41 38 39 39 41 43 43 43 33 38 49 57 58 60 63 62 63 63 63 63 64 64 64 64 65 65 65 66 68 68 66 66 66 65 64 64 65 66 65 66 66 64 61 59 58 60 59 57
44 40 39 39 40 42 44 45 44 35 35 52 59 62 62 63 61 62 61 62 62 63 63 64 64 65 65 65 65 67 67 66 65 64 64 63 63 65 65 65 66 67 65 61 59 57 57 55 47
46 40 40 39 40 48 46 44 45 40 29 47 54 59 61 62 61 61 62 62 62 62 63 64 64 64 63 63 65 65 67 65 64 63 63 62 62 63 64 64 65 65 65 61 60 58 54 49 45
43 43 41 42 49 46 45 46 44 37 31 33 54 59 59 61 61 61 61 62 63 63 63 63 63 62 61 63 64 64 66 65 64 63 62 61 60 60 62 63 64 65 64 61 60 57 54 48 46
41 41 43 46 48 48 48 45 45 43 39 36 57 58 56 59 60 61 62 61 62 62 63 64 64 61 61 63 62 63 65 66 65 63 62 61 60 59 61 62 63 64 64 62 60 59 57 53 49
41 39 42 46 46 47 45 44 46 37 33 44 53 56 57 56 57 60 61 61 62 62 62 63 64 65 62 63 62 61 63 65 65 64 63 62 61 60 60 61 61 63 63 63 61 59 57 52 47
39 38 38 38 40 39 43 42 40 38 34 34 34 36 39 47 57 59 60 61 62 62 62 62 63 64 65 63 62 61 61 62 63 63 64 63 62 61 60 60 60 60 61 62 61 60 57 52 45
37 36 33 35 37 37 38 33 37 38 34 32 33 32 32 32 33 52 60 60 61 63 63 63 64 64 64 65 65 64 64 62 60 60 60 62 62 62 61 61 62 61 60 60 60 58 55 50 43
37 32 32 33 36 35 32 31 34 34 33 32 33 33 33 32 32 32 38 56 56 61 63 63 64 64 64 65 65 65 65 65 63 61 60 59 61 62 62 62 62 63 63 62 60 59 54 51 46
31 32 31 30 35 34 33 33 32 33 31 31 33 33 32 30 30 30 31 33 36 38 49 57 63 64 65 65 65 65 65 65 65 65 63 62 61 60 60 61 61 62 62 62 62 61 56 52 49
33 31 31 32 34 33 32 33 34 33 30 30 31 30 29 28 29 31 31 31 33 34 35 35 39 41 59 64 64 64 64 64 64 65 65 65 64 63 61 60 59 60 61 61 62 61 60 54 47
33 30 30 30 32 33 33 32 33 33 33 30 28 29 29 28 27 28 32 36 37 38 39 39 38 36 36 42 47 61 63 64 64 64 64 64 65 65 64 62 61 60 60 60 60 60 58 57 48
31 30 28 27 30 30 28 28 30 32 32 31 30 29 30 27 25 29 36 39 41 42 43 43 42 40 39 36 37 38 40 52 60 62 63 63 64 64 64 64 63 61 61 60 60 60 59 57 51
30 27 26 28 29 27 26 23 21 27 29 30 30 28 28 25 24 34 37 40 42 44 44 43 42 40 40 40 39 36 35 35 40 49 56 57 61 62 63 63 62 62 61 61 60 60 60 57 54
28 28 29 29 28 26 24 22 21 22 23 26 28 25 24 25 33 36 38 42 43 43 43 42 41 42 43 42 41 40 40 40 40 41 42 44 49 57 61 62 62 61 61 61 60 61 60 59 58
32 30 29 29 26 21 24 23 21 19 21 24 24 23 23 31 35 37 42 43 43 42 42 42 42 42 43 43 43 43 42 42 42 42 44 45 46 48 55 60 62 61 61 60 60 60 60 58 56
30 26 23 23 22 20 23 24 22 23 23 24 25 27 31 33 37 39 40 41 41 41 42 42 42 41 41 41 40 41 42 43 43 44 44 45 46 51 54 59 60 60 61 60 60 59 59 59 57
28 25 21 17 18 19 21 19 19 22 21 24 28 29 30 34 38 39 40 39 40 41 41 41 41 41 40 39 39 40 42 43 45 45 45 44 45 49 54 57 58 57 58 59 58 57 57 58 57
32 27 27 23 20 20 20 21 20 22 23 26 27 29 30 35 39 39 38 39 40 40 40 40 40 39 38 38 40 42 43 44 46 47 47 48 49 50 52 53 52 53 54 56 57 56 56 57 56
33 31 26 26 18 14 17 18 16 20 23 26 27 29 33 38 39 37 38 39 40 39 39 38 38 37 36 39 40 40 41 42 43 43 44 47 49 50 50 50 50 51 51 53 53 53 52 52 51
32 31 31 29 25 19 16 14 17 19 24 26 28 31 34 38 38 37 38 39 39 38 38 37 37 36 36 38 38 38 39 40 40 38 38 42 44 45 47 47 47 47 47 47 47 47 46 47 46
34 32 30 27 25 22 20 17 20 20 23 27 27 27 27 37 37 37 38 38 38 37 37 36 36 36 37 37 37 38 38 38 39 38 37 37 38 37 38 39 40 42 43 43 43 43 42 43 42

GFSSGP_sfc_30mbdewp_045.txt.gz
Dewpoint
62 54 51 44 37 37 30 29 31 26 25 29 30 38 37 50 45 38 62 67 69 71 72 73 73 73 73 73 72 72 71 71 70 68 67 66 65 66 67 68 66 65 65 64 63 63 62 62 62
58 51 46 42 35 31 29 32 29 27 28 34 43 46 51 50 58 63 64 69 70 71 72 73 73 73 73 72 72 72 71 70 69 68 67 64 66 68 67 68 67 65 64 62 61 61 60 60 61
57 49 42 39 37 31 26 32 34 29 30 29 36 49 53 54 61 63 66 70 70 70 72 72 73 73 73 72 72 72 70 69 68 67 65 63 69 67 68 68 66 64 63 62 62 62 62 60 60
47 45 43 39 36 36 34 36 36 30 29 30 46 50 57 60 61 63 68 70 70 71 71 72 73 73 73 72 72 72 69 68 67 66 63 64 69 69 68 67 65 64 63 63 63 64 63 63 62
50 45 39 37 36 38 37 37 37 35 30 30 45 52 56 60 64 67 68 68 69 70 72 72 73 73 72 72 72 71 69 68 67 64 63 67 67 67 67 66 65 64 63 64 64 64 63 63 63
44 46 38 36 37 38 39 41 37 31 29 47 51 54 56 61 65 66 66 66 68 69 70 71 71 72 72 72 71 70 69 68 66 63 63 65 67 67 66 66 65 64 64 64 64 63 62 63 62
43 41 39 40 39 39 39 43 37 35 26 36 54 53 58 59 64 64 65 66 66 67 67 67 68 69 69 70 70 70 69 67 66 65 65 65 64 64 64 65 65 64 65 63 62 61 61 62 62
45 42 40 40 38 39 43 43 43 43 28 38 54 52 56 60 64 64 65 65 65 65 65 64 65 66 67 68 68 69 68 67 66 66 66 65 65 64 65 65 65 65 65 62 61 60 60 61 60
49 40 36 38 38 40 43 43 45 45 39 47 59 58 60 62 64 63 63 63 64 64 64 64 64 64 65 65 67 68 67 66 66 66 65 64 64 65 65 64 65 67 65 61 60 59 60 59 57
46 41 38 37 40 43 44 44 44 43 42 48 59 62 62 63 63 62 62 62 62 63 63 64 64 64 64 64 66 67 67 66 66 65 64 63 63 64 65 65 65 66 64 62 60 58 59 56 48
46 41 40 40 43 47 45 44 46 43 39 38 44 60 61 61 62 62 62 62 62 63 63 64 64 64 64 64 65 66 66 65 64 64 63 63 63 64 64 64 65 65 66 62 61 59 55 50 44
43 42 41 44 46 44 43 47 46 44 41 42 43 55 61 60 61 61 62 62 62 62 63 64 64 64 63 63 64 65 66 64 63 63 63 62 61 61 62 62 63 64 65 62 60 58 55 50 46
43 42 41 48 48 47 48 45 47 45 45 41 40 58 60 60 61 61 62 62 62 62 63 63 63 63 62 63 64 64 65 65 63 63 62 61 60 59 60 61 62 63 64 63 60 59 58 55 51
43 42 44 47 46 46 45 44 47 44 43 41 56 57 57 60 60 61 61 62 62 63 63 63 63 62 61 62 62 63 64 65 65 63 62 62 60 59 59 60 61 62 63 63 62 60 59 57 54
42 41 45 45 44 46 46 44 44 43 45 40 35 55 55 56 59 60 61 61 61 62 63 63 64 64 61 61 62 61 62 64 65 64 64 63 62 60 59 59 60 61 62 63 62 61 59 58 54
38 40 38 42 44 44 42 35 42 45 42 40 36 33 40 47 55 57 59 60 61 62 62 62 64 64 64 62 62 61 61 61 63 63 64 64 63 62 60 59 60 60 60 61 61 60 59 58 55
36 32 34 35 40 41 38 35 37 41 40 37 35 33 32 32 32 38 50 60 61 62 62 62 63 64 64 65 64 63 63 62 61 61 61 62 63 62 62 61 61 61 60 59 60 59 58 57 54
32 31 33 32 36 40 38 33 38 39 39 34 33 33 33 33 32 30 31 39 51 54 61 63 63 64 64 64 64 64 65 65 65 64 62 60 60 61 62 62 62 62 62 62 61 59 58 56 55
33 31 31 31 34 35 38 33 36 39 39 31 31 32 33 31 29 31 32 33 35 36 41 45 55 51 63 64 64 63 63 63 64 65 65 64 63 61 60 60 60 61 61 61 62 61 60 58 52
33 31 31 32 34 34 33 32 34 34 35 33 31 30 31 29 27 30 33 34 36 37 38 38 38 36 38 49 56 62 63 64 64 64 64 64 64 64 64 62 61 60 60 60 60 61 59 58 52
31 30 29 29 31 31 31 30 32 33 34 33 32 31 30 29 26 31 35 38 40 41 42 42 40 40 40 36 37 38 39 46 56 60 62 63 63 63 64 64 63 61 60 60 60 60 59 58 54
31 30 28 29 29 28 30 26 25 29 31 32 33 32 31 29 25 33 37 40 42 44 43 41 41 41 41 41 39 37 35 35 38 43 46 44 49 56 60 62 62 62 61 60 60 60 59 58 58
30 28 28 28 28 26 25 26 25 22 22 27 29 31 31 27 25 34 38 42 43 43 41 42 43 43 44 43 42 41 40 41 41 42 41 42 44 46 50 57 60 61 61 61 60 60 59 59 59
31 29 29 28 26 24 25 25 22 21 21 21 23 28 27 25 31 37 42 43 42 42 42 42 42 42 42 41 42 42 42 42 42 43 44 45 47 49 50 55 58 60 60 60 60 59 59 59 58
30 27 26 23 23 21 24 23 22 23 23 23 23 24 25 28 35 39 42 41 41 41 42 42 41 41 40 40 40 40 41 43 43 44 44 44 44 47 52 55 58 59 60 60 59 59 59 58 57
28 26 23 18 19 20 22 20 22 24 24 25 24 26 27 33 38 40 41 40 41 41 41 41 41 39 39 39 40 43 44 45 46 46 46 46 46 46 51 55 54 54 55 56 57 56 56 56 56
31 25 24 21 20 19 20 20 20 21 22 23 25 28 30 35 38 39 40 40 40 40 40 40 39 38 37 39 41 41 42 43 44 45 47 48 49 51 51 51 51 51 53 54 55 54 53 53 53
32 30 25 24 17 15 16 18 16 17 19 24 27 28 31 36 38 39 39 40 40 39 39 38 37 36 37 39 39 39 40 41 40 40 42 45 46 47 48 48 48 48 48 49 49 48 48 48 47
31 30 30 27 22 16 16 14 19 17 19 23 27 29 31 36 38 38 39 39 39 38 37 37 37 36 37 38 38 38 39 39 39 38 38 39 39 41 43 44 45 45 44 45 45 44 46 45 44
34 31 30 24 24 23 20 19 20 20 20 25 28 30 34 37 38 37 38 38 38 37 37 36 36 36 37 37 37 38 38 38 38 37 36 37 37 37 37 38 39 40 41 41 41 41 41 41 41

GFSSGP_sfc_30mbdewp_051.txt.gz
Dewpoint
63 55 49 43 30 34 24 25 33 29 25 30 30 33 36 46 40 31 63 67 66 68 70 71 72 72 72 73 72 71 71 70 68 68 67 66 67 69 66 66 66 64 63 64 64 64 65 65 65
60 53 45 41 30 24 24 32 32 35 31 39 41 49 49 48 60 62 64 67 67 69 69 70 73 73 73 73 72 71 70 69 68 67 66 66 67 69 67 66 66 62 62 62 62 62 64 64 63
52 48 41 36 34 24 20 33 36 37 37 33 41 53 54 55 62 63 65 68 69 69 69 71 73 73 73 73 72 71 70 69 68 66 65 67 67 69 67 67 64 62 62 62 61 61 63 62 63
50 45 42 35 31 33 31 36 38 37 31 31 43 51 57 60 62 64 68 68 69 70 70 72 73 73 73 73 72 71 69 69 67 65 66 69 68 69 68 66 64 63 63 63 63 63 63 63 63
50 44 37 35 34 37 38 38 41 36 32 32 48 50 56 62 66 67 68 69 68 69 70 71 73 73 73 72 72 70 69 68 65 64 68 69 69 69 67 66 64 63 64 64 63 63 63 63 63
44 44 35 32 34 38 40 42 39 40 35 39 51 54 57 64 65 67 68 68 68 69 71 70 72 73 72 72 71 70 69 67 65 65 68 69 67 67 66 65 64 64 64 64 63 63 63 63 63
43 41 36 34 34 38 39 43 42 41 35 38 52 52 58 62 66 67 68 68 68 70 70 70 70 71 72 72 71 70 69 67 65 67 69 68 67 67 66 66 65 64 64 63 62 62 63 63 62
48 43 39 39 35 34 42 43 44 42 39 42 58 51 54 61 65 66 68 68 68 69 69 69 70 69 70 71 70 69 68 67 66 67 66 65 65 66 65 66 65 65 64 62 61 61 61 61 59
51 43 39 38 38 40 44 42 45 45 43 51 54 52 60 63 65 65 65 66 67 67 67 68 68 68 69 70 69 68 67 66 66 66 65 64 64 64 65 65 65 66 65 62 60 60 61 59 56
46 39 40 40 42 43 44 43 45 42 37 40 43 45 47 63 63 63 63 63 65 65 65 65 66 67 68 68 68 68 67 65 65 65 65 64 64 64 65 64 65 65 65 62 60 59 59 53 47
47 40 42 40 43 45 44 44 46 42 38 42 44 43 46 60 61 62 63 64 64 65 64 64 64 65 65 66 67 67 66 65 65 64 63 62 63 64 65 64 64 65 66 63 61 60 56 51 47
43 43 42 44 46 44 41 46 43 44 42 46 44 44 48 53 60 61 62 63 63 63 64 64 64 64 64 64 66 66 65 65 64 64 63 62 61 62 63 63 63 64 64 65 63 60 59 56 52
43 44 47 46 46 46 45 42 43 43 46 45 45 44 45 53 59 61 62 62 63 63 63 63 64 64 63 64 65 66 65 64 64 63 63 62 61 60 61 61 62 63 64 64 63 62 60 59 58
44 44 42 45 46 46 44 43 43 41 45 44 44 44 42 48 59 61 61 62 62 63 63 63 63 64 63 63 64 64 65 65 64 63 63 62 61 60 60 59 60 61 62 63 62 62 61 60 60
45 41 44 45 45 45 46 39 41 43 44 43 43 44 42 38 56 60 61 62 62 63 63 63 63 63 63 63 63 63 63 64 65 64 63 63 62 61 60 59 59 59 61 61 62 62 62 61 60
39 41 38 45 45 47 43 37 40 42 42 43 44 43 42 39 37 58 61 62 62 63 63 63 63 63 63 62 63 63 63 63 64 64 64 64 63 62 61 60 60 60 60 60 61 61 60 60 60
40 34 37 41 44 44 41 37 38 42 44 41 43 43 41 38 36 35 52 61 62 62 62 63 64 64 63 63 62 62 62 62 62 63 63 64 64 63 62 62 62 61 60 60 60 60 60 59 59
33 34 36 38 43 43 40 37 37 44 43 40 40 44 42 39 37 35 32 35 58 61 62 62 63 64 64 64 63 63 62 63 62 62 62 62 63 63 63 63 63 62 61 61 60 60 60 59 59
33 34 33 35 43 41 39 37 36 41 42 44 44 45 44 40 37 33 32 33 40 52 58 61 62 63 63 64 64 64 63 64 64 64 63 63 62 62 62 63 62 62 61 61 61 61 60 60 59
34 31 33 32 41 40 39 38 38 39 40 41 42 42 43 40 35 31 31 34 36 41 44 48 58 57 62 63 63 63 63 64 64 64 64 65 65 64 63 62 61 61 61 61 61 61 60 60 58
31 31 31 31 38 35 37 36 38 37 40 41 42 42 42 38 36 32 31 35 38 40 41 41 41 40 40 44 46 45 45 45 50 56 58 53 47 56 63 64 63 63 61 61 61 61 60 59 57
30 31 32 32 34 29 33 27 31 37 35 37 38 40 40 35 33 31 31 36 40 42 41 41 42 42 42 41 38 37 37 37 39 41 43 44 45 46 47 52 58 61 62 61 61 61 60 59 58
30 31 30 30 29 28 27 29 29 30 34 34 35 36 35 36 34 32 31 37 42 42 42 43 43 43 43 43 42 42 41 42 43 43 44 45 46 47 51 53 51 53 56 59 60 60 60 59 59
30 28 28 28 27 26 27 28 26 26 26 28 33 34 35 35 34 32 34 41 42 42 43 42 41 41 41 41 42 42 42 42 43 43 43 44 45 46 48 52 55 57 58 58 58 59 59 59 58
29 27 26 24 23 22 23 25 26 26 24 23 24 25 29 33 33 32 36 42 41 42 42 41 40 40 40 41 42 43 44 44 44 45 45 45 46 46 48 51 54 55 56 58 59 59 59 58 58
28 25 22 17 19 22 23 22 22 25 25 24 24 25 26 26 28 32 39 42 41 42 42 41 40 39 40 41 41 42 43 44 45 46 46 47 48 49 51 51 51 52 53 55 56 56 56 57 55
30 26 24 20 19 19 20 21 20 20 19 21 22 25 25 26 29 36 41 41 41 41 41 40 39 38 39 40 40 40 41 42 42 42 44 47 46 47 48 48 49 49 50 52 53 53 52 52 51
30 28 25 22 16 14 16 16 13 17 18 19 19 21 26 30 36 40 41 41 41 40 40 39 38 38 39 39 39 39 40 40 40 40 40 41 40 42 44 45 46 46 46 47 49 49 49 48 48
28 28 27 25 21 16 14 13 19 19 19 19 20 22 28 32 38 40 40 40 40 39 38 37 37 37 38 37 38 38 39 39 39 38 38 38 38 38 40 42 42 42 42 43 45 45 46 45 44
33 29 27 23 23 22 20 19 21 19 21 21 22 27 30 35 39 40 40 39 38 38 37 37 37 36 37 37 37 38 38 38 38 37 37 37 37 37 38 38 39 39 39 39 40 40 40 40 39

GFSSGP_sfc_30mbdewp_054.txt.gz
Dewpoint
62 56 51 45 30 27 21 23 30 28 24 32 30 33 40 40 33 37 62 63 62 64 65 68 73 73 72 72 71 70 69 69 68 67 66 68 68 66 67 66 64 63 64 64 65 65 65 65 65
58 50 46 41 27 22 21 26 26 31 33 35 42 42 40 42 56 61 61 65 63 64 65 66 73 73 73 72 71 71 69 69 68 67 66 67 69 67 67 66 62 62 63 63 64 65 65 64 64
52 48 39 33 26 22 18 28 32 36 37 36 39 50 49 52 60 60 62 64 63 64 64 67 72 73 72 72 72 71 69 69 67 66 66 67 69 68 67 65 62 63 62 62 63 64 63 64 64
48 44 41 29 25 26 25 34 38 34 31 34 38 48 57 61 60 61 64 63 63 64 64 71 73 73 73 72 72 70 69 68 67 65 68 67 69 68 67 64 63 64 63 63 63 63 64 64 64
48 42 30 29 25 29 36 38 39 34 31 34 42 48 55 63 64 65 64 64 63 63 66 69 73 73 73 72 72 70 69 67 65 66 69 68 69 68 66 65 64 64 64 63 63 64 64 64 63
42 41 28 26 27 34 37 41 38 35 32 42 45 50 56 64 64 66 65 63 63 63 66 68 72 73 72 72 71 70 69 67 64 67 70 70 68 67 66 65 64 65 64 63 63 63 63 63 62
37 36 30 27 28 37 38 41 39 34 34 42 49 49 58 62 66 67 66 63 63 65 65 68 68 70 72 71 70 70 69 66 65 68 69 68 67 67 66 65 64 65 64 63 63 63 63 63 61
42 36 34 32 31 33 42 43 43 36 39 50 57 53 55 61 66 67 67 64 62 67 67 66 67 66 67 69 69 69 68 66 67 68 66 66 67 66 66 66 65 65 64 62 61 61 62 61 60
50 39 34 34 32 36 43 41 44 44 46 46 45 44 49 62 66 66 66 64 62 65 66 65 66 64 66 69 68 68 67 66 66 66 64 64 61 62 64 65 65 66 63 62 60 61 61 58 56
45 41 36 39 41 41 43 42 43 41 41 42 42 44 55 64 65 63 63 62 61 63 64 65 65 64 65 69 67 67 65 63 63 61 60 57 58 59 61 63 65 66 65 62 60 60 59 53 46
45 40 40 40 43 44 43 43 45 39 39 42 41 43 48 61 62 63 62 61 60 61 62 64 66 65 65 66 67 66 64 63 63 62 61 57 57 60 60 59 59 60 64 62 61 60 56 52 48
43 42 40 39 45 43 40 44 42 42 42 45 44 43 46 50 60 61 63 62 61 62 62 64 64 65 65 65 65 64 63 63 63 63 62 59 57 58 57 56 56 58 60 60 61 59 58 58 56
42 43 43 41 46 44 44 42 42 42 43 45 44 44 42 48 57 60 62 63 64 63 64 64 64 64 64 65 65 64 63 63 63 63 63 61 60 59 57 55 55 56 58 58 59 60 58 58 58
41 44 43 42 45 45 44 42 43 37 43 43 43 43 43 41 52 59 61 62 63 64 64 64 64 64 63 63 64 64 64 63 63 63 63 62 61 60 59 58 56 55 57 59 59 59 60 60 60
41 40 42 43 42 41 46 42 40 41 41 41 40 41 43 42 39 56 60 61 63 63 64 63 63 63 62 62 62 62 63 63 62 62 63 62 62 61 60 60 60 59 58 59 60 60 61 60 60
36 38 37 40 43 43 43 34 37 40 40 39 39 40 42 42 40 37 56 61 62 63 63 63 63 63 62 61 61 60 60 61 61 62 62 63 62 62 62 61 61 61 60 60 60 60 60 60 60
35 30 34 41 41 43 40 35 38 40 41 39 38 38 40 41 42 38 36 60 62 63 63 63 64 63 63 63 62 62 61 62 62 62 62 63 63 62 62 62 62 62 61 61 61 60 60 60 60
25 27 33 38 41 42 40 38 36 38 39 38 36 36 38 42 42 41 36 36 59 62 63 63 64 64 64 64 63 63 62 61 61 61 62 62 62 62 63 62 63 63 62 62 61 61 61 61 60
27 29 32 38 42 41 40 39 38 37 40 39 37 37 37 40 42 40 34 34 37 57 61 62 63 64 64 64 63 63 63 63 63 63 63 63 63 62 63 63 63 63 63 62 62 61 61 61 62
31 29 29 34 40 41 39 37 37 36 36 38 37 36 39 40 42 41 34 34 36 43 57 60 61 62 63 63 63 63 64 64 64 65 65 65 65 65 65 65 64 64 64 63 62 62 61 61 61
29 27 29 29 36 38 36 34 35 36 36 37 37 36 38 40 40 40 36 34 39 41 46 50 54 58 60 63 61 59 59 58 60 62 63 58 51 55 61 64 65 64 64 62 63 63 62 61 60
27 30 31 31 29 23 33 17 27 32 34 35 36 37 36 39 41 40 36 34 39 43 43 43 43 44 43 44 51 55 57 55 45 43 44 45 46 47 47 47 50 55 59 61 61 61 61 61 58
29 32 30 28 25 28 29 25 18 29 30 31 34 36 37 39 41 39 36 35 40 43 44 44 43 43 43 43 42 41 41 42 43 43 44 45 45 47 49 52 53 51 50 53 55 56 57 59 58
31 31 31 31 28 24 24 25 19 23 25 27 30 34 36 37 37 37 36 37 41 44 45 44 42 42 43 43 43 43 43 42 43 43 43 44 45 46 47 48 53 55 56 57 57 58 58 58 59
29 26 25 23 24 19 25 25 20 26 26 25 25 26 31 35 36 36 35 38 41 43 44 43 41 41 41 42 43 43 44 44 44 45 44 45 45 46 48 51 52 54 56 57 57 58 58 59 59
29 22 20 16 17 18 23 22 20 25 25 25 25 25 26 27 29 35 35 38 41 43 43 41 41 40 41 42 42 42 43 44 44 45 45 46 47 48 50 51 52 52 53 55 57 58 58 57 57
31 28 24 23 21 21 19 21 21 20 21 20 21 23 25 26 27 29 33 39 42 42 42 41 40 40 41 41 41 41 41 42 42 43 45 47 47 47 48 50 50 50 51 53 53 54 53 53 53
30 28 24 27 19 13 15 16 10 18 20 20 20 21 23 28 30 32 37 40 42 42 42 41 40 39 40 40 40 40 40 41 41 41 42 43 43 44 45 47 47 47 48 49 51 50 50 49 49
29 28 28 25 24 16 10 9 18 20 20 21 22 25 27 29 33 37 39 41 41 41 41 39 39 39 39 39 39 39 39 40 40 40 40 41 41 41 42 43 44 44 45 46 48 47 47 46 45
31 27 27 23 23 23 20 14 19 21 21 22 25 28 30 33 36 38 40 40 40 39 39 38 38 38 39 38 38 38 38 39 39 39 39 39 39 39 40 41 41 41 41 42 44 43 43 43 42

GFSSGP_sfc_30mbdewp_057.txt.gz
Dewpoint
62 55 50 46 32 26 24 25 26 28 26 29 30 36 37 41 35 47 56 57 60 63 67 70 73 72 72 71 70 70 69 69 68 67 68 67 66 67 65 63 64 65 65 65 67 65 65 65 64
57 49 47 39 29 21 22 26 26 29 28 33 36 36 39 47 54 58 58 58 59 62 66 68 73 72 72 71 71 70 69 68 68 67 68 68 67 66 65 62 63 64 64 65 65 65 65 64 64
55 48 38 32 27 19 19 25 25 31 35 34 33 43 44 53 57 56 59 59 59 61 63 69 73 73 72 71 71 70 69 68 67 66 67 69 68 67 64 62 63 62 62 64 64 64 65 64 64
47 44 39 31 25 22 20 26 27 31 30 35 36 40 56 61 58 60 60 59 59 60 62 71 73 73 72 72 71 69 69 67 66 66 67 69 69 67 65 63 64 63 63 63 64 64 64 64 64
47 38 29 27 27 24 25 34 36 28 28 34 39 47 55 63 62 62 60 58 59 60 66 68 73 72 72 72 71 70 69 66 65 68 69 69 68 67 65 64 64 64 63 63 64 64 64 64 62
41 37 29 26 26 26 29 37 35 31 29 39 40 45 58 64 64 61 60 59 59 60 66 67 72 72 72 72 71 70 68 65 66 69 69 70 68 67 66 64 65 64 64 63 63 63 64 63 60
38 36 30 27 26 28 33 40 36 30 29 42 48 42 59 63 66 66 60 59 59 62 63 67 69 70 72 71 71 70 68 65 66 69 70 68 67 67 66 65 65 65 64 63 63 63 63 63 59
41 39 33 29 27 31 37 42 42 35 36 52 54 49 56 60 66 67 64 59 60 61 64 67 66 67 68 69 69 69 67 66 69 68 67 67 67 67 66 65 65 65 63 62 61 62 62 61 59
45 41 37 34 29 34 41 38 42 44 44 46 45 46 51 63 66 66 65 59 60 65 64 67 65 63 65 66 67 68 66 66 67 66 65 64 60 63 63 65 66 65 63 61 60 61 61 58 56
45 42 37 40 37 39 41 38 40 41 42 43 42 47 61 64 65 64 63 60 57 64 65 66 66 61 66 67 66 66 64 62 61 58 60 57 56 57 61 63 65 66 64 61 60 60 59 53 48
43 39 38 39 40 42 42 42 42 39 40 42 41 45 60 63 64 62 62 61 58 62 64 64 65 64 68 66 66 66 63 62 62 60 58 53 54 58 58 59 60 61 64 62 61 60 56 52 50
42 40 41 41 45 41 40 42 40 40 42 43 43 43 52 61 62 62 62 60 58 59 59 60 64 65 65 65 66 65 63 60 61 61 60 57 54 56 55 55 55 56 59 59 59 57 56 57 56
45 40 41 46 43 42 44 40 40 41 43 43 42 42 43 54 60 61 63 63 62 59 60 61 63 63 64 65 65 64 63 60 60 60 61 59 58 57 54 52 52 53 54 56 56 58 57 57 58
42 43 41 41 42 43 42 42 43 39 41 42 42 41 42 43 55 60 61 62 63 63 62 62 62 62 63 64 64 64 64 60 59 60 61 61 59 59 58 56 54 52 54 56 57 58 59 59 59
39 37 41 41 40 38 42 39 38 40 40 39 40 40 41 42 43 56 60 62 62 63 63 63 63 63 63 63 62 62 62 60 59 59 60 60 60 60 59 59 59 58 56 57 58 59 59 59 59
41 43 38 39 39 38 38 32 35 39 40 39 39 38 39 41 41 41 51 60 61 62 63 63 62 62 60 59 60 60 59 59 59 60 60 61 60 61 61 61 61 61 60 60 59 59 59 59 59
33 33 35 34 38 38 38 30 35 36 37 38 39 37 38 39 41 41 38 55 60 62 62 63 63 63 62 61 61 60 59 60 60 60 61 61 61 61 61 61 61 61 61 61 61 60 60 60 60
25 20 27 32 38 39 39 36 37 38 39 38 38 37 37 38 40 41 39 38 58 61 62 63 64 63 63 63 62 62 61 60 60 60 61 61 62 62 62 62 61 61 62 62 62 60 61 61 60
22 20 25 29 38 39 38 37 37 36 37 36 37 37 36 36 39 42 38 36 37 59 61 62 63 64 64 64 63 62 62 62 61 61 61 62 62 62 62 63 62 62 62 61 61 61 60 61 61
21 21 27 34 39 39 38 38 37 36 36 36 35 35 35 35 37 42 38 35 35 43 59 61 62 63 64 64 64 63 63 63 62 63 64 64 63 64 64 65 64 64 64 64 62 62 62 62 62
25 22 23 31 38 38 37 38 36 36 36 35 35 34 35 34 36 41 39 36 37 38 48 58 60 61 62 64 64 64 63 62 63 64 64 64 57 58 62 64 65 65 65 64 64 63 62 61 61
23 25 27 28 31 26 33 20 28 31 33 34 34 34 35 36 38 39 40 36 39 40 45 49 53 58 58 61 61 60 60 60 59 53 51 49 47 47 47 47 48 50 57 61 60 61 61 61 59
25 29 28 28 27 19 27 24 18 25 26 29 32 33 34 36 37 39 40 38 38 44 45 45 46 46 46 47 51 54 53 47 44 44 44 44 45 47 47 50 52 53 52 51 52 54 56 58 57
32 28 27 26 23 21 23 21 16 17 24 24 25 29 32 34 36 39 42 39 40 45 46 45 44 43 44 44 44 43 43 43 43 44 43 43 44 45 47 48 49 53 54 55 57 57 57 57 56
29 26 22 21 23 20 23 20 19 23 25 24 25 26 28 31 33 36 38 38 40 45 45 45 42 42 43 43 43 43 44 44 44 44 44 44 43 45 46 50 50 51 54 55 55 55 56 57 57
28 23 19 14 15 16 23 20 18 23 24 24 25 26 26 27 27 35 38 38 40 44 45 43 41 41 41 42 42 43 44 44 44 44 45 44 45 46 48 49 50 51 52 54 55 57 57 57 58
26 23 24 23 20 18 19 18 21 21 21 21 21 22 23 25 26 28 33 38 41 43 43 42 41 40 41 42 41 41 42 43 43 43 44 45 46 46 47 49 50 50 51 52 53 54 53 53 53
30 28 22 26 18 10 14 13 11 17 19 20 23 25 26 27 28 29 30 35 41 43 43 41 41 40 41 41 40 40 41 41 42 42 42 43 43 44 45 47 48 48 49 49 51 51 50 50 50
29 28 28 25 24 18 7 8 17 19 21 23 25 28 28 29 30 33 35 38 41 42 42 41 40 40 40 40 40 39 40 40 40 40 40 41 41 42 43 44 45 45 45 46 49 48 48 47 47
31 26 26 21 23 20 19 16 18 21 22 24 26 28 29 31 33 35 37 39 40 41 41 40 39 40 40 39 39 39 39 39 39 39 39 39 39 40 41 41 42 42 43 43 45 45 45 45 44

GFSSGP_sfc_30mbdewp_060.txt.gz
Dewpoint
63 62 54 50 42 33 27 26 33 35 30 35 34 35 39 53 49 49 57 62 68 68 71 72 72 72 72 71 70 70 70 69 68 69 66 67 65 64 63 64 65 66 67 67 65 65 65 64 64
62 54 49 46 36 28 23 27 27 35 30 34 36 40 45 53 56 55 57 62 66 68 70 71 73 72 72 71 71 70 69 68 67 69 68 67 66 63 63 64 64 65 65 65 65 65 65 64 64
60 52 44 39 34 29 23 26 28 29 34 34 34 44 55 57 56 57 58 60 64 67 67 72 73 72 72 71 71 69 68 68 67 68 69 69 67 64 62 63 63 64 65 65 65 65 65 65 64
54 46 44 32 29 30 25 23 28 31 34 36 33 51 59 64 61 60 59 59 63 64 70 73 73 72 72 71 71 69 68 67 67 68 70 69 67 64 63 64 63 63 64 64 65 65 64 64 64
54 41 35 33 30 29 26 35 34 30 29 33 40 48 59 63 64 60 58 59 61 68 70 72 73 73 72 72 70 69 67 66 67 68 69 69 67 65 64 65 64 63 64 64 64 64 64 62 64
48 44 31 28 30 30 32 36 34 32 29 34 35 54 60 65 65 61 59 59 61 67 69 71 73 72 72 72 71 69 66 66 69 69 70 68 67 66 64 65 65 64 63 63 63 64 64 62 62
46 40 36 30 28 27 36 39 37 32 29 44 52 36 60 63 65 67 59 59 64 66 68 70 71 72 72 71 70 69 66 67 70 70 70 69 68 66 65 65 65 64 64 63 63 63 63 62 59
47 43 35 34 28 29 40 41 43 40 43 51 47 52 56 63 65 66 66 59 62 64 66 68 69 70 70 70 69 68 66 69 68 68 67 67 67 67 65 65 65 64 63 62 62 63 62 61 59
47 42 36 35 31 34 40 40 42 43 45 44 45 50 59 64 65 66 65 59 62 65 67 68 68 68 68 68 68 67 65 68 67 66 66 65 65 66 64 65 66 64 62 61 61 62 60 58 56
45 43 39 38 38 37 40 39 40 42 42 42 47 60 62 65 65 63 62 58 61 65 66 65 64 66 67 67 67 65 64 64 63 65 64 64 62 63 64 64 65 65 62 61 60 60 58 55 54
46 40 42 40 44 40 41 40 42 41 42 42 42 56 61 64 64 63 62 58 64 65 66 67 66 65 67 66 66 65 64 63 62 59 58 58 59 60 62 63 63 64 64 62 61 59 57 54 52
42 42 43 46 46 45 42 42 40 42 42 43 43 50 61 62 63 63 62 61 61 65 65 65 65 67 68 66 66 65 63 63 61 62 59 55 54 58 57 61 60 61 63 63 61 61 59 58 57
43 42 47 48 47 46 44 40 41 42 43 42 42 43 51 60 62 62 63 63 63 62 63 65 64 65 67 66 66 65 63 62 62 62 61 59 57 56 56 54 55 55 57 58 58 58 58 57 57
42 45 44 48 46 47 43 42 42 41 41 42 42 41 43 46 60 61 62 63 63 63 62 64 64 64 65 66 65 65 64 63 60 61 61 61 60 59 58 56 53 53 55 57 57 58 59 59 59
42 39 43 43 44 42 42 39 39 40 41 40 40 41 41 43 47 59 61 62 63 64 63 63 62 62 63 64 64 64 64 63 60 60 61 61 60 60 60 59 58 56 55 56 58 59 59 59 60
38 39 36 43 46 44 40 35 38 40 39 40 40 39 40 41 42 42 56 62 62 63 63 64 64 64 63 63 63 63 63 62 60 60 61 61 60 61 61 60 61 61 60 59 59 60 60 60 60
38 31 33 39 41 40 38 33 34 36 38 38 39 39 39 40 41 40 39 57 61 62 63 63 63 62 61 61 60 60 59 60 60 60 61 61 60 60 61 62 62 62 62 61 61 60 59 59 60
34 33 34 35 38 37 37 35 36 36 36 38 38 38 39 38 41 42 39 40 60 61 62 63 63 63 63 62 62 61 61 60 61 61 61 62 62 62 62 62 62 60 61 61 61 61 61 61 61
31 31 31 33 39 35 36 36 36 36 38 38 39 37 38 38 38 42 39 37 38 60 61 63 63 63 63 63 62 62 61 62 61 61 62 62 62 62 63 63 61 62 62 62 62 61 60 59 61
25 26 31 34 38 37 36 36 37 37 37 37 37 38 38 38 37 41 37 36 36 39 61 62 63 64 64 64 64 64 63 63 63 63 62 63 64 64 65 65 65 65 64 64 64 63 62 61 62
27 22 33 34 38 38 37 36 37 39 38 37 37 37 36 38 37 41 37 36 36 37 48 61 63 63 64 64 64 64 63 63 63 64 64 62 56 55 58 62 64 64 64 64 64 63 62 61 61
23 23 31 35 35 31 36 23 34 36 36 37 36 35 35 35 36 39 38 37 38 39 43 51 59 62 62 64 63 62 61 61 60 55 52 50 48 48 48 48 48 49 53 60 62 61 61 60 58
27 29 33 35 31 28 33 27 20 35 32 34 34 34 35 35 36 37 39 37 40 44 45 47 50 53 52 55 58 60 60 49 46 45 45 46 47 47 48 50 50 53 53 52 51 52 57 58 57
29 28 27 26 25 22 23 24 20 24 26 27 28 33 34 34 36 37 40 39 44 46 46 46 46 46 46 47 48 50 50 45 44 44 44 44 45 46 47 48 50 51 53 55 56 56 56 56 56
27 26 24 23 22 21 23 22 22 23 24 24 25 26 27 29 34 37 41 39 43 45 46 46 44 44 44 44 44 45 45 43 44 45 45 45 44 45 47 50 50 51 52 54 55 55 54 55 54
27 26 22 16 18 20 22 20 20 24 22 25 26 26 26 26 28 29 39 41 42 45 46 44 43 43 43 43 43 45 45 45 45 45 45 45 46 47 48 49 50 51 52 52 55 56 56 56 55
29 26 25 24 20 20 21 20 21 23 20 21 21 23 24 25 27 29 34 40 44 45 45 43 42 41 43 43 42 43 43 43 44 44 44 45 46 46 46 48 49 50 50 51 51 53 53 53 53
31 27 23 24 14 11 16 15 15 19 20 25 26 28 29 29 29 29 30 33 43 45 45 43 42 41 42 42 41 41 41 42 42 42 42 43 43 44 44 46 47 47 48 48 50 51 51 51 50
29 29 28 26 24 22 13 13 19 20 23 25 27 28 29 31 32 33 34 35 41 44 44 42 41 41 41 41 40 41 40 41 41 41 41 41 41 42 42 43 44 45 45 45 48 48 48 47 47
33 29 26 24 22 22 20 17 21 22 24 25 27 27 29 32 34 35 37 38 42 42 42 41 40 41 40 40 40 40 40 40 40 40 40 40 39 40 40 41 41 42 42 43 43 46 45 45 44

GFSSGP_sfc_30mbdewp_063.txt.gz
Dewpoint
63 63 62 51 39 39 33 26 33 39 37 36 37 39 54 54 52 46 64 69 70 71 71 72 72 72 71 71 71 71 70 69 69 67 66 65 63 63 64 64 66 67 66 64 65 64 64 64 62
63 61 51 47 39 29 25 28 27 40 41 34 39 47 54 53 55 59 66 69 70 71 71 72 72 72 72 71 70 70 68 68 69 68 66 65 63 63 64 65 64 64 64 65 65 64 64 64 63
62 60 46 42 36 32 27 25 30 35 34 34 39 50 57 57 58 58 67 68 70 70 71 72 72 72 72 71 70 68 68 68 70 69 68 65 62 63 63 64 65 64 65 65 65 65 65 65 63
57 52 46 36 28 32 32 30 29 33 35 38 39 51 60 64 62 62 66 68 68 69 72 72 72 72 72 71 69 68 67 67 69 70 68 66 63 63 63 64 64 65 65 65 65 64 65 64 63
57 48 40 36 32 30 30 33 33 31 33 38 37 53 55 63 65 60 65 66 68 71 72 72 72 72 71 71 70 68 67 67 68 70 68 67 65 64 64 64 64 65 64 64 65 64 63 64 64
48 47 35 32 32 31 36 37 34 32 31 37 43 50 57 65 64 65 62 68 70 71 72 72 72 72 71 71 70 68 67 68 69 70 69 67 66 64 65 65 64 63 63 64 64 64 62 62 63
45 42 37 31 31 31 38 36 39 40 41 48 49 49 60 60 65 66 66 68 69 71 71 72 72 72 71 70 69 67 68 70 70 70 69 68 67 65 64 65 64 64 63 63 63 63 63 61 59
48 45 38 37 29 32 39 38 42 41 48 47 50 51 53 59 65 64 66 67 68 69 70 71 71 71 70 69 67 66 69 69 70 70 69 68 67 66 65 66 65 63 63 62 63 63 62 60 58
51 42 37 36 35 36 40 38 41 42 44 50 50 56 61 63 60 63 64 64 66 67 68 70 70 70 69 68 66 65 69 67 67 66 66 66 66 65 64 65 65 63 62 61 61 61 59 57 55
46 41 38 40 41 37 38 36 38 42 44 54 59 62 63 65 57 53 61 63 65 66 68 68 68 68 68 67 65 64 66 67 65 65 65 65 65 64 64 64 64 63 62 60 60 59 57 55 54
44 42 43 43 45 41 39 39 41 43 42 43 55 59 63 63 64 60 61 62 64 66 67 67 67 68 67 66 66 63 62 62 63 65 64 63 62 64 64 64 64 64 62 60 60 59 57 53 52
44 44 42 45 46 43 41 41 42 43 42 43 57 60 62 62 62 61 60 62 64 64 65 65 66 67 66 65 66 64 63 63 61 60 60 57 60 61 62 62 61 61 63 62 61 60 59 57 56
43 46 45 46 48 45 43 41 42 41 41 42 52 59 60 62 62 62 62 63 64 64 65 64 66 68 66 65 66 64 63 62 62 60 59 55 56 57 57 59 60 60 61 62 62 61 59 58 57
45 45 48 46 48 47 43 42 41 42 42 41 43 47 57 59 61 61 62 62 63 63 64 64 65 67 66 66 66 65 64 63 62 62 61 58 57 56 56 55 55 55 56 57 57 57 59 59 59
45 42 44 47 48 47 45 40 40 41 41 41 41 43 43 54 60 59 61 62 63 62 64 64 64 65 66 66 66 65 64 64 61 61 61 61 60 58 58 58 55 54 54 55 57 58 59 59 60
41 41 36 42 44 44 41 35 40 40 39 40 40 40 42 42 52 58 61 61 63 64 62 63 64 64 64 65 65 65 64 63 62 61 61 61 61 60 60 60 60 59 57 57 58 59 59 59 60
37 32 35 35 43 44 39 36 38 39 39 38 39 40 40 41 42 42 58 61 62 63 63 63 64 64 64 63 64 63 63 62 61 60 61 61 61 61 61 61 61 62 61 61 60 60 60 59 59
32 30 34 34 41 41 40 36 35 36 37 36 38 39 39 39 41 39 40 57 62 62 63 64 64 63 63 62 62 61 60 60 60 60 61 61 61 60 61 61 62 62 61 61 61 61 61 61 59
34 32 31 36 40 42 39 37 35 36 35 35 37 38 38 38 40 40 39 43 60 61 63 63 63 63 62 62 61 60 59 61 60 61 61 62 62 62 61 62 62 62 62 61 62 61 61 60 61
33 31 28 32 36 40 37 36 36 37 37 37 38 39 38 38 39 41 39 38 42 58 61 63 63 63 63 63 63 63 62 62 62 62 62 63 64 65 64 64 63 64 63 63 63 63 62 61 61
32 30 30 32 37 39 35 35 36 37 38 39 38 38 38 39 38 40 37 36 37 44 60 62 63 63 63 64 64 64 63 63 63 63 63 59 57 55 57 61 63 64 64 63 63 63 62 59 60
27 32 34 36 36 32 36 26 33 36 37 38 38 38 37 36 37 40 38 36 36 37 47 62 63 63 64 64 64 63 62 61 62 62 56 50 51 50 49 49 49 49 50 54 59 61 60 59 58
33 29 35 36 33 32 34 30 24 35 36 37 37 37 36 36 36 38 39 37 37 39 46 56 60 60 59 62 63 62 61 59 51 50 49 48 48 48 48 49 49 51 53 53 51 51 52 58 57
33 35 35 33 31 24 31 28 21 29 32 34 36 36 36 35 36 37 40 39 42 45 46 48 52 51 54 55 57 60 57 50 48 47 46 45 46 47 47 48 50 50 52 54 56 56 55 55 55
29 26 26 24 21 20 24 22 22 23 25 25 25 26 28 28 34 38 39 40 42 43 44 45 46 46 47 48 48 50 51 49 48 45 44 44 44 46 49 50 50 50 51 53 54 55 55 54 54
27 25 21 16 19 20 22 20 20 23 25 25 23 24 25 26 27 30 40 40 41 42 44 44 44 44 44 44 45 45 45 45 45 45 45 45 46 47 49 49 49 50 51 52 53 54 55 55 55
28 24 25 23 21 20 20 21 22 20 21 23 25 27 27 27 28 29 37 40 43 45 45 44 43 43 43 43 44 44 44 44 44 44 45 46 47 46 46 47 48 49 50 50 51 51 52 53 53
30 27 23 23 14 14 20 17 17 20 24 27 27 28 29 31 31 31 31 35 44 45 45 44 43 42 43 43 43 43 43 43 43 43 43 44 44 44 44 45 46 47 47 48 49 50 51 51 51
29 27 28 26 25 20 13 14 18 23 26 26 27 28 30 31 33 34 35 35 41 45 45 44 42 41 42 42 41 42 42 42 42 41 42 42 42 42 42 43 43 44 44 44 45 48 48 48 48
34 30 27 22 20 23 19 15 23 25 26 27 27 27 31 32 33 34 36 37 41 43 43 43 41 41 41 41 41 41 41 41 40 40 40 40 40 41 41 41 41 42 42 42 43 46 46 46 45

GFSSGP_sfc_30mbdewp_066.txt.gz
Dewpoint
62 63 61 53 38 39 33 32 35 37 39 35 41 45 53 54 51 44 66 68 69 71 72 72 72 71 71 70 69 69 70 69 67 65 63 63 64 65 66 68 66 65 65 65 64 63 61 62 62
62 61 55 47 37 28 27 31 28 37 44 45 42 53 54 54 58 65 66 69 70 71 72 72 72 71 71 70 69 69 69 69 68 65 63 63 64 63 65 65 64 65 65 64 64 64 63 62 62
62 60 46 44 39 28 25 26 30 39 41 44 41 57 57 56 61 63 68 69 69 70 71 72 72 71 71 70 69 68 70 69 68 66 63 63 64 65 65 64 64 65 65 65 65 65 64 63 62
57 54 49 39 32 32 29 28 31 41 46 42 48 51 59 64 63 66 69 70 70 70 72 72 72 71 71 70 69 68 70 69 69 67 63 63 63 64 65 64 65 65 65 65 65 64 64 63 62
57 49 39 39 35 30 33 32 35 40 41 43 41 51 56 61 65 68 69 69 70 71 72 72 72 71 71 69 69 68 69 70 69 67 65 63 63 63 64 65 65 65 65 65 64 64 64 64 63
48 47 38 34 33 32 31 33 36 33 37 40 40 51 57 64 65 66 67 69 71 71 71 71 71 71 71 69 69 68 68 70 70 68 66 64 64 64 64 65 65 65 64 65 64 63 63 64 62
45 44 37 34 32 31 33 34 38 39 39 46 47 45 58 62 65 66 68 70 70 71 71 71 71 71 70 69 69 68 69 69 70 69 68 66 64 65 64 64 64 63 64 64 64 63 62 60 59
47 45 39 34 31 32 34 32 41 44 47 46 52 50 53 59 64 66 68 69 70 70 71 71 71 71 69 68 67 69 70 70 70 69 68 67 65 65 65 65 65 64 63 64 63 63 61 60 57
50 41 37 37 30 34 38 35 41 44 47 53 51 56 57 62 62 64 66 67 68 69 69 70 69 70 68 67 66 69 69 70 70 68 67 67 66 65 66 65 64 63 63 62 62 61 60 56 54
47 40 39 38 37 36 39 38 41 44 51 56 59 62 61 61 59 61 62 64 66 67 68 69 69 69 68 65 65 68 67 67 67 66 66 65 65 64 64 64 63 62 62 61 61 60 58 55 53
46 40 42 42 45 43 39 38 42 44 44 51 56 60 62 62 58 55 61 63 65 66 68 69 69 68 67 65 63 64 66 66 65 65 65 64 64 63 64 63 63 62 61 59 60 59 57 53 52
42 45 45 44 47 44 39 41 43 42 42 51 58 61 62 61 58 54 55 62 64 65 66 68 68 68 67 66 63 62 61 63 64 64 64 62 62 63 63 63 62 62 62 60 60 59 59 57 55
44 43 46 46 48 47 44 42 42 41 42 54 60 60 61 62 62 61 60 62 63 63 64 67 67 67 66 65 65 63 62 61 61 60 61 59 61 62 62 61 61 60 61 61 61 61 60 60 59
45 44 44 47 48 48 43 42 41 42 42 54 56 58 60 61 61 62 62 62 63 63 65 66 67 67 66 65 66 64 63 63 62 61 59 56 59 58 58 57 60 59 59 61 60 61 60 59 59
46 42 44 45 47 47 47 41 40 42 42 43 45 51 57 59 61 60 62 62 63 64 65 65 66 67 66 65 66 65 64 63 62 62 60 57 56 56 56 56 54 56 55 57 57 57 59 59 59
42 40 37 39 46 47 45 38 41 42 41 40 41 42 47 55 59 60 61 62 63 62 63 65 65 67 66 66 66 66 65 64 63 62 61 60 59 58 58 58 58 56 55 55 56 58 59 59 59
39 32 36 35 43 45 42 39 40 41 39 39 40 40 41 44 52 59 58 61 63 63 64 64 64 65 66 66 66 65 65 63 63 62 61 61 61 60 60 60 60 61 60 58 58 59 60 59 58
32 32 34 33 41 41 41 39 39 37 39 38 39 39 40 40 41 44 51 61 62 63 63 64 64 64 64 64 64 64 64 62 62 61 61 61 61 61 61 61 61 62 62 61 61 60 61 61 60
33 33 34 37 42 40 39 40 40 37 36 37 37 38 38 40 41 42 41 57 61 63 63 63 63 63 63 62 62 61 61 60 60 61 61 61 61 60 60 61 61 62 61 61 61 61 60 60 61
32 30 32 37 41 38 39 38 38 37 36 37 36 37 38 38 39 41 40 40 60 61 62 63 63 63 62 62 62 61 60 61 60 61 62 62 62 62 62 62 62 63 63 62 62 62 61 61 61
32 28 30 31 37 39 39 37 38 38 38 38 38 38 39 39 38 39 40 38 44 58 61 62 63 63 63 63 63 63 62 63 62 62 62 62 63 64 64 64 64 64 64 63 63 63 62 59 59
31 32 34 33 34 28 38 27 32 36 37 38 38 39 38 38 39 39 40 39 38 45 57 62 63 63 63 63 63 62 61 60 62 62 60 54 53 53 53 51 51 51 52 53 55 60 59 58 56
30 33 36 37 35 34 35 31 24 34 34 34 36 38 38 38 38 37 40 39 37 37 41 57 62 63 63 64 63 63 61 61 59 57 55 55 54 53 53 52 51 51 52 53 52 51 51 55 57
36 35 35 35 34 28 31 31 20 28 33 35 37 38 38 38 37 36 40 39 39 42 44 53 59 59 59 61 62 62 61 59 55 54 53 52 50 50 50 49 49 50 51 52 54 55 55 55 55
35 31 27 25 26 23 29 29 23 24 26 31 32 29 29 30 33 36 39 40 41 41 44 48 53 55 55 57 58 61 58 55 54 52 51 48 47 48 49 50 49 50 51 52 53 54 54 54 53
30 27 25 19 20 21 23 24 20 23 23 24 24 25 27 28 29 35 40 40 42 43 43 44 46 47 48 52 52 53 54 51 50 48 47 46 45 47 49 49 49 50 51 51 52 53 54 55 54
28 25 27 22 22 20 20 21 21 21 25 27 28 28 29 29 29 29 35 40 42 43 44 44 44 44 44 44 46 47 49 49 47 46 46 46 47 47 47 47 48 49 49 50 50 51 51 52 52
28 27 23 21 16 14 20 18 19 20 24 26 28 29 30 31 32 32 31 34 43 44 45 44 43 43 43 44 44 44 44 45 44 44 44 45 46 45 45 45 46 47 47 47 48 49 51 51 51
27 25 27 25 24 17 15 14 18 22 26 26 28 29 31 31 32 34 34 35 38 43 45 45 43 42 43 43 42 42 42 42 42 42 43 44 44 44 43 43 44 44 44 44 45 46 48 48 49
34 29 27 19 19 22 17 17 23 25 27 28 27 29 31 33 34 35 36 37 39 41 43 44 43 42 42 42 41 41 41 41 41 41 41 42 41 42 41 42 42 42 42 42 42 43 46 46 46

GFSSGP_sfc_30mbdewp_072.txt.gz
Dewpoint
60 61 61 55 42 38 32 34 38 38 40 44 44 51 52 54 46 40 65 67 69 70 71 71 71 70 70 69 68 69 68 66 67 68 69 69 69 68 68 66 66 63 62 64 65 65 65 64 64
57 60 55 49 39 35 32 33 31 39 47 47 43 54 53 55 62 64 65 69 70 70 71 70 70 70 70 68 68 69 66 64 65 67 69 69 69 67 66 66 65 63 63 65 65 64 64 64 66
57 59 49 41 37 34 32 33 34 41 47 48 45 53 57 58 63 64 67 69 70 70 70 70 70 70 69 68 70 68 66 64 64 66 67 68 69 67 66 65 65 64 64 64 64 63 63 63 65
54 53 49 40 36 37 33 33 36 45 48 51 51 45 57 64 64 66 68 69 70 70 70 70 70 70 69 70 69 67 66 64 64 65 65 67 66 66 66 65 65 65 65 64 64 63 63 63 62
54 50 41 40 36 37 36 32 37 43 46 47 48 45 47 62 66 67 69 69 69 70 70 70 70 70 69 70 69 68 67 64 64 64 65 63 64 64 64 64 65 65 65 64 63 63 62 62 61
47 46 40 36 37 37 36 33 35 42 45 45 49 49 48 63 65 67 69 69 69 69 70 69 70 70 70 69 69 70 68 65 64 64 64 65 64 64 64 64 65 65 64 64 64 63 62 61 59
45 43 37 38 37 37 35 36 41 43 45 45 48 44 50 59 61 66 68 68 68 70 69 69 70 70 69 69 69 69 69 67 65 65 64 65 65 64 64 65 65 65 64 64 63 63 63 60 57
47 43 38 38 37 37 36 35 39 42 43 47 46 45 46 58 60 60 67 66 67 68 69 69 70 69 69 69 69 69 70 69 67 66 66 65 65 65 65 65 65 65 65 64 64 62 60 58 56
48 39 35 37 38 37 35 34 42 45 43 45 45 46 53 60 59 58 64 66 67 67 68 69 68 68 67 67 68 68 69 69 69 67 65 65 65 65 65 65 65 65 64 64 63 62 60 56 53
42 37 35 37 38 38 35 36 40 47 46 50 46 54 58 58 56 57 54 63 65 66 67 67 67 67 66 66 67 68 68 69 68 66 65 64 64 65 64 64 64 64 64 63 62 61 58 54 52
40 36 37 40 40 40 36 41 42 47 45 49 45 53 55 54 56 55 55 60 64 66 67 67 67 67 64 64 67 67 67 69 67 66 65 64 64 64 63 63 62 62 62 60 60 59 57 53 52
38 39 40 39 41 44 42 42 42 47 43 49 49 55 56 54 55 54 58 54 58 64 66 67 67 67 64 63 66 66 66 67 66 65 65 63 62 61 62 61 61 60 60 57 57 57 57 57 56
39 39 40 42 43 46 47 43 44 43 49 54 54 56 56 53 56 57 58 55 58 60 62 66 67 67 65 62 64 65 66 66 66 65 64 63 62 61 62 62 61 60 59 59 58 59 59 59 59
38 39 39 43 42 45 45 44 44 44 52 56 54 56 57 56 58 58 57 56 58 55 61 61 61 65 66 65 63 63 64 65 65 64 64 63 62 62 62 62 61 60 59 59 60 60 60 60 59
35 37 40 41 43 43 47 41 42 44 53 54 54 55 57 58 58 58 59 58 61 58 59 58 57 62 64 65 64 64 63 62 62 63 63 63 61 61 62 61 60 60 59 59 60 60 58 58 59
36 37 35 38 43 47 43 37 43 45 50 50 52 55 54 56 58 58 60 59 60 59 58 60 59 61 64 65 65 65 65 64 63 62 60 60 59 59 60 59 58 56 59 58 57 57 57 58 59
36 30 32 35 43 43 42 40 43 43 45 43 43 48 55 56 57 58 59 61 62 60 59 60 61 63 65 65 64 64 66 65 64 64 62 61 58 57 58 57 56 56 55 54 55 56 57 58 58
30 30 33 33 40 40 38 39 41 43 42 42 42 42 45 51 55 59 60 61 62 62 61 60 61 62 65 62 65 64 63 66 66 65 62 62 60 57 57 57 58 59 58 57 56 56 58 59 59
32 31 32 37 41 39 37 36 39 43 42 39 41 40 42 43 45 49 56 60 61 62 62 60 61 63 63 62 61 61 61 62 65 65 63 63 62 61 59 59 59 60 60 60 61 61 60 60 61
32 31 31 36 41 38 38 36 38 43 43 43 40 38 38 40 40 42 44 48 58 61 62 60 60 62 61 61 61 61 60 61 63 63 63 63 62 62 61 60 60 61 61 61 61 61 60 60 61
34 33 33 32 37 39 37 36 37 41 43 42 40 39 38 37 37 38 39 41 42 57 60 60 61 62 62 62 63 62 62 62 62 62 61 61 62 62 61 61 61 62 62 62 62 62 61 59 59
32 35 35 35 31 28 35 28 34 39 39 40 41 39 38 38 39 39 40 40 40 40 49 61 62 62 63 63 63 62 61 60 61 62 62 60 62 62 62 62 62 61 60 60 59 61 60 60 58
34 36 35 35 33 32 33 29 30 36 37 39 40 38 39 39 39 39 39 39 40 41 40 48 60 62 62 62 61 61 60 61 61 61 60 59 58 59 59 59 58 58 57 54 53 51 50 54 53
37 36 36 36 34 26 32 29 23 26 30 35 37 37 38 38 39 39 38 38 39 40 41 45 52 59 61 61 62 62 61 60 60 60 60 59 57 57 58 57 57 55 54 53 52 52 53 52 52
36 33 27 25 25 24 31 29 30 22 24 27 30 29 30 33 36 38 38 39 40 41 42 46 51 53 56 57 58 60 60 60 59 58 58 57 56 55 55 54 52 51 51 51 51 52 52 53 52
31 28 23 19 22 25 33 26 20 23 27 27 28 30 31 31 31 34 40 41 42 43 43 44 46 48 48 51 53 54 56 57 58 58 57 57 56 55 54 54 53 51 50 51 51 51 51 52 52
31 26 27 22 23 25 25 21 21 27 28 29 30 31 32 34 35 35 37 39 43 44 44 44 43 43 43 44 45 47 51 54 53 55 55 55 55 55 54 53 51 49 49 49 50 49 49 50 51
30 28 21 21 17 18 20 19 19 24 27 29 30 31 32 34 34 35 35 36 38 41 43 44 44 43 43 43 44 45 46 49 50 51 52 52 52 51 51 48 48 48 48 47 47 47 48 49 50
27 25 25 24 23 17 18 16 22 22 27 28 30 31 32 33 33 34 35 36 37 37 39 41 42 43 43 43 43 43 43 44 44 45 46 46 46 46 46 46 45 45 45 44 44 44 44 45 47
34 28 23 18 19 18 17 18 27 26 28 30 31 33 34 35 34 34 35 36 36 37 38 38 39 40 42 42 42 42 42 42 42 42 43 44 44 44 43 43 43 42 42 42 41 41 41 42 43

GFSSGP_sfc_30mbdewp_075.txt.gz
Dewpoint
57 58 61 55 41 42 35 36 39 38 41 47 44 52 51 54 46 41 65 66 68 69 69 70 71 70 69 68 69 69 69 69 69 69 70 70 70 69 68 66 64 64 64 64 65 65 65 65 66
58 58 55 50 38 32 32 34 37 38 46 49 45 52 54 54 61 63 64 67 68 69 69 69 70 70 70 68 70 69 67 67 69 70 70 70 69 68 67 65 63 64 65 65 65 65 65 67 66
56 56 51 45 37 31 32 32 34 37 47 48 48 49 55 58 62 63 67 68 69 69 69 69 70 70 69 68 70 67 65 65 68 69 70 69 68 68 65 64 63 65 66 65 65 65 65 68 68
54 53 49 42 35 34 36 34 34 36 48 51 52 48 55 64 64 65 67 68 68 69 70 70 70 70 69 70 69 67 64 64 66 68 69 69 68 66 64 65 66 65 65 65 64 64 64 64 67
54 49 40 39 38 36 37 36 34 37 42 48 51 49 48 63 64 66 67 68 68 69 69 69 70 70 70 70 69 67 64 64 65 66 67 68 67 66 64 64 64 65 65 65 63 63 62 61 62
46 46 37 35 36 38 38 37 36 39 45 47 49 46 50 63 58 62 67 68 68 69 69 68 69 70 70 69 68 67 65 64 65 65 65 66 65 63 64 64 65 65 64 63 63 62 62 60 60
43 42 35 34 35 38 38 39 37 37 43 45 49 46 49 59 61 62 64 68 68 69 68 68 68 69 70 69 69 69 66 64 65 65 65 63 65 64 64 65 65 65 64 64 64 63 61 59 57
46 41 35 35 35 36 39 38 37 40 42 46 48 44 45 52 61 62 61 67 68 68 68 68 68 68 68 68 69 69 67 66 65 65 65 65 63 64 65 65 66 65 64 64 63 62 60 58 56
46 37 32 32 33 37 39 38 39 43 43 46 47 47 52 59 60 59 59 62 66 67 68 67 68 67 67 67 68 69 68 67 66 65 65 65 64 65 65 65 65 65 65 64 63 62 59 55 55
41 35 33 33 34 37 37 38 38 41 43 46 46 57 58 57 58 57 57 57 62 64 67 68 67 66 66 66 67 68 69 68 66 65 65 64 65 65 64 64 64 65 64 64 63 61 58 53 52
39 35 34 35 37 39 38 39 42 42 41 46 45 52 58 57 56 55 56 57 57 62 66 67 67 66 65 65 67 67 69 68 67 65 64 64 64 65 64 64 63 63 62 60 61 59 55 53 52
34 37 38 37 38 41 39 39 39 42 43 46 46 51 56 54 55 55 55 55 57 59 65 66 67 66 64 65 66 66 67 68 66 65 64 63 63 63 62 62 61 60 60 57 57 56 56 55 56
36 35 38 39 39 42 43 42 39 40 43 45 50 54 53 53 55 56 55 55 58 57 60 66 67 66 64 63 66 66 66 67 66 65 65 64 62 61 61 61 61 60 59 58 58 59 59 59 60
35 36 37 39 38 41 40 41 43 40 43 45 52 53 54 53 55 55 55 54 57 59 57 63 65 66 65 62 63 65 66 66 67 66 65 63 62 61 62 62 62 61 59 59 59 60 61 61 60
36 35 35 37 39 40 42 39 43 43 44 46 50 53 55 54 56 55 55 55 57 58 58 58 61 62 65 64 63 63 64 64 65 66 65 64 63 62 62 62 62 61 59 58 60 60 60 59 59
35 33 30 34 39 39 40 35 42 46 45 46 48 49 53 56 56 56 56 57 57 55 58 59 59 60 63 65 64 64 63 63 63 63 64 64 63 62 61 62 61 60 60 59 58 58 58 58 58
34 28 28 35 39 41 41 36 43 44 46 46 46 51 50 52 57 57 56 58 59 57 59 59 59 60 63 65 65 65 65 64 64 64 63 62 61 61 60 60 60 58 57 58 58 56 57 58 59
28 30 33 33 38 39 38 39 42 44 44 44 43 46 52 53 54 58 58 59 60 59 59 59 59 60 62 65 64 64 65 65 65 65 64 64 63 60 58 58 58 57 56 55 55 55 57 58 59
33 33 31 36 38 37 36 37 40 44 43 41 43 42 45 52 51 57 59 60 59 60 60 59 59 57 62 62 62 62 60 60 64 64 65 65 63 61 59 58 58 59 59 57 57 57 57 59 61
34 33 33 35 41 38 36 35 39 41 43 43 43 42 41 43 45 46 50 57 57 60 61 60 59 60 60 62 62 61 61 62 61 62 63 64 64 63 60 58 58 60 60 61 61 61 61 60 61
32 31 33 32 36 38 37 34 37 42 43 44 43 42 41 40 40 42 44 46 52 54 59 60 59 60 61 62 62 62 62 62 61 62 63 63 64 64 63 61 61 61 61 62 62 62 61 58 59
31 34 33 33 32 28 35 28 34 37 39 41 43 43 42 40 40 40 40 40 42 43 48 60 61 60 61 62 62 60 60 59 61 62 62 63 62 62 63 63 63 63 63 62 62 61 61 60 58
34 36 35 33 31 32 32 30 29 37 36 39 42 42 42 42 40 39 39 39 40 42 41 43 55 61 62 61 61 61 61 58 59 62 60 61 61 61 61 60 60 60 60 58 57 54 53 57 55
37 35 35 35 33 26 31 28 28 25 30 37 41 39 38 39 37 38 39 40 41 42 43 47 52 58 60 61 62 61 59 59 60 60 60 60 59 59 59 59 59 59 58 57 56 55 53 52 52
36 33 26 24 24 24 33 28 26 23 25 30 38 32 31 33 37 40 41 42 43 43 44 47 52 53 55 57 58 59 60 60 60 59 60 59 57 57 57 57 56 55 55 54 53 53 53 53 53
32 30 22 20 22 26 33 24 28 27 29 30 31 34 35 35 36 38 40 42 44 44 44 43 44 44 45 46 49 52 55 57 58 59 58 58 57 57 57 56 55 55 54 53 53 52 52 52 52
31 25 26 27 28 26 23 21 25 29 30 31 32 33 34 34 35 35 36 38 40 42 43 44 43 43 43 44 45 46 49 53 54 55 57 57 57 56 56 56 55 53 52 52 51 50 50 51 51
29 28 21 23 22 21 21 19 21 27 29 30 31 32 33 34 35 35 36 36 37 38 39 41 42 43 43 43 43 44 45 48 51 52 53 54 54 55 54 52 51 50 49 49 48 48 48 49 50
27 25 25 24 22 19 18 16 23 25 28 30 31 33 34 34 33 33 34 35 36 37 38 38 39 39 41 42 43 43 43 44 45 47 48 50 49 49 50 48 48 47 46 46 45 45 45 45 47
34 28 22 18 17 17 18 18 28 25 29 31 33 34 32 31 30 30 31 31 32 33 35 37 38 38 39 40 42 42 42 42 43 43 44 45 46 46 46 45 45 44 43 43 42 42 42 42 42

GFSSGP_sfc_30mbdewp_078.txt.gz
Dewpoint
57 56 58 55 39 36 31 30 35 33 39 42 45 45 43 51 43 45 64 64 63 64 66 69 70 70 69 69 70 69 69 70 69 69 70 70 70 69 68 65 65 65 65 66 67 65 65 65 66
56 55 55 49 37 28 27 31 34 34 38 44 46 50 51 50 59 61 63 65 64 64 66 67 70 69 69 69 70 69 69 69 69 70 71 70 70 68 66 65 65 65 65 66 65 66 66 66 67
53 54 48 44 37 29 25 28 33 34 42 45 46 50 53 54 60 62 65 65 65 64 65 66 70 70 69 69 69 68 68 69 69 69 70 70 69 67 65 65 66 65 65 66 66 67 68 67 67
51 53 48 40 31 30 30 28 32 33 41 47 46 47 54 61 58 65 65 65 65 65 65 69 70 70 69 71 69 67 65 68 69 69 69 69 68 66 64 65 67 67 66 66 65 66 68 68 67
51 47 37 35 33 32 30 31 32 32 33 40 49 46 50 60 58 62 65 65 64 64 65 68 70 70 70 70 68 66 65 67 68 69 69 69 67 65 64 64 66 66 65 65 64 64 63 66 67
42 41 31 30 28 30 33 34 34 34 34 34 41 44 50 60 57 62 63 64 64 64 65 66 69 69 70 70 68 66 65 65 67 68 69 68 67 65 64 64 65 65 65 64 63 62 61 61 61
40 35 29 26 26 28 31 35 36 35 34 34 38 42 43 58 60 62 62 65 64 64 65 66 67 67 70 69 68 66 65 65 66 66 67 66 66 64 63 64 64 64 64 63 63 62 61 60 59
43 37 31 27 26 25 30 34 37 37 34 36 39 41 40 50 61 62 61 61 65 65 65 65 66 64 67 67 68 66 66 66 65 65 65 65 64 64 65 64 64 65 64 64 64 62 59 58 57
43 36 30 26 25 26 29 34 37 38 36 36 40 43 44 54 61 59 59 60 59 59 65 65 65 63 62 66 68 67 66 66 65 65 65 63 62 62 63 64 65 66 65 64 62 61 59 56 56
36 31 28 27 27 26 27 35 36 37 36 37 41 44 54 58 57 57 56 57 57 56 65 66 65 63 61 64 67 66 64 61 59 60 62 60 60 60 59 64 65 66 65 64 62 61 57 52 47
30 30 28 29 31 31 29 33 35 36 36 36 38 43 54 56 56 56 57 57 57 58 61 66 65 63 59 60 66 66 65 63 61 58 58 58 60 62 60 60 61 60 62 57 58 57 50 49 49
35 32 28 29 32 34 33 33 35 38 34 37 40 47 52 55 55 55 55 56 56 59 60 65 65 64 59 58 64 66 67 65 64 61 58 58 59 59 58 57 57 57 55 54 53 50 50 51 52
31 31 32 30 33 36 37 35 35 36 38 36 39 44 52 55 53 55 55 56 55 58 60 61 66 64 62 59 59 64 65 66 65 62 61 59 58 58 57 56 55 54 53 51 51 51 52 54 57
30 32 32 33 34 36 34 36 38 37 36 39 39 42 51 54 54 54 54 54 54 56 59 60 64 65 62 60 60 60 63 66 66 65 63 62 60 59 57 57 56 56 54 53 53 55 57 57 58
36 34 33 32 32 36 34 35 37 40 41 39 40 43 49 53 54 53 54 55 56 57 59 59 60 63 64 62 62 63 63 63 66 66 65 64 62 61 60 59 59 58 57 53 55 57 59 58 58
33 33 31 30 31 32 36 29 32 38 42 40 39 42 48 53 54 54 54 55 57 58 58 58 60 60 61 63 63 64 64 65 65 65 66 65 64 63 60 59 60 59 58 56 56 58 58 56 56
33 28 29 27 28 30 35 33 34 40 43 40 39 43 50 54 54 54 54 55 57 57 57 58 60 60 58 62 65 63 62 64 63 64 64 65 64 63 61 59 60 60 58 58 57 56 55 55 57
29 27 27 25 28 30 31 33 41 42 41 41 42 45 49 50 54 55 56 57 56 56 58 57 60 60 60 61 64 65 64 64 64 64 62 61 60 60 60 59 59 59 58 56 57 55 55 56 57
32 31 30 27 33 31 37 35 38 40 43 42 44 46 49 51 55 57 56 58 59 56 58 59 59 60 59 62 60 61 61 63 63 64 63 63 63 63 62 61 59 59 58 56 55 55 55 57 59
32 31 33 37 38 33 37 36 37 39 42 43 43 44 49 51 53 54 57 58 58 59 59 59 59 59 60 61 61 60 61 62 61 61 61 62 63 63 62 63 62 59 59 58 56 57 58 59 60
31 32 33 33 37 37 36 35 36 38 42 45 44 44 45 47 51 52 55 56 58 59 59 59 60 60 59 60 62 62 63 62 61 61 61 62 62 63 64 63 63 61 61 61 60 61 60 58 59
31 35 35 33 32 30 36 27 32 36 41 44 43 43 45 45 45 47 48 50 55 56 58 59 61 59 59 59 59 60 59 58 60 60 61 62 63 63 63 64 63 63 62 62 62 63 61 59 57
33 37 34 34 30 33 32 30 31 38 39 41 43 44 45 45 44 42 41 41 42 44 45 50 59 61 60 61 60 59 58 60 60 60 59 61 61 62 61 62 62 62 62 62 61 59 59 59 58
38 34 34 34 31 28 31 32 29 29 27 37 39 40 39 39 40 40 42 43 44 46 48 51 54 59 61 61 60 59 57 59 59 59 59 60 60 61 61 61 61 61 60 58 58 57 56 55 54
37 31 27 25 27 26 33 28 29 27 27 31 38 35 38 38 40 42 43 44 45 45 46 50 52 52 55 58 60 60 61 60 59 59 59 60 60 59 60 60 60 59 58 57 57 56 55 54 53
33 31 24 19 24 26 27 26 28 29 32 37 37 37 36 37 37 39 40 42 44 44 44 44 44 44 45 46 49 54 58 59 60 60 60 60 59 59 59 59 59 57 56 55 55 54 53 54 54
31 28 27 28 30 22 26 25 28 30 32 35 37 37 37 35 35 36 37 37 38 39 41 42 43 43 44 44 45 46 49 53 55 56 58 59 59 59 58 58 57 56 56 55 54 53 52 53 53
29 27 25 28 21 20 23 21 24 28 30 31 32 34 35 35 35 35 35 36 37 38 38 38 39 40 42 43 44 44 45 46 50 53 54 56 57 57 57 57 56 55 54 53 52 51 51 50 51
28 25 25 24 24 18 18 21 25 28 30 31 32 33 32 32 31 31 31 31 32 34 37 38 38 38 38 39 41 43 43 44 44 46 49 52 54 54 54 53 53 52 51 50 49 48 48 47 48
34 28 23 20 18 20 18 19 27 28 31 32 32 31 29 29 29 29 30 30 30 31 32 35 38 38 39 39 39 40 42 43 43 43 45 47 49 51 51 50 49 48 47 46 45 44 44 44 44

GFSSGP_sfc_30mbdewp_081.txt.gz
Dewpoint
57 55 54 53 41 35 29 30 30 28 27 32 39 40 40 39 45 46 62 61 61 61 66 69 71 70 70 70 70 70 70 69 69 70 69 70 70 69 68 66 65 65 67 66 63 64 65 67 67
55 53 53 46 36 29 26 27 28 28 32 34 43 46 47 45 56 60 63 64 63 61 66 67 71 71 70 71 70 69 70 69 68 70 70 70 70 69 67 66 65 66 66 67 64 65 66 68 67
53 53 46 38 35 30 24 26 27 29 33 38 42 49 50 50 60 62 64 63 64 64 66 68 70 70 70 70 69 69 69 69 70 69 70 70 69 68 66 65 66 65 67 65 66 66 66 67 67
46 49 46 35 26 29 28 26 25 28 32 36 44 42 54 57 58 63 65 63 64 65 65 70 70 70 70 71 69 68 69 69 70 70 70 69 69 67 66 67 65 66 64 66 67 69 67 67 67
45 40 32 29 28 30 27 28 26 27 29 35 39 42 47 57 59 60 63 63 64 65 67 68 70 70 70 71 69 67 68 69 68 69 69 69 68 65 66 67 66 65 66 66 66 67 68 68 67
40 37 28 24 24 26 27 28 27 26 30 30 35 41 44 57 56 60 61 62 66 64 66 67 68 69 70 70 68 66 67 68 68 68 68 68 66 65 63 66 67 65 65 65 64 63 64 66 66
38 32 23 22 20 21 25 26 27 28 28 30 32 32 41 57 57 60 61 62 61 61 65 66 66 68 70 69 67 67 67 68 68 68 68 67 66 64 63 64 65 65 65 64 63 62 61 61 60
37 33 27 23 20 20 21 25 26 27 29 32 32 32 34 51 61 61 61 62 62 60 60 66 66 65 65 67 67 66 66 67 67 68 67 66 65 63 63 62 64 65 65 64 63 62 60 59 58
37 35 29 24 22 21 21 22 25 28 31 33 33 33 37 53 60 60 59 59 59 59 59 63 66 64 62 65 66 66 66 66 66 66 65 63 62 62 63 62 64 65 65 64 63 61 59 58 57
33 30 27 25 23 22 22 22 23 27 30 33 34 35 38 57 59 57 57 56 56 56 56 60 61 65 62 65 65 62 60 61 59 62 62 62 60 60 59 64 65 66 65 64 62 61 58 53 48
30 26 23 24 24 25 25 24 24 27 29 32 33 36 41 53 56 57 57 57 56 58 58 60 60 62 62 64 65 61 59 55 57 60 61 58 58 60 61 63 63 62 63 59 60 59 52 47 47
30 30 29 25 24 27 29 30 27 27 29 31 34 37 44 49 53 55 56 57 56 57 57 60 60 59 63 63 65 64 59 56 55 57 57 56 58 59 57 58 57 57 56 54 54 52 49 49 49
24 26 27 28 30 27 28 30 29 29 31 32 36 38 41 49 53 55 56 57 56 56 58 59 60 60 63 58 65 65 65 59 57 55 55 56 57 58 56 55 55 55 53 52 52 50 48 49 50
24 24 25 27 27 30 27 28 30 32 31 32 35 36 39 41 52 53 54 53 55 56 59 59 60 61 64 56 63 66 66 64 62 59 58 56 56 57 55 54 53 53 52 52 50 49 50 51 54
28 27 29 27 30 29 31 30 28 30 32 34 33 37 37 42 51 53 53 52 55 57 58 59 60 61 62 58 58 62 65 66 64 63 60 59 59 57 55 55 56 56 55 51 51 51 53 54 54
28 28 28 27 29 31 31 29 26 28 32 35 36 36 37 40 48 53 54 53 54 57 58 59 60 60 62 62 61 59 60 63 65 65 65 62 62 60 59 59 59 58 56 55 51 53 54 56 55
28 24 25 26 29 29 31 28 28 28 29 34 37 38 38 41 49 53 54 54 55 57 58 59 60 59 61 61 63 62 62 63 61 63 64 65 64 63 61 57 58 58 58 56 54 55 56 55 54
24 29 28 26 28 29 28 27 32 38 39 32 37 37 39 45 50 55 55 56 56 57 58 59 60 60 61 60 61 62 62 63 62 63 63 64 64 63 61 59 60 60 59 58 57 55 55 54 54
30 30 30 33 28 26 26 27 28 39 40 41 36 36 41 47 54 54 57 57 56 57 58 58 59 59 60 60 60 60 59 61 62 63 63 62 61 61 61 61 61 61 60 58 57 56 54 54 57
31 30 31 33 31 30 24 29 28 38 39 41 42 40 44 52 54 56 57 58 57 58 57 59 59 59 60 60 59 60 59 59 61 62 62 61 62 62 62 63 63 62 61 60 60 55 55 55 57
32 30 31 32 34 33 33 35 36 36 38 40 44 45 49 51 52 53 55 57 58 57 58 57 58 59 59 60 60 59 59 60 60 61 61 62 62 62 62 63 63 63 62 61 61 61 57 58 59
29 33 34 34 31 28 32 26 34 35 36 43 43 45 47 49 51 52 53 55 56 57 56 58 59 59 59 60 60 59 58 57 59 60 61 61 61 62 63 64 64 63 63 62 61 62 62 60 58
34 35 34 34 33 33 32 28 32 35 37 43 45 46 46 47 47 48 50 51 52 53 58 58 59 60 61 60 60 59 59 59 60 60 59 60 61 61 61 61 62 63 63 63 62 61 60 60 60
38 36 36 35 35 28 32 30 29 30 32 35 41 41 41 42 45 47 47 46 47 48 49 49 53 58 59 59 60 59 59 59 58 59 59 58 59 60 60 61 61 62 62 61 60 59 58 57 56
38 33 28 27 27 25 32 27 29 34 32 35 39 40 41 42 43 46 46 45 45 46 48 53 53 53 56 57 59 60 59 60 59 58 59 58 59 60 60 61 60 61 60 60 59 58 57 56 55
36 30 27 23 25 26 30 26 29 36 38 39 38 39 40 40 41 41 41 44 43 44 44 44 44 44 45 46 48 52 57 60 60 60 60 59 59 60 60 61 61 61 60 59 58 57 56 56 55
31 28 28 26 23 22 28 31 34 36 36 37 37 37 37 39 39 39 40 38 39 39 40 41 42 43 44 44 44 45 47 51 54 56 58 60 60 60 60 60 60 59 58 57 56 56 55 54 54
30 27 27 28 22 20 23 25 27 33 34 36 37 37 37 36 36 35 34 35 37 38 38 38 38 39 40 41 43 44 44 45 47 50 53 55 57 57 59 59 58 57 56 56 55 54 54 53 53
29 24 23 23 23 17 18 23 27 29 32 33 35 36 35 35 31 30 30 30 31 32 36 37 38 38 39 39 39 41 43 44 44 45 47 50 53 55 56 57 56 55 55 55 54 53 52 51 50
32 24 22 21 20 20 20 22 27 30 31 32 31 30 29 29 29 29 29 30 31 31 32 34 36 37 37 38 39 39 39 42 43 43 44 45 47 51 53 53 53 53 53 52 50 49 48 48 48

GFSSGP_sfc_30mbdewp_084.txt.gz
Dewpoint
56 55 54 50 45 41 34 35 36 35 32 29 30 36 42 45 52 51 62 62 62 67 69 71 71 71 71 70 71 70 69 69 71 70 70 70 70 69 68 66 65 65 65 65 65 66 66 66 65
56 53 51 48 39 33 30 30 30 31 31 31 36 44 44 53 59 61 63 63 63 66 69 69 71 71 71 71 70 70 70 69 70 70 70 70 70 69 67 66 66 68 66 64 64 65 68 67 66
54 52 48 42 38 33 31 29 27 28 30 30 45 48 50 55 61 62 65 63 65 66 67 69 71 71 71 71 70 70 70 69 69 70 70 70 70 68 67 66 67 67 65 64 65 66 68 67 66
47 46 47 41 30 33 33 33 32 29 28 32 42 42 55 58 59 64 65 64 66 66 66 70 70 70 70 71 70 70 70 70 69 69 69 69 69 68 66 67 64 66 64 65 67 67 67 67 66
45 42 37 32 30 31 30 32 32 28 27 31 33 43 50 58 59 63 64 64 65 65 69 70 69 69 70 71 70 69 69 69 70 69 69 69 68 67 67 65 64 63 65 68 69 67 67 67 66
42 39 33 29 27 27 29 29 29 28 27 27 34 36 48 58 57 61 63 62 63 64 67 68 68 69 70 70 69 68 69 68 70 69 69 69 68 67 66 64 64 65 66 67 67 68 67 67 66
42 37 31 28 26 24 24 26 26 26 27 26 31 35 44 57 59 61 62 62 62 62 63 67 68 68 69 69 68 68 69 68 68 68 68 68 67 66 64 65 64 65 66 65 64 64 64 64 64
38 36 33 30 25 21 22 22 24 25 25 29 29 30 34 54 60 62 62 62 61 62 61 61 66 67 68 68 67 67 68 68 68 68 68 67 65 64 65 63 66 64 65 65 64 62 62 61 60
35 34 31 30 26 25 24 22 22 23 25 26 28 31 33 58 61 61 60 60 61 61 62 60 60 60 62 67 66 67 68 68 68 68 66 64 63 61 63 64 66 65 66 65 63 62 61 59 57
32 31 31 29 27 25 24 23 23 22 22 25 29 33 39 60 60 59 59 58 59 57 58 59 59 59 60 60 66 65 66 66 66 65 64 63 62 62 62 64 63 65 65 64 63 61 59 56 53
32 30 29 26 25 26 25 24 25 27 24 24 29 33 34 51 58 57 58 58 57 55 56 57 59 60 60 60 64 62 63 63 64 64 63 62 61 62 64 64 64 65 64 63 62 61 57 52 51
31 31 30 30 29 28 24 25 26 29 29 29 29 31 40 46 53 53 56 57 57 56 56 56 59 60 60 61 61 63 59 59 59 62 61 61 60 61 63 63 63 63 62 60 60 58 54 52 49
24 26 25 26 27 27 29 29 25 28 30 31 31 31 38 44 49 55 57 57 57 56 56 58 60 59 60 61 63 64 58 56 58 61 60 59 61 59 59 60 60 59 58 57 56 55 52 50 49
27 26 26 26 26 27 27 27 29 26 31 31 31 32 36 39 43 50 55 56 56 56 57 59 60 61 61 61 63 63 62 57 56 57 57 58 59 58 57 56 56 56 55 54 53 51 50 49 50
29 27 29 28 26 26 28 27 29 29 28 29 32 32 33 40 40 48 54 56 56 56 58 59 60 60 60 61 62 63 63 62 59 58 56 56 58 58 56 55 55 54 54 53 51 50 50 53 54
29 30 26 26 27 28 27 26 29 32 31 28 30 33 35 37 40 52 54 54 56 57 58 59 60 61 62 63 63 62 62 63 62 60 59 59 58 57 56 56 55 56 57 54 52 51 52 56 56
29 25 25 26 26 27 27 26 29 30 29 27 29 33 36 39 39 49 55 56 55 57 58 59 58 60 59 59 60 62 62 62 63 63 64 62 61 60 60 60 60 60 58 56 55 53 55 56 56
23 25 30 29 30 32 28 28 28 31 34 36 28 32 37 39 49 54 56 58 57 57 58 59 59 59 61 61 61 59 62 62 63 64 65 64 64 63 62 60 59 60 59 58 57 56 56 56 56
28 27 27 29 30 34 32 30 28 33 38 40 41 40 37 41 54 55 57 58 58 58 58 60 59 58 60 61 59 58 60 62 63 63 64 64 64 64 62 61 62 61 60 59 58 57 56 55 55
32 29 29 31 33 34 34 29 29 31 37 39 42 43 44 48 53 54 55 57 57 58 58 59 59 59 59 60 60 59 59 60 61 62 62 62 62 62 62 62 62 62 61 60 60 60 58 56 56
32 29 31 30 34 35 30 26 28 35 37 38 41 45 47 48 52 50 52 55 57 55 58 59 59 59 59 60 60 59 60 59 59 60 61 62 62 63 63 63 63 63 62 61 60 60 60 59 59
28 33 32 32 31 26 33 24 31 35 35 37 43 45 48 51 52 52 53 54 55 57 57 59 59 59 59 60 58 59 57 57 59 60 61 61 61 62 63 63 63 63 63 62 61 62 61 61 58
32 36 33 35 33 32 31 30 31 35 35 36 44 46 47 48 48 48 49 50 51 52 56 57 58 60 59 59 59 58 58 59 59 60 60 60 61 61 61 62 62 63 63 63 62 61 61 61 60
37 36 35 34 33 25 30 30 28 31 33 35 41 43 45 46 47 48 49 49 50 52 53 53 57 57 58 58 58 59 58 58 58 58 58 59 59 60 61 61 61 61 62 62 62 62 60 58 58
37 34 28 25 26 24 33 27 29 35 36 37 40 41 43 45 46 47 47 47 47 48 49 49 51 52 55 56 57 59 59 59 59 58 58 58 58 59 60 60 60 60 61 61 60 59 58 57 57
34 34 27 22 24 25 30 25 29 36 39 39 40 41 41 42 41 43 46 45 44 43 44 45 44 44 45 46 48 51 55 58 60 59 59 59 58 59 60 60 60 60 60 60 59 58 57 57 56
32 32 33 32 28 27 28 30 34 36 37 38 38 39 40 40 41 41 40 40 39 38 38 39 40 40 42 43 44 45 45 48 52 54 57 60 60 60 61 60 60 60 60 59 58 57 56 56 56
31 29 27 31 25 22 26 29 29 33 34 37 37 37 37 38 38 35 36 37 36 38 38 39 39 39 39 39 40 43 44 44 45 46 50 52 55 56 58 59 60 59 59 58 57 56 55 55 54
28 24 24 24 23 20 21 26 31 37 37 37 37 36 33 34 32 30 31 31 31 33 35 36 37 38 38 38 39 40 40 42 43 44 44 46 49 53 55 56 57 57 57 56 55 55 54 54 54
32 25 22 22 20 23 23 23 30 32 32 31 30 31 29 29 29 30 30 31 32 33 34 35 36 37 37 38 38 39 40 40 40 41 43 43 44 47 52 53 54 55 55 55 55 54 53 52 51

GFSSGP_sfc_30mbdewp_087.txt.gz
Dewpoint
55 56 55 52 44 43 40 40 40 38 35 35 32 33 46 56 51 46 62 65 69 69 71 71 71 71 71 70 69 69 70 72 71 70 70 70 70 69 67 66 65 65 65 64 68 67 65 65 63
57 54 52 48 40 37 36 38 36 34 34 33 37 46 47 56 60 62 62 65 68 69 71 71 71 71 71 71 70 69 68 71 71 70 70 71 70 69 67 66 66 66 66 66 65 67 66 65 63
55 53 48 44 40 34 33 34 32 31 32 30 39 48 53 58 61 62 65 65 67 69 70 71 72 71 71 71 70 69 69 69 71 70 70 70 70 69 66 67 68 66 66 66 65 68 67 66 63
49 47 46 42 37 36 35 35 34 33 33 32 41 46 57 59 61 64 64 66 67 68 68 71 71 71 71 71 70 70 70 68 70 70 70 70 69 69 67 68 67 62 63 63 65 68 67 66 64
48 44 38 37 35 36 34 34 34 32 31 30 31 44 54 59 63 64 64 65 66 67 69 71 71 70 71 70 70 70 70 69 69 69 69 69 69 68 67 66 63 62 63 66 67 67 67 67 65
42 41 35 32 31 29 29 29 29 29 28 27 27 45 51 59 61 63 63 63 64 65 68 69 69 68 69 69 69 69 70 68 70 69 69 69 69 68 66 64 63 64 66 69 67 67 67 67 65
42 39 34 33 31 28 28 28 26 26 26 26 28 29 52 57 60 62 62 62 63 63 62 61 62 65 68 69 68 68 69 68 70 69 69 69 68 67 64 63 64 66 67 67 68 67 67 67 66
38 37 34 34 33 30 28 25 24 23 22 27 27 26 39 56 62 62 62 61 61 62 61 60 60 60 60 60 65 66 69 68 67 68 68 68 67 66 65 65 66 66 67 66 65 65 64 64 63
34 34 32 32 31 31 29 26 26 25 23 23 25 27 44 59 61 61 61 61 61 61 60 61 61 60 60 60 60 60 65 68 67 68 68 66 64 65 65 65 65 66 66 65 64 63 62 60 58
31 31 31 33 31 29 27 26 25 25 25 27 27 33 59 60 59 57 57 57 59 59 61 61 61 60 60 60 60 59 63 67 68 67 66 64 62 61 63 65 65 65 66 65 63 62 61 58 55
34 30 30 30 31 31 29 27 26 24 25 29 29 30 50 59 58 57 57 57 57 57 57 59 60 60 59 59 59 59 59 65 67 66 65 63 61 60 62 64 64 65 65 64 63 62 58 55 52
32 33 33 32 31 30 28 28 27 29 27 27 30 31 37 55 56 56 57 58 58 56 55 58 59 58 58 60 60 60 60 62 65 65 65 62 62 62 63 63 63 64 63 62 61 60 56 53 50
27 29 31 30 28 28 27 27 27 27 31 29 28 32 37 46 48 50 56 57 57 56 55 56 60 59 59 59 61 61 61 62 63 64 64 63 62 63 63 63 63 63 62 60 59 58 55 52 51
29 30 29 29 28 27 26 25 27 28 29 31 28 29 32 38 44 48 53 56 57 57 56 57 60 60 61 60 61 62 63 62 60 63 62 61 61 62 62 62 62 61 59 59 58 56 55 52 50
31 29 30 28 29 29 28 25 24 28 29 30 30 28 30 33 40 42 48 54 56 57 57 58 59 60 60 61 62 63 64 59 58 61 59 60 60 59 59 59 59 58 57 55 55 53 51 50 50
28 29 26 26 28 30 29 24 23 27 29 28 30 31 29 32 38 42 44 50 56 57 58 58 60 60 60 62 62 64 64 61 58 58 58 59 59 58 57 56 56 55 54 53 52 51 51 53 54
30 23 24 24 29 30 30 27 26 27 27 30 30 30 29 32 39 43 52 55 57 57 58 58 60 58 61 62 63 64 63 63 61 59 58 58 58 57 56 56 55 55 55 54 53 52 52 54 56
22 25 25 26 28 29 30 32 34 28 30 29 28 29 29 33 48 55 56 57 57 58 58 59 59 58 60 59 60 63 63 63 64 60 61 59 58 58 57 59 58 58 58 57 56 53 55 56 55
27 26 25 27 28 30 32 34 34 30 31 35 36 37 37 41 53 56 57 57 58 58 59 59 59 59 61 59 58 60 60 63 63 61 63 63 62 62 61 60 60 61 59 58 57 56 55 55 56
31 30 28 29 30 34 34 33 35 32 33 36 39 42 44 47 50 52 54 57 57 57 59 59 58 59 60 60 59 59 60 61 62 62 62 63 63 63 62 61 61 61 60 60 60 59 58 56 56
31 30 29 28 30 35 33 32 31 31 37 39 40 44 46 47 46 50 53 55 54 56 57 59 59 59 60 60 60 60 59 59 59 60 61 62 63 63 63 62 62 62 61 61 61 61 60 58 59
29 35 34 33 31 24 33 21 29 34 35 38 44 45 46 48 51 52 53 53 53 53 56 58 59 60 60 60 59 59 57 56 59 60 61 61 61 61 62 62 62 62 62 60 60 60 60 60 58
32 36 35 33 31 31 30 28 31 34 33 36 42 46 46 48 49 49 49 51 51 52 53 54 57 59 59 59 59 58 58 59 59 60 59 59 60 60 60 61 62 62 62 62 61 61 60 60 59
37 37 35 35 32 26 26 28 28 31 33 36 40 44 46 47 48 48 49 49 50 51 54 54 55 56 58 58 59 59 58 58 58 58 57 58 59 60 60 60 61 61 62 62 62 61 61 60 60
37 32 26 24 23 24 32 28 29 35 36 37 40 41 43 44 46 46 47 47 47 48 49 52 51 51 52 53 55 57 58 58 58 58 58 57 57 58 58 59 60 60 60 61 61 61 60 59 58
35 33 26 21 22 25 29 25 29 36 39 40 41 41 42 42 43 44 44 44 43 41 41 43 45 45 46 47 49 50 53 56 59 59 58 58 58 58 58 59 59 59 59 60 60 59 59 58 58
33 31 35 31 29 27 28 30 33 35 37 38 39 39 40 40 41 41 42 42 41 38 39 39 39 39 39 41 43 44 46 47 48 52 56 59 59 60 59 59 59 60 59 60 59 58 58 57 57
33 32 27 30 24 22 27 28 28 31 33 36 36 37 38 39 38 37 37 37 35 36 37 38 38 38 38 39 40 40 42 43 44 46 46 49 52 54 56 57 59 59 59 59 58 58 58 57 56
30 26 26 25 25 21 20 26 37 35 36 35 35 36 36 37 35 33 32 33 33 34 35 36 37 37 37 38 39 39 40 40 41 42 43 44 45 46 51 53 54 56 57 57 57 57 56 55 55
31 27 24 22 20 23 23 26 36 36 35 34 33 31 30 32 31 30 31 32 33 33 35 35 36 36 37 38 39 39 39 39 40 40 41 42 42 44 45 50 51 53 55 56 56 55 54 54 54

GFSSGP_sfc_30mbdewp_090.txt.gz
Dewpoint
56 56 55 50 44 42 39 38 41 39 36 35 33 33 35 53 51 44 62 66 68 69 71 71 71 71 71 71 71 72 71 71 71 71 69 69 70 68 67 65 66 68 69 69 67 65 64 63 61
55 55 51 48 37 35 32 40 38 38 36 33 33 41 51 53 60 62 61 68 68 70 71 70 71 71 70 70 69 70 71 70 71 71 70 70 70 68 67 66 65 67 67 68 67 65 64 62 64
54 53 45 43 39 31 29 35 35 36 34 34 32 47 54 56 61 62 65 66 69 70 70 71 72 71 71 70 69 68 68 71 70 70 70 70 70 69 66 66 67 65 65 68 67 66 64 62 63
49 47 45 41 36 38 35 35 35 34 33 33 32 31 56 59 61 63 64 66 68 70 70 72 72 71 71 71 70 69 68 68 70 70 70 70 69 69 66 68 67 65 65 66 68 66 65 63 62
48 44 34 37 37 39 37 36 34 31 29 30 29 29 50 59 64 64 65 67 68 68 69 71 69 70 72 71 70 70 70 69 70 70 69 69 69 68 68 69 67 65 64 65 69 67 66 64 63
42 41 34 27 29 31 30 29 28 28 28 28 25 36 49 59 63 63 64 65 67 68 68 68 68 68 69 68 68 70 70 69 69 70 69 69 69 67 68 67 62 63 64 65 68 67 66 65 63
41 38 32 33 33 31 30 29 26 25 25 23 26 25 43 58 61 62 62 64 64 64 63 62 62 63 64 65 64 66 69 68 67 70 69 69 68 67 66 64 64 64 65 67 67 67 67 65 64
40 38 34 34 31 30 31 31 29 26 24 25 26 24 26 56 62 62 61 62 62 62 62 60 60 60 60 59 60 60 63 67 67 69 68 68 67 66 65 64 64 66 67 69 68 66 67 66 65
34 34 32 32 31 32 30 28 28 27 25 26 26 30 54 60 62 61 60 60 60 60 61 61 60 61 60 60 59 59 58 58 65 67 67 67 67 65 64 63 64 66 67 67 67 67 66 65 62
32 31 31 34 32 30 29 29 29 27 27 26 28 31 42 59 60 59 59 58 59 60 59 61 62 61 61 61 59 58 57 58 60 67 67 67 66 65 63 63 65 65 66 65 65 64 63 60 56
33 29 31 30 30 32 32 31 30 28 26 27 27 28 30 39 57 57 57 58 59 59 60 61 61 61 60 61 61 60 57 60 59 63 67 65 65 64 64 64 65 65 65 64 64 63 60 56 53
32 33 33 33 33 32 30 30 28 28 27 29 30 30 30 36 54 56 56 57 57 57 57 59 61 60 59 60 59 58 58 56 61 63 66 65 63 64 63 64 64 64 64 63 62 61 58 55 51
27 28 31 30 29 28 27 26 26 26 28 30 30 30 30 33 38 54 56 57 57 57 56 57 59 58 57 60 59 59 58 57 59 62 65 65 64 62 62 63 63 64 63 62 61 59 56 53 51
30 31 30 31 30 30 28 27 26 25 27 27 28 29 31 31 34 49 54 55 56 56 56 55 58 58 58 59 60 60 60 59 58 61 64 65 64 63 63 62 63 63 63 61 60 58 55 52 51
31 27 28 27 27 27 29 26 25 26 25 26 27 29 31 32 32 37 46 52 56 57 57 56 58 60 59 59 60 61 61 61 60 59 63 64 64 64 62 62 62 62 61 60 58 57 56 53 51
26 28 24 26 28 28 29 23 26 28 26 24 26 30 30 31 32 35 41 50 55 57 57 57 58 60 60 60 60 60 62 63 62 61 63 62 62 63 62 61 61 60 59 57 56 56 53 52 51
29 22 24 25 27 28 30 28 31 32 33 27 25 26 30 31 32 35 40 48 55 57 57 57 58 58 59 60 60 61 61 62 62 61 62 61 61 60 61 60 59 58 57 55 54 53 52 52 53
20 23 25 25 28 27 27 28 30 32 35 33 28 31 29 30 32 44 54 55 57 57 58 58 58 59 59 60 61 62 61 62 62 61 60 60 60 59 58 57 57 56 56 54 54 52 53 53 54
25 26 26 27 28 28 28 29 32 34 35 31 32 35 36 35 35 54 56 56 57 57 57 58 58 58 58 58 58 59 59 61 62 62 62 60 59 58 57 57 56 56 56 55 54 53 53 55 56
29 28 26 29 29 32 32 32 32 34 35 32 34 38 41 45 50 51 54 55 56 57 58 58 59 59 59 59 59 59 60 61 62 62 62 60 59 59 58 59 59 59 59 57 56 56 56 55 56
29 28 27 29 32 32 30 29 30 33 35 39 42 44 45 46 46 49 52 53 54 54 56 58 59 59 59 60 60 59 61 60 61 62 61 61 60 60 61 61 61 61 60 59 59 58 58 56 58
28 31 34 33 31 24 32 19 31 34 35 38 42 45 46 49 51 51 52 51 52 53 54 56 58 59 60 60 60 58 58 57 58 60 61 61 62 61 61 62 62 61 61 60 60 61 60 59 57
31 36 36 34 30 30 29 26 26 33 32 35 39 43 45 48 49 49 49 51 51 53 54 55 57 57 59 59 59 58 58 59 60 60 60 60 61 61 61 61 60 61 62 61 61 60 60 60 58
35 35 36 34 32 23 26 25 27 31 33 35 39 42 44 47 47 48 49 49 49 50 53 52 52 53 54 57 57 58 58 58 58 58 58 59 59 59 59 59 60 61 61 61 61 61 60 60 60
36 32 25 23 23 23 31 27 29 34 36 37 40 41 42 43 44 45 45 45 46 46 48 48 48 48 50 52 52 53 57 58 58 58 57 57 58 58 59 59 60 60 60 60 61 61 60 60 59
35 32 27 21 21 24 32 25 29 36 38 40 41 41 42 41 42 43 43 44 44 44 44 44 44 44 44 46 48 50 51 53 54 57 58 58 58 58 59 59 59 59 59 60 60 60 60 60 59
34 31 35 30 29 25 28 30 33 35 37 38 38 39 39 40 40 41 42 42 41 40 39 40 40 40 40 41 41 42 44 48 49 49 51 54 56 58 59 59 58 58 58 58 59 58 58 58 58
36 34 29 30 24 21 25 28 27 31 32 34 36 36 38 39 39 39 40 40 38 38 37 37 37 38 38 39 39 40 40 41 43 44 45 45 47 49 53 55 57 58 59 59 59 58 58 58 57
31 30 29 26 28 24 19 25 35 32 33 33 34 37 37 38 38 38 38 38 35 35 36 36 36 36 37 38 39 39 39 40 40 41 41 42 42 43 45 50 51 53 55 57 58 58 57 57 57
31 29 25 21 20 23 22 25 38 37 37 36 34 34 36 37 35 34 33 33 33 34 35 35 35 36 37 38 39 39 39 39 39 40 41 41 41 42 43 45 49 50 51 54 55 55 56 55 55

GFSSGP_sfc_30mbdewp_093.txt.gz
Dewpoint
55 56 54 49 43 41 37 33 42 39 37 34 33 32 32 37 40 38 61 66 68 70 71 71 71 71 71 71 72 72 72 72 71 70 68 70 69 67 66 68 69 69 69 68 65 65 64 64 65
55 55 50 46 36 32 24 39 39 38 38 34 33 38 48 50 60 61 62 68 68 70 71 71 71 71 71 71 72 71 71 71 71 70 69 69 69 67 65 68 68 69 69 67 65 64 62 62 63
53 53 42 42 36 29 20 35 36 36 35 33 32 38 53 56 61 62 64 68 69 70 70 71 71 71 70 70 70 71 71 70 70 70 70 70 69 68 66 66 68 69 69 67 65 63 63 65 65
48 47 43 37 34 37 34 35 37 34 32 32 30 28 44 59 60 63 65 68 69 70 70 71 71 71 71 70 69 68 70 70 70 70 70 70 69 69 67 67 68 66 69 67 66 63 63 65 64
47 43 33 34 34 38 38 37 35 30 29 29 28 25 36 58 64 64 65 67 68 69 70 71 72 72 71 70 70 69 68 68 70 70 69 69 69 68 67 68 67 64 66 67 66 64 64 63 64
41 40 25 19 30 33 32 30 28 27 27 25 24 25 41 59 63 63 64 65 68 68 70 70 69 70 70 69 69 70 70 69 69 70 70 70 69 68 68 69 67 64 63 67 67 65 63 63 64
38 34 25 32 32 32 30 29 27 27 26 24 25 24 27 51 61 62 63 64 65 65 65 65 66 67 66 65 66 67 67 68 68 69 70 69 68 68 67 68 65 64 64 64 68 66 64 63 63
41 37 34 33 29 27 31 30 30 26 25 26 27 26 38 55 61 62 62 62 63 63 63 63 62 61 60 60 60 60 59 60 63 67 70 68 67 67 66 67 63 62 63 65 67 67 65 64 64
36 32 28 31 32 31 31 29 29 28 26 27 27 33 40 58 59 60 60 60 61 61 61 61 61 61 61 59 58 57 57 56 59 66 68 67 67 67 65 64 63 63 65 67 67 67 68 67 64
33 31 29 34 33 30 30 31 31 29 29 28 27 29 30 33 49 55 57 58 58 59 60 61 61 61 61 61 59 58 57 57 56 59 66 67 67 66 64 63 63 63 66 68 68 67 67 65 61
32 29 31 31 31 32 33 31 31 29 27 27 27 28 30 30 33 51 57 58 59 58 59 60 61 61 61 62 61 61 60 59 57 58 63 66 66 65 63 62 62 64 65 66 66 65 64 60 55
32 33 33 33 33 31 31 30 27 27 28 29 29 30 30 30 31 38 53 57 58 59 60 60 60 60 60 60 60 60 60 59 59 59 64 65 65 64 64 62 63 65 65 64 64 63 60 57 53
27 29 31 31 31 30 29 28 27 26 27 27 29 29 29 31 32 33 42 56 57 57 58 59 60 60 60 59 59 58 58 58 58 59 65 65 64 64 64 64 64 64 64 63 62 61 58 55 53
29 31 29 30 29 30 28 26 27 26 26 26 26 26 28 31 32 33 37 48 56 57 57 57 58 59 59 58 58 58 58 59 58 60 63 65 64 63 64 64 64 63 63 62 62 60 58 55 52
30 25 27 25 25 26 28 24 26 26 26 26 26 25 24 30 32 33 34 38 48 55 57 56 56 58 58 58 58 59 59 59 59 58 62 64 64 63 63 64 64 63 63 62 60 59 57 54 52
26 27 22 24 28 27 25 19 23 26 26 28 29 29 29 29 32 33 34 37 41 51 56 56 57 58 58 58 59 60 60 60 61 60 59 63 63 63 63 63 63 63 62 62 59 58 56 54 52
26 18 23 25 27 28 29 27 30 30 30 30 32 33 29 28 30 33 35 38 41 51 55 56 57 58 58 59 59 59 60 60 61 62 61 61 63 63 63 63 63 61 61 60 58 56 55 53 53
16 21 23 24 26 26 25 25 27 30 31 33 35 36 31 30 32 33 35 48 52 54 56 57 57 58 58 59 60 61 61 61 61 61 63 61 62 63 63 62 62 61 60 58 56 55 54 53 52
22 23 24 26 28 28 28 29 30 31 34 34 35 33 33 36 38 37 49 56 56 56 57 57 57 58 58 58 58 58 58 59 61 62 62 62 62 62 62 62 61 59 58 57 55 53 53 53 54
28 27 25 27 29 32 31 31 32 32 32 35 34 36 38 43 49 52 52 54 55 56 57 57 57 58 58 58 58 58 59 59 60 61 62 62 61 61 60 60 60 59 57 56 55 54 53 53 56
28 27 27 27 31 34 33 28 30 34 37 40 43 44 46 47 48 49 50 52 53 53 55 57 58 59 59 59 59 59 60 60 60 61 60 61 61 61 60 59 59 58 57 56 56 55 55 53 55
27 29 30 30 31 25 30 20 27 33 35 37 41 44 45 47 47 48 49 50 52 53 54 55 57 57 58 60 59 58 57 56 58 58 61 61 61 61 61 60 60 60 60 58 58 58 58 57 55
30 33 34 34 32 29 28 24 25 32 31 35 39 42 44 47 48 48 49 50 51 53 54 54 54 54 55 59 59 58 57 58 59 59 60 60 60 61 61 60 60 60 61 60 60 60 59 59 58
34 34 34 34 31 24 24 24 23 30 32 35 39 41 43 44 45 46 47 47 47 49 50 49 50 50 52 53 54 55 57 58 58 58 58 59 60 59 59 59 59 59 59 60 60 60 60 59 59
35 32 24 23 23 20 31 25 27 33 36 38 39 40 41 42 43 43 43 44 45 45 46 47 46 46 47 48 50 51 53 55 57 57 57 57 58 58 58 59 59 59 59 59 60 60 60 59 59
34 32 26 20 21 24 32 26 28 36 38 40 40 40 40 40 41 42 42 43 43 43 44 44 44 43 44 45 45 46 49 51 52 53 54 56 57 58 59 59 59 59 59 60 60 59 60 60 59
35 31 36 29 30 25 27 31 33 36 36 37 37 37 38 39 40 40 41 42 42 41 41 40 41 41 40 40 42 42 44 46 47 48 49 50 52 53 56 58 58 59 59 59 59 58 59 59 58
37 38 29 30 23 21 25 28 28 31 32 33 34 35 37 39 39 40 41 40 40 38 36 36 37 38 38 39 39 39 39 40 42 43 43 43 45 47 50 52 53 54 57 58 58 58 58 57 58
33 32 33 30 30 24 20 25 36 32 32 32 35 36 38 38 38 39 39 37 34 35 35 35 36 37 38 38 39 39 39 39 40 40 41 41 42 42 43 45 49 50 51 54 55 57 57 57 57
31 28 28 22 20 23 22 26 37 37 36 36 36 37 38 38 38 37 35 34 34 34 35 35 35 36 37 38 38 38 39 39 39 39 40 41 41 42 42 42 43 45 48 50 52 54 55 55 55

GFSSGP_sfc_30mbdewp_096.txt.gz
Dewpoint
55 55 53 48 36 39 31 27 42 39 37 35 34 32 31 33 33 33 59 65 69 69 71 71 72 72 71 71 71 72 72 71 70 69 68 68 68 67 67 68 68 67 69 68 66 65 64 66 63
55 54 49 43 36 20 14 38 37 39 37 35 33 35 45 46 59 60 61 67 68 70 71 71 71 72 71 71 71 71 71 71 71 69 68 68 68 67 68 68 69 69 68 66 65 64 64 65 63
52 51 41 40 35 19 15 34 37 36 35 33 30 32 49 54 60 62 64 68 69 70 71 70 71 72 72 72 71 71 71 71 70 70 69 70 69 67 67 68 70 69 68 66 64 63 64 64 65
48 44 42 32 27 32 32 35 37 34 31 30 29 27 36 59 60 63 65 67 69 70 70 71 71 71 71 71 71 71 71 70 70 69 69 69 69 68 66 68 69 69 68 66 64 63 65 66 65
45 39 31 29 30 36 38 38 34 28 28 27 26 23 28 55 59 63 64 67 69 69 70 71 70 71 71 70 70 69 71 70 70 70 69 69 69 68 68 68 69 69 69 66 64 64 65 65 64
38 36 17 14 27 34 33 32 29 26 26 25 24 24 33 53 55 61 63 63 67 68 69 70 69 70 71 71 70 70 69 68 70 70 70 69 69 68 68 68 68 69 68 66 64 64 65 64 65
33 25 17 28 28 31 30 29 27 27 26 25 25 24 27 37 57 61 62 63 64 66 67 68 69 69 68 69 69 68 67 66 67 69 69 69 69 68 68 68 68 66 66 66 65 64 64 64 64
41 32 31 31 26 24 31 29 29 26 26 27 27 25 31 36 56 60 61 61 62 63 64 66 65 64 63 63 62 60 60 61 63 67 68 69 68 67 67 67 67 65 63 67 67 65 64 64 65
37 27 23 27 31 29 31 29 31 31 28 28 28 31 32 31 44 49 55 59 60 61 62 62 63 62 61 61 60 59 57 56 60 66 68 69 68 67 67 66 66 64 63 63 67 67 66 65 64
33 26 23 33 33 31 30 32 31 30 28 29 28 29 29 31 31 35 45 54 58 59 60 61 61 61 61 61 59 58 57 56 56 64 66 67 67 67 66 65 65 63 63 62 66 67 67 66 64
32 26 31 31 32 32 32 31 31 29 26 27 27 28 29 30 31 33 40 52 56 59 59 61 61 61 61 60 59 59 59 59 58 57 62 65 66 66 65 64 63 62 63 65 66 65 66 65 61
30 33 33 33 31 30 28 30 28 28 28 29 29 29 29 30 30 31 33 41 51 58 59 61 61 61 61 61 61 60 61 61 60 58 61 63 65 65 64 63 63 62 65 66 66 65 64 62 57
27 29 31 31 30 29 30 28 28 27 28 28 28 28 29 28 28 30 34 37 50 57 59 60 60 60 60 60 60 59 59 58 58 59 61 65 65 64 64 64 63 64 65 64 64 63 62 59 55
30 30 29 28 26 27 25 24 26 24 26 24 25 25 26 27 28 30 31 32 43 54 57 59 60 60 60 60 59 59 58 58 58 58 60 64 65 65 64 64 64 64 64 64 63 62 60 58 55
29 23 25 23 24 25 25 19 24 24 26 26 26 27 27 28 29 28 31 33 37 45 53 57 57 58 59 59 58 58 57 58 58 58 59 62 64 64 64 64 64 64 64 63 62 61 59 57 54
25 25 15 19 27 28 25 18 21 29 29 28 29 30 31 32 34 30 31 33 34 39 48 54 57 57 58 58 57 58 58 58 58 59 59 60 63 64 63 63 64 64 64 63 62 61 59 57 54
23 12 21 22 27 28 27 25 29 30 28 28 29 30 33 35 34 33 34 35 35 37 40 51 56 56 57 57 58 58 59 59 60 60 61 61 61 63 63 63 63 63 61 61 61 60 58 56 54
16 19 22 22 24 26 26 25 27 28 29 30 31 33 35 36 36 33 31 34 35 41 48 54 56 56 57 58 58 58 59 59 60 60 60 61 61 60 62 62 62 62 60 58 60 60 57 56 53
23 24 24 25 27 27 27 28 29 31 32 33 34 34 35 35 36 38 38 38 47 55 55 56 56 57 57 57 57 56 57 57 59 60 60 61 61 61 61 61 62 59 59 57 58 58 57 54 54
27 26 25 26 28 30 31 31 33 32 33 36 41 42 43 45 46 49 49 52 54 55 56 56 57 57 57 58 57 58 57 58 59 60 61 62 62 62 62 61 61 60 57 55 56 57 56 54 55
27 26 26 26 29 32 32 27 25 34 37 38 42 44 45 46 47 48 49 50 52 53 54 55 56 58 58 58 58 58 58 59 58 59 60 61 62 61 62 62 61 60 60 59 58 57 54 52 55
26 29 29 29 30 26 29 21 23 31 34 34 40 42 44 46 48 49 49 50 51 52 54 55 55 54 55 56 57 56 56 56 57 57 59 60 61 61 61 61 60 60 60 58 58 57 55 55 53
27 31 31 31 31 31 28 25 23 31 30 32 37 40 42 45 46 46 47 47 48 50 50 52 52 51 52 54 58 58 57 57 58 58 58 59 60 60 61 61 60 60 60 60 58 58 56 57 55
33 33 33 33 32 24 24 25 20 29 32 35 38 40 41 42 43 44 45 45 45 46 48 47 47 48 49 50 51 53 54 55 56 57 57 58 60 59 59 59 59 59 59 60 60 59 59 58 57
35 32 23 21 22 20 30 25 23 33 34 37 39 39 40 41 41 42 43 43 43 44 44 46 45 45 46 47 47 48 51 52 52 53 54 54 57 58 58 59 58 58 58 59 59 59 59 59 58
34 33 26 18 21 23 31 26 28 35 38 39 40 39 39 40 40 41 42 42 42 42 43 43 44 42 42 43 43 45 46 48 48 49 50 50 51 53 57 59 59 58 59 59 59 58 59 59 59
35 30 36 28 31 25 26 31 35 36 36 36 36 37 38 39 40 40 41 41 41 40 40 41 41 41 40 39 40 40 41 42 44 44 46 47 48 49 51 53 55 58 59 59 59 58 58 58 59
36 37 30 30 22 21 25 27 28 32 32 32 32 33 38 39 39 39 39 39 39 38 38 38 38 38 38 38 39 39 39 39 40 41 41 42 43 44 45 47 50 52 52 55 56 57 58 58 58
34 31 33 32 29 24 21 26 36 34 33 33 33 36 38 38 39 39 39 37 36 35 35 35 36 37 37 38 37 38 38 39 39 39 40 41 41 42 42 42 43 45 48 49 51 53 55 56 57
31 28 28 23 21 24 22 25 37 36 36 35 35 37 38 39 38 38 37 33 34 34 34 35 35 36 37 37 35 35 36 36 36 37 38 40 40 40 41 41 42 42 43 45 47 48 50 52 53

GFSSGP_sfc_30mbdewp_099.txt.gz
Dewpoint
55 55 52 46 29 35 21 23 42 39 38 36 36 33 32 33 33 35 61 66 69 68 71 70 72 72 72 71 71 71 72 71 71 70 69 70 70 68 67 66 67 68 69 67 65 66 64 64 66
54 53 48 42 26 6 7 36 35 40 36 36 34 34 44 45 58 61 62 65 68 69 71 70 72 71 72 72 71 71 71 71 70 68 68 68 69 67 67 67 67 69 69 68 66 64 66 64 63
52 49 42 37 31 10 11 34 37 36 34 30 28 31 44 54 58 62 64 65 69 69 71 70 71 71 71 71 72 71 71 71 70 70 68 68 68 67 67 69 69 69 68 67 66 66 66 63 62
48 42 40 32 22 31 29 35 37 32 30 29 28 26 43 47 47 58 63 65 68 70 70 70 71 71 71 71 72 71 71 71 70 70 69 69 69 68 68 69 69 69 67 66 65 65 65 66 65
44 35 29 24 26 34 38 38 36 28 27 26 26 24 26 49 54 60 62 63 65 69 70 70 70 70 70 71 71 71 71 71 70 69 69 69 69 68 68 69 69 69 68 65 64 64 65 66 65
37 31 16 9 21 32 33 35 31 27 26 26 25 25 27 48 48 57 62 63 64 65 69 69 69 69 70 70 70 70 70 70 70 70 70 69 69 68 68 68 69 69 68 65 64 65 65 66 65
30 17 10 18 22 28 30 31 27 27 27 25 26 25 27 37 38 54 60 62 63 64 65 69 69 69 70 70 70 69 69 67 67 69 70 70 69 68 67 67 67 68 68 66 64 66 66 65 66
39 29 28 28 25 20 31 30 29 27 26 28 27 25 28 34 35 43 52 59 61 62 63 64 67 68 68 68 67 66 65 64 64 66 69 69 69 68 67 66 66 68 67 67 65 66 66 65 66
37 19 15 23 30 27 31 30 31 32 30 29 29 29 31 30 35 36 41 50 57 61 61 62 64 64 65 65 63 62 60 60 64 66 68 68 68 68 67 66 65 65 66 66 66 66 66 66 66
31 15 17 32 33 31 31 32 32 30 28 27 28 28 30 31 32 33 35 38 47 53 60 62 62 63 63 63 63 61 58 56 61 67 68 68 68 67 67 66 66 66 64 63 66 67 66 65 63
32 21 31 31 33 31 31 31 32 29 27 28 26 28 29 30 30 32 34 36 41 48 59 61 62 62 62 62 62 61 58 58 58 60 66 66 67 67 67 66 66 65 63 62 61 65 65 62 62
28 33 32 33 31 30 28 29 28 28 26 28 29 30 29 29 30 32 30 31 34 40 53 60 62 62 62 62 61 61 60 60 60 59 59 64 66 66 66 65 65 64 63 63 62 63 64 65 63
27 29 30 31 29 29 29 27 27 26 27 28 28 29 29 29 29 29 31 33 36 39 49 59 62 62 61 61 61 61 61 60 60 60 60 62 64 64 65 65 64 63 64 64 65 63 63 63 63
29 29 29 27 27 27 25 25 26 23 24 26 26 26 26 28 28 30 31 32 34 35 44 58 60 62 61 61 61 61 60 59 59 58 58 60 62 64 65 65 64 64 64 64 65 65 64 62 60
29 21 23 23 25 26 25 18 22 24 26 26 27 28 29 29 30 30 31 32 34 35 39 48 57 60 61 61 61 61 60 60 58 57 57 58 60 62 64 65 64 64 65 64 64 63 62 61 58
24 22 9 18 26 27 26 20 18 23 30 30 29 29 29 31 33 34 35 34 34 36 37 42 52 58 59 60 61 60 60 59 58 57 58 58 58 60 62 63 64 65 64 64 63 62 61 61 58
20 9 19 21 26 28 28 25 28 30 29 28 28 29 32 33 35 37 38 37 34 36 37 40 49 54 57 58 58 58 58 58 59 59 59 59 59 59 60 62 62 63 64 64 63 62 61 60 58
15 18 22 22 24 27 27 27 28 30 31 31 31 32 34 37 39 40 39 37 37 38 38 41 49 54 57 58 58 58 58 58 59 59 59 59 59 60 60 61 61 62 63 62 62 61 61 60 59
23 24 24 25 26 27 28 28 30 32 34 35 37 40 42 44 46 45 46 44 41 40 46 52 55 56 57 57 56 56 56 57 58 59 60 59 60 60 60 61 61 61 61 60 61 61 58 58 58
27 25 24 26 28 29 29 29 31 33 37 40 40 41 43 45 47 48 49 50 51 51 54 56 56 57 57 58 58 57 57 58 58 59 60 60 60 60 60 61 61 61 61 60 59 59 58 56 57
27 26 25 26 29 32 30 28 25 33 36 36 41 41 44 46 47 48 49 50 51 51 52 53 55 56 56 58 58 58 58 58 58 58 59 60 60 61 61 62 61 61 61 59 58 58 56 55 56
24 27 28 29 30 26 32 23 24 29 33 33 38 39 41 45 46 46 47 47 48 50 52 53 53 53 53 54 56 56 55 55 55 58 58 58 59 60 61 61 62 62 61 59 58 58 57 55 54
27 29 30 31 31 30 29 26 23 30 30 33 38 40 40 43 44 44 45 46 46 47 48 49 49 50 50 51 52 56 55 57 57 58 59 59 59 60 61 61 61 61 60 60 59 58 57 57 55
31 32 33 33 31 24 24 25 22 28 32 34 38 40 41 41 42 43 44 44 44 45 46 46 45 45 47 48 49 50 53 53 53 53 55 55 56 60 60 61 60 60 60 59 59 58 58 57 57
34 31 23 20 22 19 27 26 24 32 33 37 39 39 40 41 41 41 41 42 42 42 43 44 43 42 43 43 45 46 48 48 49 49 50 50 51 52 54 59 58 58 59 59 59 59 57 57 56
34 33 24 18 19 23 30 24 29 35 38 39 38 38 39 40 40 40 40 41 41 41 42 42 42 41 41 42 41 42 43 45 45 45 46 47 48 48 50 53 57 58 58 58 58 58 58 58 57
34 30 35 29 28 26 26 31 36 37 36 35 34 37 37 39 39 39 39 40 40 40 41 41 41 41 40 40 41 40 41 41 41 42 43 44 45 46 47 48 50 52 53 55 57 58 58 58 58
35 36 29 30 21 20 24 27 28 32 32 32 32 33 36 37 39 39 39 39 38 39 38 39 39 38 36 36 37 37 38 38 39 40 40 40 41 42 43 44 45 47 49 50 52 53 54 56 58
34 31 31 32 29 23 21 25 36 32 33 33 34 36 37 37 39 39 38 36 36 36 35 35 36 36 34 33 33 33 34 34 34 34 35 37 38 39 40 41 41 42 43 45 47 48 49 50 52
31 28 27 24 21 24 23 24 36 37 37 35 36 37 38 39 38 37 34 33 33 32 33 33 35 34 33 31 30 31 31 31 31 32 32 33 33 34 34 35 37 39 41 42 43 43 43 45 46

GFSSGP_sfc_30mbdewp_102.txt.gz
Dewpoint
54 54 53 48 29 26 12 18 35 35 35 36 36 33 32 32 33 37 63 65 66 67 67 68 71 72 72 72 72 72 72 72 71 71 71 71 70 69 68 67 67 70 69 69 69 68 67 67 66
53 53 50 41 23 8 9 29 33 37 35 35 34 33 37 42 57 59 62 64 65 67 67 68 70 71 71 72 71 72 72 72 71 70 71 70 70 69 67 66 67 69 69 68 67 67 66 67 66
52 49 42 32 18 9 13 31 35 35 31 30 31 31 41 49 48 52 59 63 66 68 67 68 70 71 71 71 71 71 72 71 70 69 68 68 69 68 67 68 68 69 68 68 66 67 66 65 64
49 45 37 27 15 26 25 33 35 33 30 28 28 29 45 45 44 53 60 63 65 67 68 68 70 70 70 70 70 71 71 71 70 70 68 68 69 67 69 68 69 69 69 68 66 67 64 64 63
44 39 25 19 19 27 33 36 35 30 28 27 26 27 33 40 42 47 58 62 64 65 69 68 69 69 69 70 70 71 71 71 70 70 69 69 68 68 69 68 68 69 68 66 66 66 65 65 65
35 30 15 12 15 25 28 33 33 29 27 26 26 26 31 38 36 41 46 59 63 64 66 68 68 68 69 69 70 70 70 70 69 69 69 69 69 69 69 68 69 69 67 66 65 65 65 66 66
26 16 9 12 16 20 26 30 25 25 25 24 27 25 29 36 34 39 41 50 62 64 64 67 66 67 68 69 69 69 69 69 69 69 69 69 69 68 69 68 68 68 68 66 66 66 65 66 65
31 19 17 19 17 18 30 29 29 28 25 29 28 21 24 34 32 36 38 42 49 62 63 64 67 66 66 67 69 68 69 67 66 67 68 69 69 69 68 67 66 67 68 67 66 67 66 66 66
37 12 12 18 21 23 31 28 30 31 28 26 26 27 28 27 31 33 36 38 40 45 59 63 64 66 67 66 66 67 66 66 65 65 66 68 66 65 65 65 65 67 67 67 66 67 67 66 66
25 14 13 27 29 27 30 30 28 25 22 21 21 22 23 26 27 30 32 34 37 37 42 60 63 64 65 66 66 65 64 61 62 64 65 66 64 63 63 64 65 66 66 66 66 66 67 65 60
31 19 26 30 32 32 28 26 27 24 21 21 20 18 20 25 26 26 29 34 33 34 36 42 61 63 63 64 65 64 61 59 58 64 66 66 66 64 64 63 65 64 64 63 64 64 64 60 55
24 30 30 32 32 30 26 25 22 21 20 19 20 21 23 25 26 26 26 27 28 32 35 40 50 62 63 63 64 63 61 59 59 59 61 64 66 66 65 61 63 63 62 62 61 60 62 63 57
25 29 30 30 30 27 25 23 21 19 19 20 22 23 24 25 25 25 28 30 31 32 36 38 46 59 63 63 63 63 61 59 59 59 59 60 63 65 66 66 62 63 64 62 62 60 59 61 61
27 27 25 25 24 23 22 20 24 16 21 20 25 25 25 26 28 29 30 29 30 31 34 37 42 54 61 62 62 63 62 61 60 59 59 59 59 60 62 65 66 65 62 62 61 61 60 60 60
28 20 21 23 24 24 26 21 22 20 23 27 27 28 29 29 30 31 31 32 33 35 35 36 37 44 58 62 62 62 62 61 60 59 59 58 56 56 58 60 62 64 65 62 62 63 62 63 62
22 21 14 19 26 28 27 17 20 21 29 29 29 29 30 31 33 34 34 34 35 36 36 36 35 39 51 60 62 62 62 62 62 61 59 57 55 55 56 58 59 60 63 64 64 64 64 64 62
19 19 18 20 27 27 27 24 26 29 30 31 32 31 32 34 39 42 43 41 39 37 36 35 36 38 44 53 56 60 61 60 60 59 57 56 55 56 56 57 58 59 62 64 64 63 63 62 62
19 22 22 22 24 26 27 27 28 30 32 35 36 39 40 42 44 46 48 48 48 45 39 38 36 38 43 48 54 57 58 59 58 58 57 56 56 57 58 57 58 58 59 61 63 62 63 62 62
25 24 25 25 27 28 29 29 29 30 35 36 38 40 41 42 44 45 47 48 49 46 45 40 37 38 48 54 56 57 56 57 57 57 58 57 57 57 57 58 58 59 58 58 59 59 60 60 62
27 26 26 26 28 29 29 29 30 31 36 37 38 40 42 44 44 46 48 49 50 50 49 49 47 51 55 57 58 57 57 58 58 58 58 58 58 58 58 58 58 58 60 59 58 59 59 60 60
27 25 26 28 29 31 30 26 27 31 36 35 37 40 41 43 45 46 47 48 49 50 52 54 55 56 56 57 58 57 58 58 57 57 58 58 58 59 59 59 59 59 60 60 59 60 59 58 59
26 27 28 29 29 25 30 23 26 28 31 33 35 38 39 41 43 44 45 46 47 48 50 51 52 52 53 54 54 55 55 54 55 56 57 57 58 57 58 59 60 61 61 61 60 60 59 58 57
28 29 29 30 29 30 27 27 25 28 28 31 34 37 39 40 42 43 43 44 45 46 47 47 48 49 50 50 51 53 56 56 57 57 57 56 56 57 59 59 60 60 61 61 60 60 59 59 58
31 31 32 31 30 25 26 26 24 27 30 33 36 39 40 41 41 41 42 42 43 44 45 44 44 44 45 46 46 47 48 51 51 51 51 51 53 53 53 55 60 60 60 60 60 59 59 58 57
33 30 25 23 23 22 26 26 25 32 37 38 38 38 39 40 40 40 40 41 41 42 42 42 41 41 42 43 44 44 45 46 46 46 47 47 48 49 49 52 53 58 60 60 59 58 58 57 57
33 33 27 20 21 23 28 25 30 37 38 37 37 38 38 39 39 39 39 40 41 41 41 41 41 40 41 41 41 42 43 44 44 44 44 44 45 46 47 49 50 51 52 55 59 59 58 58 57
35 30 35 29 27 26 26 32 36 37 36 36 35 37 37 38 39 39 39 40 40 40 40 41 40 39 38 39 40 40 40 40 41 41 42 42 43 43 45 46 46 47 49 50 52 53 54 57 57
34 35 29 30 22 20 23 27 29 32 32 34 34 35 35 38 38 39 38 38 38 39 39 40 39 35 34 35 32 32 33 34 31 31 31 32 34 37 39 41 43 44 45 46 48 49 49 51 52
34 31 30 30 28 23 20 24 36 34 34 33 35 36 36 38 38 38 38 36 35 37 34 35 33 30 27 27 28 26 26 27 26 25 25 27 27 27 28 30 35 39 41 43 44 44 44 45 46
31 28 25 24 24 24 23 23 36 37 37 36 36 37 38 38 38 36 35 33 32 31 29 32 32 27 26 23 22 23 22 22 21 22 23 22 22 23 24 25 26 27 32 35 37 39 40 41 42

GFSSGP_sfc_30mbdewp_108.txt.gz
Dewpoint
55 52 52 48 38 32 25 19 25 29 28 33 34 33 32 49 52 52 60 60 63 65 69 69 71 72 72 72 72 71 71 72 71 71 71 71 70 68 67 66 67 68 67 68 68 69 69 69 66
54 49 50 44 34 23 18 25 27 32 33 33 31 33 32 46 45 54 54 59 63 65 68 69 70 70 71 72 71 71 71 71 70 70 70 70 70 69 68 67 66 68 69 68 69 69 68 66 65
53 51 46 39 24 22 25 28 34 31 31 32 30 33 44 43 43 44 46 59 63 65 68 69 69 70 70 70 71 71 71 71 70 69 69 70 69 69 69 68 67 68 69 68 69 69 68 66 64
49 49 44 32 24 26 27 33 33 31 30 30 30 40 44 41 41 39 42 52 63 64 67 68 69 69 69 70 70 70 71 70 70 70 70 70 70 69 68 68 68 69 69 68 68 68 68 67 66
49 44 30 21 22 26 32 32 31 29 29 28 28 29 41 36 38 39 40 44 59 63 65 68 69 69 70 69 69 69 69 70 70 69 69 69 69 69 68 68 68 69 69 68 68 67 66 65 64
42 37 27 23 21 26 30 29 29 26 26 25 26 27 39 37 37 38 40 41 45 62 64 65 68 68 69 69 69 69 69 69 70 69 69 69 69 69 69 68 68 69 69 68 68 67 66 64 64
40 27 20 18 21 21 25 26 23 23 23 25 26 23 41 36 35 35 38 40 42 47 57 64 65 67 68 69 69 69 69 69 69 69 69 68 69 69 69 69 68 69 69 68 67 68 67 66 65
35 23 16 13 15 24 27 26 27 25 24 25 25 19 26 28 26 31 36 39 40 42 45 44 61 65 67 67 68 69 69 68 68 68 68 68 68 68 69 69 69 68 69 68 67 67 67 67 67
34 23 16 17 16 26 26 25 27 28 25 23 22 22 22 21 23 29 33 35 37 39 41 41 45 62 65 66 67 68 68 68 68 68 68 67 67 67 68 68 67 67 68 68 67 67 67 67 67
26 19 24 26 26 26 26 25 23 22 21 20 20 21 21 21 22 25 28 31 34 36 37 37 41 45 64 65 66 67 67 66 66 65 65 65 64 63 65 66 66 67 67 68 68 67 67 67 66
24 25 24 27 31 27 24 22 22 22 21 20 17 18 19 21 22 24 27 30 32 31 34 37 39 41 53 64 64 66 66 65 64 63 63 64 64 65 64 64 65 66 66 67 67 67 66 67 65
23 26 25 28 30 27 24 22 20 18 18 18 18 18 19 20 22 24 25 27 28 32 35 37 38 41 43 61 63 64 65 65 63 61 61 64 65 66 65 65 65 65 65 65 65 65 65 64 62
22 26 27 27 27 24 21 20 19 17 18 18 19 21 22 24 25 27 29 30 30 31 34 37 39 40 41 48 62 63 64 64 63 61 59 61 64 64 65 65 65 65 65 65 64 64 63 63 62
26 27 23 22 22 21 21 20 18 17 20 22 26 28 28 29 30 31 31 31 33 34 34 36 38 41 42 42 60 62 63 63 63 61 59 59 61 62 63 62 62 62 63 64 64 64 64 63 64
24 21 22 22 22 22 26 23 22 21 18 21 28 28 30 32 33 33 35 37 39 40 37 37 38 39 40 40 47 62 62 63 63 62 60 59 58 59 59 61 60 60 60 60 61 63 63 63 62
22 19 18 21 23 27 27 12 23 18 22 28 29 32 36 38 40 41 43 44 46 46 47 46 44 39 40 40 43 58 61 63 63 63 61 59 59 59 58 58 58 59 59 59 60 61 61 62 62
19 27 19 22 24 25 27 23 25 27 27 29 30 35 37 39 42 45 46 47 48 49 48 49 49 47 41 38 40 45 61 63 63 63 62 61 60 58 58 57 56 56 57 58 59 61 62 62 62
22 19 20 17 26 26 26 26 27 28 28 29 32 34 36 40 42 45 47 48 48 49 50 50 51 51 46 40 39 42 55 61 62 62 62 61 58 57 56 56 55 56 56 57 59 60 61 61 62
21 19 22 24 26 28 28 28 28 29 29 31 34 35 37 40 42 43 45 45 47 46 48 49 51 52 53 42 38 41 46 53 60 61 60 59 58 57 57 57 57 57 56 56 57 57 59 59 61
24 23 25 27 28 28 28 29 31 31 32 34 34 36 38 39 40 42 44 45 45 46 47 48 49 51 52 54 50 41 51 54 56 58 59 59 59 59 59 58 58 58 58 57 57 57 57 58 59
25 23 24 27 30 30 30 29 28 30 34 35 34 36 39 39 40 40 41 43 44 44 46 47 49 50 51 52 55 53 53 55 56 58 58 58 57 56 56 56 57 58 59 58 58 58 57 57 58
26 26 27 29 28 27 29 20 28 30 31 32 34 37 39 40 40 40 41 42 43 44 45 46 48 48 49 50 52 51 53 53 55 56 56 56 55 53 52 52 53 54 55 57 59 59 58 58 56
29 30 30 30 28 28 28 26 28 28 27 31 36 39 39 40 40 40 41 41 42 43 44 44 45 45 47 48 49 50 50 50 49 50 50 50 51 50 49 50 51 51 51 52 52 56 58 58 57
30 31 31 29 28 24 27 27 25 28 30 34 37 38 39 40 40 40 40 40 41 42 42 42 41 41 42 44 46 47 46 46 46 45 45 45 46 47 46 47 48 49 49 49 50 51 55 58 58
31 29 26 25 24 24 27 25 25 33 36 36 37 37 38 39 39 39 40 40 40 41 41 41 40 39 38 40 41 42 44 43 43 44 44 42 43 44 44 45 46 47 47 48 48 48 48 49 51
31 31 26 20 21 24 27 24 27 36 37 37 37 37 38 38 39 39 40 40 40 40 41 41 40 37 36 35 35 36 37 39 38 37 41 41 38 39 39 42 44 45 46 46 47 46 46 47 47
33 31 33 28 27 24 25 29 35 37 36 35 35 36 37 38 38 39 39 39 39 40 39 40 39 34 33 31 30 30 31 31 31 30 31 30 30 28 31 30 31 37 41 42 43 42 43 43 44
34 33 29 30 22 22 25 28 29 34 35 36 35 35 36 38 38 39 39 38 38 39 35 36 30 27 25 24 24 23 24 24 23 23 21 22 22 22 24 25 26 27 29 31 34 39 39 39 41
31 29 29 27 26 22 22 25 34 34 35 34 34 34 35 37 38 39 39 38 35 33 31 29 29 24 24 22 22 22 22 21 21 20 20 20 21 20 20 21 23 23 24 27 30 30 30 31 34
31 29 27 22 26 26 23 22 35 36 36 36 35 35 36 38 39 39 38 35 32 29 27 24 28 24 23 22 20 20 20 20 19 19 20 20 19 20 19 19 19 20 22 22 25 27 29 28 29

GFSSGP_sfc_30mbdewp_111.txt.gz
Dewpoint
55 54 53 50 34 34 28 22 29 28 31 32 33 41 47 46 54 50 58 62 63 65 69 69 70 71 72 72 71 71 72 71 71 71 71 70 70 68 66 67 67 67 67 67 68 68 69 67 66
53 53 50 46 35 22 20 30 31 32 32 32 31 33 43 44 47 48 48 50 64 65 68 69 69 70 71 72 70 70 70 71 70 70 70 70 70 69 68 67 66 68 69 68 69 69 69 66 65
53 53 47 41 28 24 28 32 29 30 30 30 30 44 44 41 40 42 41 51 63 65 67 69 69 69 69 70 71 71 70 70 70 70 70 70 70 70 69 68 67 67 69 68 69 69 68 66 65
49 49 43 33 27 28 32 32 30 29 30 30 33 40 41 39 38 39 40 45 62 63 66 69 70 68 68 69 69 70 71 70 70 70 70 70 70 68 69 69 68 68 69 68 68 69 68 66 65
50 45 31 22 23 31 30 30 28 29 28 27 28 36 36 38 38 39 40 41 52 62 64 66 69 69 68 69 69 69 69 69 70 70 69 70 69 69 69 69 69 69 69 68 68 68 68 67 66
43 37 29 23 25 29 26 25 26 26 25 25 26 34 37 37 34 37 40 40 45 49 58 63 66 67 69 68 69 69 68 68 69 69 69 70 69 69 69 69 68 69 69 68 68 67 67 66 65
40 28 23 22 24 24 26 26 25 24 25 25 26 27 36 34 35 36 38 38 41 45 45 44 61 65 67 68 68 68 68 69 69 68 68 69 69 69 69 69 69 69 69 69 69 68 67 65 64
34 24 17 14 19 26 26 27 27 27 25 25 24 20 37 27 31 34 34 36 39 40 43 40 46 60 65 67 67 68 68 68 67 67 68 68 68 68 69 69 69 69 69 69 68 69 68 67 66
33 21 18 24 24 25 26 26 27 27 24 23 22 21 22 23 25 26 30 31 34 37 39 36 41 42 58 65 67 67 67 68 68 68 68 68 67 67 67 68 68 68 68 69 68 68 68 68 67
25 23 25 28 28 26 26 24 22 21 22 21 20 19 20 22 22 23 25 27 31 31 30 35 36 40 43 61 64 66 67 67 67 66 66 65 65 66 66 67 67 67 68 68 69 68 67 67 67
25 24 27 32 29 26 23 22 22 22 19 19 17 18 19 20 21 23 25 27 28 29 32 35 36 37 40 47 61 64 66 66 66 65 64 64 64 64 64 64 66 66 67 67 68 68 67 67 66
22 27 28 30 29 26 24 21 19 20 19 20 18 20 20 21 22 24 25 28 30 31 33 36 38 38 40 42 52 62 64 64 65 63 63 62 64 65 66 65 65 66 66 66 66 67 66 66 66
24 26 27 28 26 24 23 20 20 19 19 19 23 25 25 25 26 30 32 32 34 34 35 36 38 40 40 41 44 58 62 63 64 64 61 61 62 64 65 65 65 65 66 66 65 65 65 65 64
28 26 24 22 22 21 20 21 23 17 20 22 24 28 29 31 33 34 36 38 43 44 45 42 42 39 40 41 41 48 62 63 63 64 62 60 60 62 62 63 63 63 63 65 65 64 64 64 64
23 19 22 22 22 22 26 20 21 19 20 20 28 31 36 38 41 43 46 47 48 49 49 50 50 50 45 41 41 43 55 62 60 63 63 61 60 60 61 61 61 61 60 61 61 63 64 64 64
21 18 16 22 22 26 25 2 24 22 19 26 30 37 38 43 45 47 47 48 48 48 49 49 50 51 52 50 42 41 49 59 59 61 63 63 60 60 60 59 60 60 59 59 59 60 61 62 62
19 22 18 21 24 26 26 17 22 23 27 27 31 36 37 42 44 45 46 46 47 47 48 48 49 51 52 53 48 41 42 54 61 61 63 63 62 61 59 58 58 57 57 58 58 59 60 60 60
18 17 20 18 25 26 26 25 26 27 29 28 32 36 40 40 42 44 45 45 46 46 47 48 48 49 51 53 51 44 42 47 58 62 62 62 62 61 59 58 58 57 56 56 57 58 60 59 59
21 20 21 24 28 26 25 27 29 30 30 31 34 37 38 39 41 43 44 44 45 45 45 46 47 49 49 50 51 51 46 43 51 59 59 60 61 60 59 58 58 58 57 57 57 57 57 58 60
23 22 25 29 30 29 28 29 30 32 32 34 35 37 39 40 40 41 41 42 44 44 45 46 47 48 49 49 50 53 52 52 52 56 58 59 59 58 58 57 57 57 58 58 58 57 57 57 58
25 24 27 27 30 31 28 26 29 32 34 34 35 39 40 39 40 40 41 42 43 43 44 45 47 47 48 49 50 52 53 53 53 54 56 55 54 53 53 53 54 54 54 54 55 57 58 57 57
25 28 28 30 28 20 29 13 27 29 32 35 37 39 39 39 39 40 41 41 42 42 44 44 44 44 44 46 48 50 50 50 51 52 51 52 51 50 50 51 51 52 52 51 52 52 52 54 55
29 31 30 30 28 26 26 25 24 30 29 33 38 39 39 39 40 39 40 41 42 42 42 43 42 41 42 43 44 47 47 48 48 48 48 48 48 47 47 48 48 49 49 49 49 49 49 50 51
32 31 31 29 28 23 25 26 24 27 28 34 37 38 39 39 39 40 40 41 41 42 41 41 39 38 38 39 41 43 43 44 44 44 43 43 44 44 44 45 46 47 47 47 48 48 47 47 47
30 28 24 23 23 19 28 26 25 30 35 36 36 37 37 39 39 39 40 40 41 40 41 39 39 35 35 35 35 35 37 39 38 40 41 38 38 36 37 42 44 45 46 45 47 46 46 46 45
31 30 25 19 22 23 27 23 22 35 37 37 37 36 37 38 39 39 39 40 40 40 40 40 38 32 31 30 31 32 32 33 33 33 32 31 30 32 34 32 34 36 41 44 43 43 43 43 44
31 29 33 27 27 24 22 27 33 37 36 36 35 35 36 37 38 39 39 39 39 40 38 39 33 31 30 26 26 26 26 25 26 25 27 29 27 24 26 28 28 29 31 33 36 40 39 40 41
34 33 28 28 21 19 22 25 26 33 34 36 35 35 36 36 38 39 39 39 39 38 34 33 28 24 24 23 22 22 22 22 21 21 20 20 21 22 22 23 24 25 26 27 32 33 35 34 38
31 29 29 27 25 20 20 20 34 30 34 34 35 35 35 36 37 38 40 40 38 36 30 28 30 24 22 22 21 21 21 21 20 20 20 20 20 20 20 20 20 20 21 23 25 26 28 29 30
31 28 28 23 25 25 24 22 35 34 35 35 35 35 36 36 37 39 39 38 37 32 27 25 27 25 23 22 21 20 20 20 20 21 21 21 20 20 19 19 19 19 19 21 23 23 25 26 27

GFSSGP_sfc_30mbdewp_117.txt.gz
Dewpoint
53 53 53 45 25 25 19 23 31 30 31 41 47 49 49 49 49 42 55 51 62 65 67 69 69 69 69 70 70 70 71 71 70 70 70 69 68 67 67 66 67 67 67 68 68 68 67 68 68
52 53 48 40 18 12 21 31 30 31 35 42 44 45 44 45 44 42 47 47 61 64 66 69 69 69 69 70 70 70 71 71 70 70 70 70 70 68 67 67 67 68 69 69 68 69 68 67 68
51 52 43 32 28 14 26 31 29 29 30 31 42 42 39 40 39 39 40 48 61 62 66 69 68 68 68 69 69 69 69 70 70 70 70 70 70 70 69 68 67 67 69 68 68 69 68 67 66
49 46 37 26 26 30 32 30 30 29 28 32 41 38 37 38 38 39 41 46 50 52 58 66 69 68 68 69 68 69 70 70 70 70 69 70 70 70 69 69 69 68 68 68 69 69 68 67 66
48 36 27 28 30 29 26 26 28 27 26 33 36 36 36 37 39 39 39 43 45 45 44 52 63 67 69 68 67 68 68 69 69 69 69 69 69 69 69 69 69 68 68 69 69 69 68 67 66
40 34 23 25 30 27 25 26 24 25 25 26 36 37 35 37 35 38 38 39 42 43 41 39 46 49 61 67 68 68 67 68 68 69 68 69 69 69 69 69 68 69 69 69 69 69 68 67 66
35 29 24 27 27 26 25 27 25 25 24 23 27 36 34 33 36 35 34 34 35 39 35 34 38 40 46 55 64 68 68 68 68 68 68 68 68 68 68 68 69 68 69 69 69 69 69 68 67
31 23 21 25 26 26 26 26 27 25 22 25 24 34 33 28 33 28 30 31 32 33 32 33 36 37 40 43 55 61 66 68 68 68 68 67 67 68 68 68 69 69 69 69 69 69 69 68 68
28 20 19 24 25 25 26 25 24 25 22 22 21 22 22 24 25 25 27 28 30 32 33 36 37 37 38 39 49 52 60 64 67 67 67 67 67 67 67 67 67 68 68 69 69 69 69 68 67
24 23 25 28 26 25 24 22 22 20 21 20 18 19 21 22 24 26 26 29 30 34 40 43 43 41 40 40 42 47 53 58 64 66 66 66 66 67 67 67 66 67 67 68 69 69 69 68 67
27 24 29 28 26 25 22 21 21 19 16 18 17 18 20 24 26 28 30 34 38 43 47 49 49 48 46 45 44 42 47 52 57 63 64 65 65 64 64 64 64 65 66 66 67 68 69 68 67
25 29 29 28 26 23 20 21 18 20 18 19 18 20 25 26 29 34 43 46 47 48 49 49 50 50 50 48 48 46 45 49 53 57 63 63 64 63 64 64 65 64 65 65 66 67 67 67 67
26 28 29 27 23 22 21 17 17 16 19 20 19 26 28 33 42 46 47 47 47 47 48 48 49 50 51 51 50 49 48 48 48 54 60 63 62 62 63 63 64 65 65 65 65 66 66 66 66
27 27 24 22 21 23 17 19 22 15 19 18 23 30 38 42 46 46 46 45 45 46 46 47 48 50 51 50 51 51 50 48 49 52 56 58 62 61 61 62 62 63 65 65 66 65 65 65 65
23 20 21 21 21 23 25 14 15 18 21 21 30 39 45 46 46 45 45 45 45 45 46 46 48 48 49 49 50 52 52 49 48 49 52 54 59 61 61 61 61 61 63 63 64 64 64 64 64
18 18 9 21 21 26 19 -3 17 22 20 19 32 42 45 45 44 45 45 44 45 44 45 46 47 48 48 48 50 51 51 51 49 49 51 53 55 59 61 61 61 61 61 61 61 61 61 62 62
19 7 14 20 24 26 23 7 22 22 20 26 28 41 44 43 43 44 44 43 43 44 45 45 46 46 47 48 48 49 50 52 51 51 53 55 57 59 61 61 61 60 60 60 59 59 59 59 59
8 19 18 18 24 25 24 22 23 26 24 25 28 37 42 42 42 43 42 42 43 44 45 45 45 45 46 47 47 48 49 51 53 54 56 57 56 58 59 60 61 60 59 59 58 58 58 58 58
18 20 19 24 27 27 25 25 25 26 27 27 29 34 40 41 43 42 42 42 43 43 44 44 44 44 45 46 47 48 48 49 53 54 53 53 54 55 55 56 57 58 58 58 58 57 57 57 58
21 19 23 29 29 29 28 26 28 30 31 31 32 36 39 40 40 41 41 41 42 42 43 43 42 43 44 45 47 49 50 52 52 53 51 50 51 52 52 54 54 54 55 54 53 52 55 56 57
26 23 26 24 29 31 27 15 27 33 34 35 36 38 39 39 39 39 40 40 41 41 42 42 41 41 41 43 46 47 48 48 48 49 49 48 47 49 50 50 51 52 52 51 50 51 50 50 52
20 29 30 29 23 7 28 3 17 29 32 34 37 38 39 39 39 39 40 40 41 41 41 40 39 38 38 40 43 44 45 44 44 45 44 44 43 44 45 46 47 48 49 49 49 49 48 49 47
27 31 31 30 27 24 24 19 19 29 28 32 35 38 38 39 39 39 39 40 41 41 40 40 37 35 36 36 38 39 38 41 42 42 40 42 40 37 39 43 44 44 44 46 46 46 46 46 46
32 31 29 29 25 13 22 24 19 24 27 29 35 37 38 39 39 39 40 40 41 41 39 38 34 31 32 34 34 34 34 33 33 33 32 34 34 35 34 35 37 39 42 42 42 40 42 41 43
29 27 11 9 16 7 25 26 23 25 28 31 33 37 38 38 38 38 39 39 40 40 39 38 36 29 29 29 29 30 31 32 32 32 31 30 30 30 31 32 32 32 34 36 40 40 40 40 39
30 26 12 -5 13 22 25 23 20 30 35 37 37 37 37 37 38 38 39 39 40 40 39 38 36 31 28 25 26 28 27 28 27 26 27 27 28 28 28 29 29 29 29 32 33 37 34 38 39
29 26 30 24 24 23 21 23 25 33 34 36 36 36 35 36 37 38 38 39 39 40 39 36 36 25 24 22 23 22 23 22 21 21 22 22 22 22 23 22 23 23 24 28 28 30 26 30 31
31 33 25 25 17 15 18 20 20 29 29 34 35 36 35 36 37 37 38 38 39 40 39 36 34 26 22 23 21 21 21 20 21 21 21 21 20 20 20 20 20 20 20 24 24 25 26 24 25
32 29 29 26 24 18 14 9 24 28 29 27 31 35 36 36 36 36 38 39 40 39 37 35 29 28 23 22 21 20 20 20 21 21 22 21 19 20 19 19 19 19 19 20 23 24 25 24 24
32 29 28 22 20 24 22 17 26 33 30 32 31 33 35 36 36 37 38 39 39 38 37 36 29 27 26 23 21 21 21 21 21 22 22 21 19 19 19 19 19 20 20 20 22 22 24 24 24

GFSSGP_sfc_30mbdewp_120.txt.gz
Dewpoint
54 53 52 41 16 19 19 22 31 30 43 49 47 48 49 47 46 40 55 50 57 63 66 69 69 68 69 70 70 70 69 70 70 70 70 70 68 67 66 66 67 67 67 68 68 68 66 68 68
52 52 45 37 14 8 19 29 30 31 44 44 44 44 44 45 43 43 49 45 60 62 65 69 68 68 68 69 70 70 69 69 70 70 70 70 70 68 68 67 67 68 68 69 68 67 67 69 68
51 50 39 29 17 4 23 31 29 29 34 33 41 39 40 40 39 40 40 46 49 45 54 67 69 68 68 68 69 69 69 69 70 70 70 69 70 70 68 68 67 67 68 69 68 68 68 67 67
50 44 34 24 23 29 31 30 30 29 28 38 40 38 37 38 38 39 40 45 44 42 43 52 60 67 69 68 68 67 69 70 69 69 69 69 69 70 69 69 69 69 67 69 69 68 68 68 67
44 35 28 28 30 29 26 26 27 26 31 35 37 36 35 37 39 39 39 41 42 42 39 41 48 50 60 67 69 69 67 68 69 69 69 69 69 69 69 69 68 69 68 68 69 69 69 68 67
38 31 24 26 29 26 25 26 25 25 26 26 37 35 35 37 36 36 36 35 39 37 34 35 41 46 49 51 61 66 68 69 68 68 68 69 69 69 69 69 69 68 69 68 69 69 69 68 67
33 27 23 29 27 25 25 27 25 25 24 24 34 34 34 33 36 33 31 33 34 34 34 36 37 41 43 46 53 56 63 66 69 68 68 67 68 68 68 69 69 69 69 69 69 69 69 69 68
30 23 26 27 26 26 26 26 26 24 22 25 29 32 29 30 30 27 29 31 32 36 41 41 41 40 41 41 48 52 55 60 64 67 67 67 67 67 68 68 68 69 69 69 69 69 69 69 68
28 20 25 26 27 25 26 24 24 25 22 21 20 24 25 25 25 26 29 32 36 44 46 48 48 47 45 42 44 46 48 53 58 63 65 66 67 67 67 67 67 67 68 68 69 68 69 68 68
24 21 24 27 26 25 24 22 22 21 20 18 17 19 22 23 27 28 31 36 43 46 48 49 50 49 48 48 49 47 46 47 51 57 63 64 65 65 66 66 66 66 67 67 68 68 68 69 68
27 22 28 27 26 24 22 21 21 19 19 19 17 18 20 26 29 34 41 43 46 48 48 49 49 50 50 50 50 49 49 49 50 51 56 62 63 64 64 64 64 64 64 64 66 67 68 68 67
26 30 29 28 25 22 20 20 18 19 17 19 18 21 26 29 37 45 46 47 46 46 47 48 49 50 50 51 50 50 49 50 49 49 52 57 62 63 62 63 64 64 64 64 65 66 66 67 67
27 28 28 24 22 22 19 17 16 15 20 21 20 28 31 39 45 47 46 46 45 44 46 46 48 49 49 50 50 50 51 50 49 50 51 55 56 59 61 62 63 64 64 64 64 65 65 65 66
28 26 22 22 22 23 15 18 21 15 19 19 22 32 38 44 45 46 45 44 43 44 45 46 47 48 49 49 49 50 52 51 49 50 50 50 53 56 59 60 61 62 63 64 64 64 65 65 64
23 19 20 22 21 23 25 12 13 17 20 22 31 40 44 45 45 44 44 44 44 43 45 45 46 48 47 48 49 50 50 51 51 50 51 51 52 54 56 59 60 60 61 62 62 63 64 62 63
17 16 8 21 21 27 16 -6 18 21 19 22 33 42 44 45 44 44 44 43 43 43 44 45 45 46 46 47 48 48 49 51 52 53 53 54 56 57 58 59 60 61 61 61 61 60 61 61 61
17 6 13 18 24 25 22 4 19 22 19 21 28 41 44 43 43 43 42 42 43 43 44 45 45 44 45 47 48 48 49 51 53 54 54 54 55 55 57 58 59 60 60 60 60 59 59 59 59
8 12 16 16 23 25 23 20 22 24 21 21 26 33 43 42 42 42 41 42 42 43 44 44 43 44 44 46 47 49 49 51 54 53 52 52 52 54 55 56 57 58 59 59 59 58 58 58 58
19 16 15 24 27 27 23 23 23 25 27 26 24 28 40 42 43 42 41 42 42 42 42 43 42 43 43 44 46 48 49 51 51 52 50 49 50 51 52 54 54 55 55 54 53 56 57 57 56
20 18 23 29 29 29 27 24 26 28 29 29 28 28 35 41 41 41 41 41 41 41 41 42 41 41 41 43 45 48 49 50 50 49 49 46 46 47 48 50 51 51 52 51 51 52 53 54 53
26 21 23 22 28 30 26 13 17 32 34 35 34 34 38 40 40 39 39 40 40 40 41 40 39 38 39 41 45 47 47 47 45 45 43 42 42 43 45 45 46 48 49 49 49 49 48 50 51
18 30 30 28 20 4 26 2 9 24 30 34 35 36 38 39 39 39 39 39 40 40 40 39 37 36 36 37 40 42 43 41 42 42 42 40 38 38 40 43 44 43 45 45 45 47 47 47 46
26 31 30 29 25 22 22 15 10 28 25 29 34 37 38 38 39 39 39 39 41 40 39 37 34 32 33 34 36 35 33 35 35 36 33 34 35 35 35 36 37 40 42 43 41 42 41 44 43
32 30 26 26 24 9 20 21 13 20 24 28 32 36 37 38 39 39 39 40 40 40 38 37 31 29 30 30 31 32 31 32 31 31 30 31 31 32 31 32 32 33 35 38 42 40 40 39 40
28 26 6 7 11 6 24 25 20 24 27 30 31 34 37 38 38 38 38 39 40 40 38 37 35 29 28 27 27 28 28 28 28 29 28 28 29 29 30 31 30 30 33 33 36 38 37 39 39
29 25 9 -6 4 19 25 22 20 28 34 35 36 36 37 38 38 38 38 38 39 40 39 37 36 30 26 24 25 25 25 25 25 25 24 23 23 24 24 24 25 25 28 28 30 28 28 31 32
29 25 27 22 24 21 18 21 23 28 31 35 35 36 36 36 36 37 38 38 39 39 40 38 35 27 24 22 22 21 22 22 21 21 22 21 22 21 22 22 22 22 23 26 26 26 24 24 26
30 31 23 23 14 12 16 18 16 26 29 32 33 35 36 36 36 37 37 38 38 39 40 38 34 31 22 23 21 21 21 20 21 21 21 20 19 20 20 20 20 21 21 24 25 26 26 24 25
31 29 28 26 23 17 12 6 22 26 28 25 28 33 35 36 36 36 37 37 38 39 39 37 34 30 25 22 22 21 20 20 21 21 22 20 19 19 19 19 19 20 20 20 23 23 25 24 24
31 29 27 21 19 24 22 14 24 29 30 30 29 31 34 36 36 36 36 37 38 38 38 37 35 29 28 24 22 21 21 21 21 22 22 20 18 19 20 19 20 20 20 20 20 22 24 24 24

GFSSGP_sfc_30mbdewp_123.txt.gz
Dewpoint
53 53 51 38 14 18 18 22 30 31 45 49 47 48 48 47 47 43 55 48 58 60 65 69 69 68 68 69 70 70 69 69 69 69 69 70 67 67 66 66 67 67 67 68 68 67 67 68 68
52 51 43 33 11 6 17 27 30 32 47 45 43 44 45 46 43 45 49 45 48 48 60 66 69 68 68 68 69 69 69 69 70 69 70 70 69 68 68 67 67 67 68 69 69 68 67 69 69
52 48 36 21 13 1 19 31 30 34 45 37 40 39 41 40 39 40 41 46 43 39 46 56 61 68 69 69 68 69 69 69 70 70 69 70 70 70 69 68 68 67 67 68 69 68 68 68 69
51 43 33 21 17 27 30 30 29 31 33 40 40 38 37 39 38 39 41 43 41 38 35 48 52 56 64 69 70 69 68 69 69 69 69 69 69 69 69 69 69 69 68 67 69 68 68 68 68
41 34 27 27 29 31 28 27 28 27 33 37 37 36 34 37 39 38 38 37 39 34 36 40 49 50 51 56 64 67 69 69 69 68 68 68 68 69 69 70 69 69 69 67 68 69 68 68 67
38 30 24 22 29 26 25 26 25 28 27 31 36 35 35 37 37 34 34 35 37 37 40 41 44 48 48 51 55 56 62 66 69 69 68 68 67 67 68 69 68 69 69 69 68 69 69 69 68
34 26 24 29 27 25 25 27 25 25 24 26 38 32 34 34 36 33 33 35 41 47 48 47 46 47 46 48 52 52 54 56 62 67 68 68 68 68 68 68 68 68 68 68 68 69 69 69 69
31 27 28 28 26 26 26 26 26 24 23 25 30 31 29 32 29 31 35 38 46 48 50 50 50 49 49 48 52 51 51 51 54 59 64 64 66 67 67 67 67 68 68 68 68 68 68 68 68
27 25 27 28 27 26 26 24 24 24 22 19 20 26 28 25 28 31 35 44 47 48 49 49 50 49 50 49 50 50 51 51 50 52 56 62 63 65 66 66 67 67 67 68 68 68 68 68 68
24 22 26 28 27 26 25 23 22 21 19 18 19 21 23 28 30 33 39 45 47 47 48 48 50 49 50 48 50 50 49 50 50 49 49 50 60 64 64 64 64 64 65 65 66 67 68 67 66
28 21 28 27 26 25 22 21 22 20 19 18 18 19 23 29 35 42 45 46 47 47 47 47 49 49 49 49 50 49 49 51 50 50 50 50 53 58 61 63 63 64 64 64 64 65 65 65 66
26 30 29 28 24 22 20 20 19 18 18 19 19 21 27 33 42 45 46 46 45 45 46 47 48 49 49 49 49 49 50 50 50 50 51 52 53 52 51 54 60 63 64 64 64 65 65 65 66
28 28 24 23 22 21 18 17 16 17 20 20 24 29 31 41 45 46 46 45 44 44 45 46 48 48 47 48 49 49 50 51 51 50 51 51 50 50 52 52 57 59 60 63 64 64 64 64 65
28 23 21 22 23 24 14 17 19 15 19 20 26 31 39 43 45 45 44 43 43 43 44 46 47 48 47 48 49 49 50 51 52 53 53 53 51 51 52 52 53 54 56 59 63 63 64 64 64
22 18 19 22 22 23 25 9 11 17 19 19 29 39 44 45 44 44 44 43 43 43 44 45 45 46 46 47 48 49 50 51 52 53 54 55 56 57 56 57 57 58 60 60 61 62 63 63 63
16 14 11 20 21 27 11 -2 16 20 21 25 33 41 44 44 44 44 43 42 43 43 44 45 45 44 45 46 48 48 50 51 53 53 54 54 54 55 55 55 56 58 58 59 60 60 61 61 62
16 11 11 16 24 24 17 3 13 22 19 21 31 40 43 44 44 43 42 42 42 43 43 44 44 43 43 46 47 49 50 52 53 52 52 51 51 52 54 54 56 56 57 58 59 59 59 59 59
10 10 15 14 22 24 21 16 21 23 20 19 25 31 42 43 43 43 41 42 42 42 43 43 42 42 42 45 47 49 49 52 53 50 49 49 50 51 52 54 54 56 55 54 55 57 58 58 57
17 12 14 24 28 27 22 22 21 23 25 24 23 23 32 42 43 42 42 41 42 41 42 41 41 40 41 43 46 47 49 50 50 50 46 46 47 48 49 51 52 53 52 51 51 53 55 55 54
18 16 22 28 30 28 27 22 23 26 26 27 26 26 26 38 42 41 41 41 41 41 41 40 38 38 39 41 44 47 48 48 48 46 42 41 42 44 43 46 48 49 50 49 49 49 52 53 53
26 18 21 19 27 28 25 12 10 28 32 34 34 33 31 34 41 41 40 40 41 40 40 39 37 36 37 39 44 46 47 44 42 40 39 37 36 39 42 43 42 44 45 45 47 47 47 49 50
19 30 29 25 17 0 24 -0 8 18 26 33 34 35 36 38 40 40 40 40 40 41 40 38 35 35 34 37 38 41 40 38 40 40 37 35 34 34 35 36 39 41 42 42 41 40 44 46 45
28 31 29 27 23 20 19 13 9 24 20 24 32 35 37 39 39 39 40 40 41 41 40 37 33 32 33 34 36 35 33 35 35 35 33 33 32 32 32 31 32 34 35 40 39 39 38 40 39
32 27 25 24 22 6 20 19 10 14 21 27 31 35 37 38 39 39 39 40 40 41 39 36 31 30 31 30 31 32 31 32 31 31 31 31 30 30 30 30 30 31 31 32 37 34 37 38 38
28 21 5 7 6 5 24 24 18 22 25 29 30 32 36 38 38 39 39 39 40 41 39 37 36 30 28 27 27 28 28 29 28 29 28 27 27 26 25 27 26 27 29 29 29 27 30 31 37
28 22 6 3 -2 15 25 19 18 27 34 33 35 36 36 37 38 39 39 39 39 40 40 37 37 31 27 24 25 26 26 27 26 26 27 25 25 25 25 25 25 24 26 26 27 27 26 26 30
29 23 25 20 24 19 14 19 21 29 27 32 34 36 36 37 38 38 38 38 39 40 40 39 36 35 25 23 23 23 23 23 23 23 24 23 23 21 23 23 23 23 24 26 27 27 26 26 27
29 30 21 22 7 11 14 16 15 22 28 29 30 33 35 36 36 37 37 38 39 39 40 40 38 34 27 23 22 21 22 21 22 22 22 21 20 21 21 21 22 22 22 23 26 27 27 26 27
30 29 27 24 22 16 12 6 20 24 27 27 28 31 33 35 36 36 37 38 38 39 39 39 38 34 31 23 22 22 21 21 21 21 22 21 19 19 19 19 20 20 20 21 23 24 26 26 26
31 28 26 19 19 23 21 12 22 25 31 30 29 31 32 34 36 36 37 37 37 37 38 39 38 36 31 28 22 22 21 21 21 22 22 21 18 19 19 19 19 20 20 20 20 22 25 25 25

GFSSGP_sfc_30mbdewp_126.txt.gz
Dewpoint
54 52 52 39 16 13 14 20 29 31 39 44 46 46 47 48 47 46 54 52 51 59 64 67 69 68 68 69 69 69 69 69 69 69 69 69 67 67 67 66 66 67 67 68 68 67 66 68 68
52 51 45 30 11 3 13 26 28 37 46 46 45 47 46 47 50 50 49 47 46 50 59 60 67 69 69 69 69 69 69 69 69 69 69 70 69 68 68 67 66 67 68 69 69 68 67 68 69
52 49 35 17 10 0 15 28 31 45 41 42 42 43 46 46 43 42 42 43 42 39 46 54 58 63 69 70 70 69 69 69 69 69 69 69 70 70 69 68 68 68 67 67 68 69 68 68 69
49 42 33 16 6 23 28 30 36 40 37 41 42 40 40 40 39 39 39 37 35 35 37 48 53 54 58 64 67 69 69 69 69 69 69 68 69 69 69 69 69 69 69 68 67 69 69 68 69
44 37 21 18 24 30 30 31 38 33 34 40 38 37 38 38 37 36 34 33 33 36 39 41 51 52 53 57 58 61 66 68 69 69 68 68 67 68 68 68 69 69 69 69 67 69 68 68 68
38 31 14 14 23 28 29 29 30 31 35 37 35 35 36 38 33 33 34 37 43 44 45 45 47 51 51 54 54 54 56 60 64 68 69 69 69 68 67 68 68 68 68 69 68 68 68 69 68
34 27 16 21 25 27 28 28 28 30 31 35 36 34 35 35 34 34 37 43 46 48 48 47 47 48 48 52 55 54 54 53 55 59 64 65 67 68 68 68 68 68 68 68 68 67 67 67 68
34 29 26 25 24 26 27 27 27 28 26 31 34 31 32 35 31 36 41 45 46 48 48 49 49 48 48 47 51 53 53 53 52 52 53 60 63 66 67 66 67 67 68 68 68 68 68 68 67
30 25 23 27 26 27 27 26 26 24 25 22 27 30 32 31 30 34 40 45 45 46 47 48 49 48 48 46 48 48 48 50 49 47 47 48 57 62 63 65 65 65 66 67 67 68 68 67 66
28 24 27 30 29 28 26 26 24 22 21 23 25 25 26 28 30 35 41 44 45 46 47 47 49 48 47 45 47 46 46 47 47 47 46 43 46 52 57 62 63 64 65 65 65 65 66 66 62
30 25 29 28 27 28 25 23 23 23 22 22 25 23 26 30 35 39 44 46 47 47 46 46 47 48 48 47 48 46 46 47 46 48 49 48 45 45 45 49 56 60 60 62 64 64 63 62 62
28 30 29 28 26 24 24 23 21 22 22 21 22 22 27 32 38 42 44 45 46 46 45 46 47 47 47 47 47 47 46 48 47 47 49 49 48 46 44 42 43 50 56 59 60 61 62 62 62
29 26 25 25 23 21 21 20 19 20 20 20 23 27 29 36 41 44 45 45 44 43 45 46 47 47 46 47 48 48 48 48 49 50 51 51 50 49 47 44 44 44 45 51 55 59 60 62 63
29 24 22 23 23 23 18 18 18 17 20 21 27 29 34 39 42 44 44 43 42 42 43 45 46 47 46 48 49 49 49 50 51 53 53 53 52 52 51 50 48 47 46 48 50 54 58 60 62
23 21 20 22 23 24 22 13 13 17 19 20 25 31 38 42 44 43 44 42 41 42 43 44 44 45 46 47 49 49 50 51 51 51 53 53 54 54 54 55 54 53 52 51 51 52 56 60 60
18 20 19 21 23 27 18 11 15 19 17 17 24 34 40 42 43 44 42 41 42 42 42 43 43 44 45 47 48 49 50 50 50 49 52 52 52 53 53 53 52 53 52 52 52 52 55 57 58
18 23 18 17 25 24 18 10 14 21 20 19 24 33 39 41 43 43 42 42 41 41 42 42 43 43 43 46 48 50 50 50 50 48 49 50 51 52 52 53 52 53 53 53 55 53 54 56 57
17 19 15 16 23 24 20 14 17 22 19 17 20 27 36 39 42 43 42 42 42 42 42 42 42 42 42 46 47 49 49 50 50 49 48 49 49 50 52 52 53 53 53 53 53 53 55 56 54
17 18 18 23 29 26 20 21 20 20 23 19 17 21 28 37 41 44 43 42 42 42 41 41 40 40 41 44 46 47 47 48 49 48 45 45 45 46 48 50 51 52 51 51 50 51 52 53 53
16 17 22 27 30 26 24 19 18 20 22 22 21 20 22 28 39 43 43 42 41 42 41 40 39 38 40 43 45 47 47 47 47 44 42 40 39 41 41 43 44 45 47 47 48 49 49 51 52
22 15 19 21 26 26 23 10 16 21 25 27 28 28 28 28 30 40 42 41 42 42 41 39 37 35 38 40 44 48 48 45 42 39 36 33 33 35 36 37 39 40 39 38 38 40 44 47 48
19 29 26 23 17 12 24 11 13 15 19 30 31 34 34 35 34 39 41 41 42 42 42 39 36 34 33 37 39 41 41 39 36 35 33 32 31 31 32 32 33 34 38 38 36 36 38 38 37
27 30 27 25 21 21 18 18 11 19 15 20 26 34 36 37 38 40 41 41 41 42 42 39 34 32 32 33 36 36 34 34 33 32 31 31 30 29 29 28 28 29 30 35 34 34 34 36 35
31 26 26 25 23 15 21 19 11 16 20 27 30 32 36 38 40 41 41 41 41 42 42 39 33 31 30 30 31 32 33 32 30 29 28 27 26 24 24 24 24 25 25 27 26 27 29 29 33
28 24 17 16 13 18 25 23 14 22 25 28 31 33 36 38 39 40 40 41 41 41 42 40 36 33 30 28 27 28 29 29 28 27 26 25 24 22 23 24 23 22 24 25 25 25 25 25 27
27 24 23 12 11 19 25 20 20 27 34 30 33 35 37 37 39 40 41 41 41 41 42 40 38 35 31 26 25 27 27 27 26 26 25 23 22 22 23 22 22 22 22 23 24 25 24 25 27
27 25 25 22 23 18 18 19 23 27 29 28 34 36 37 38 39 40 41 41 41 40 41 41 38 37 33 27 24 23 23 24 24 25 25 23 22 19 19 22 22 22 22 23 24 24 24 25 26
29 29 23 24 12 12 18 18 23 24 29 29 30 32 34 37 38 39 40 40 40 40 40 42 41 37 34 26 22 21 21 22 22 22 22 22 20 19 19 19 20 20 21 21 23 24 25 24 26
29 28 27 24 24 18 10 9 22 25 28 28 28 30 31 34 36 38 39 39 39 39 39 40 41 39 36 30 22 21 21 22 21 21 22 22 20 17 16 16 17 17 17 17 18 20 22 23 24
31 28 24 18 20 22 20 13 21 25 30 31 30 32 33 34 34 35 37 37 37 38 38 38 39 40 39 34 26 21 21 22 22 21 22 22 20 17 16 16 16 16 17 18 17 17 20 22 23

GFSSGP_sfc_30mbdewp_129.txt.gz
Dewpoint
55 52 47 38 17 13 10 15 22 30 33 39 47 46 46 49 48 49 53 52 53 59 61 65 69 69 69 69 69 69 69 69 69 69 69 69 67 67 67 66 66 67 67 68 69 67 66 67 68
49 48 45 29 20 2 8 21 24 33 42 45 47 46 46 47 51 52 50 49 48 52 58 60 64 68 69 69 69 69 69 69 69 69 69 69 69 68 68 67 66 67 67 68 69 69 68 68 69
51 50 32 23 10 4 15 22 30 43 42 41 43 46 47 46 45 43 45 47 45 44 50 55 58 61 65 67 69 70 69 69 69 69 69 68 69 69 69 69 69 68 68 68 67 67 69 68 68
48 42 34 18 5 23 24 24 40 39 39 41 41 41 42 41 41 40 38 41 42 42 42 51 54 56 59 60 62 66 68 69 69 69 68 68 68 69 68 68 69 69 69 69 68 66 69 68 67
48 31 15 13 8 26 26 30 40 35 38 40 40 39 41 38 37 34 32 35 38 40 42 45 53 53 55 56 56 58 60 63 67 69 69 69 68 68 68 68 68 68 68 69 68 67 68 68 68
37 31 15 12 19 25 29 34 36 32 37 37 37 37 38 36 33 34 35 41 43 43 43 43 47 50 52 55 55 55 55 55 58 62 66 67 68 68 68 68 68 68 68 68 68 68 68 68 68
40 24 16 12 21 25 27 31 31 31 34 35 35 34 37 35 34 35 39 42 45 46 46 46 45 45 47 53 54 54 55 54 53 53 55 58 64 67 67 68 68 68 68 68 68 68 67 68 68
37 28 22 13 22 22 28 29 30 31 32 37 35 32 33 35 34 37 42 43 44 46 47 48 47 46 46 45 51 51 51 52 51 50 49 47 54 65 66 67 67 67 67 68 68 68 68 68 68
32 26 19 21 21 27 28 27 29 27 30 28 30 33 35 32 33 37 42 44 44 45 46 48 49 47 46 44 44 46 47 47 49 46 46 45 48 52 60 62 63 64 66 66 66 66 67 67 67
29 19 16 26 27 27 28 28 26 26 26 27 28 30 32 30 31 35 39 43 44 45 46 46 47 48 47 44 46 44 43 44 44 44 46 43 41 43 48 51 61 61 63 64 65 66 66 65 62
28 22 30 29 29 28 28 27 26 25 25 26 27 28 29 29 31 36 42 44 46 47 46 46 46 47 46 46 46 44 44 45 45 45 46 47 45 44 43 40 43 51 58 58 59 62 63 62 63
28 30 29 29 29 28 27 25 24 26 25 24 27 27 28 30 33 37 41 44 45 46 45 46 46 47 46 47 46 46 44 46 46 47 48 49 48 47 47 43 42 42 42 46 52 55 56 58 60
28 28 27 27 26 26 24 24 24 22 21 22 23 25 26 30 36 40 42 43 44 43 45 46 46 47 46 47 48 47 46 46 48 49 51 51 51 50 49 47 46 45 43 42 43 45 50 53 54
29 26 25 25 23 22 23 21 21 21 20 23 24 25 29 33 37 41 41 42 41 42 43 45 45 46 46 47 49 49 48 48 49 51 52 53 52 52 51 51 50 50 49 49 49 49 50 50 53
26 24 24 23 23 22 20 17 16 19 19 22 25 27 31 35 39 39 43 42 41 41 43 43 42 45 45 46 48 49 50 50 50 49 51 52 51 52 54 53 52 51 50 49 49 49 49 51 52
23 24 22 22 22 25 22 22 15 16 19 18 21 26 33 36 39 41 42 41 42 41 41 43 42 44 44 46 47 49 49 50 50 48 49 51 51 51 52 52 50 51 50 50 50 50 49 51 52
21 24 19 20 23 22 17 16 17 17 16 14 17 24 31 35 39 42 42 42 41 41 41 42 42 42 43 45 47 49 49 50 49 47 48 49 50 50 51 52 52 53 52 51 52 52 52 54 54
17 23 20 20 20 21 15 15 14 20 17 15 16 20 29 33 39 40 42 42 42 42 42 42 41 41 42 45 46 48 49 50 49 48 47 47 47 48 50 51 51 51 52 50 50 49 52 54 52
18 20 18 23 27 22 17 16 14 17 19 18 14 15 21 32 37 41 42 42 43 42 42 41 40 40 41 44 45 47 47 48 48 48 44 43 43 44 45 45 46 46 48 47 47 48 49 50 51
18 18 20 24 26 24 20 19 16 15 17 19 17 14 15 23 32 40 43 43 42 42 42 41 40 39 40 43 46 47 47 48 47 44 41 37 38 38 38 40 40 41 40 39 38 40 43 47 49
16 17 21 24 24 23 19 11 10 12 13 17 19 19 18 20 24 33 41 42 42 42 43 41 39 38 39 42 44 47 48 46 43 40 36 34 33 34 34 34 35 37 39 39 37 37 38 39 39
18 23 21 20 17 14 19 13 12 11 19 22 23 26 26 28 29 29 36 41 42 43 43 41 39 37 35 38 40 43 43 41 37 35 34 33 31 31 31 30 30 32 33 35 34 34 35 36 34
26 25 22 18 18 17 15 17 5 17 12 16 22 28 32 34 36 34 38 41 42 43 43 42 38 36 34 35 37 38 37 36 35 33 33 32 30 28 27 26 26 26 27 29 28 29 30 31 33
27 23 22 20 20 16 19 16 9 14 18 25 29 27 35 36 38 39 40 42 42 43 43 43 39 35 33 33 33 34 35 34 32 31 29 28 26 25 25 24 24 23 25 26 27 27 26 27 29
27 20 23 20 11 18 24 19 9 20 24 27 31 31 35 37 38 40 41 41 42 42 43 42 40 35 33 31 30 30 30 30 29 28 26 26 24 24 24 24 23 23 23 25 26 27 26 26 26
25 24 29 18 12 22 23 18 21 26 30 31 30 34 36 37 39 39 41 42 42 42 43 42 40 38 36 32 28 27 28 28 27 27 26 25 23 22 23 22 22 22 22 23 24 25 26 25 28
24 24 25 23 20 17 19 20 22 26 29 28 32 35 35 37 38 39 40 41 42 43 42 42 41 40 38 34 28 24 24 25 25 26 26 25 24 22 17 22 21 21 22 22 23 25 25 25 27
29 27 22 25 16 12 19 17 24 27 30 28 30 31 32 35 37 39 40 41 42 42 41 41 42 40 37 35 28 24 21 23 24 24 23 23 23 22 20 19 19 19 19 20 21 23 24 24 25
26 25 25 23 22 20 5 15 20 26 28 28 27 28 30 31 33 35 37 39 39 40 40 40 41 41 37 34 29 22 20 21 22 22 22 23 22 20 18 16 15 14 15 15 16 18 20 21 22
30 25 20 16 19 19 18 14 21 26 30 30 27 24 25 29 32 33 34 35 36 37 38 38 38 40 40 37 32 25 21 21 22 22 22 22 22 21 18 16 14 14 14 16 16 15 16 19 21

GFSSGP_sfc_30mbdewp_132.txt.gz
Dewpoint
56 54 52 42 29 22 17 16 25 33 36 45 47 48 49 50 51 49 54 53 57 59 62 65 69 70 70 70 70 70 69 69 69 69 69 68 67 67 67 66 66 66 67 68 69 68 67 67 68
54 46 47 40 25 8 11 23 26 34 41 47 45 47 47 48 51 50 49 48 49 56 58 61 65 67 69 70 70 70 69 69 69 69 69 69 69 69 68 68 67 67 67 67 67 68 69 68 68
55 48 42 34 16 15 17 22 39 42 46 45 44 45 47 45 43 44 48 46 44 49 53 57 61 63 64 64 67 69 69 69 69 69 69 69 69 69 69 69 69 69 69 69 68 67 68 70 68
48 48 42 27 12 23 24 34 42 39 40 41 43 41 42 41 40 40 40 43 42 43 49 54 55 57 59 60 61 62 64 67 69 69 69 69 68 68 68 68 69 69 69 69 69 68 68 69 68
50 42 26 17 17 25 26 40 39 37 39 40 40 41 39 37 35 34 37 40 41 43 44 51 51 52 54 55 56 57 57 59 63 66 68 69 69 69 68 68 68 68 68 68 69 68 68 69 68
44 39 18 14 16 25 29 40 37 36 38 37 40 39 38 35 34 36 42 45 46 46 46 46 50 51 54 54 53 54 55 54 54 56 59 61 65 67 68 68 68 68 68 68 68 68 68 68 68
41 32 25 17 23 25 29 35 33 35 36 35 38 36 36 34 35 40 43 45 47 48 48 48 47 47 53 55 52 52 52 52 52 51 51 50 51 63 67 67 68 68 68 68 68 68 68 68 68
41 35 20 21 24 24 28 31 31 34 35 35 34 34 36 34 36 42 44 45 46 47 49 50 49 48 47 46 49 49 50 48 51 50 49 47 48 52 65 66 66 66 66 67 68 68 68 67 67
35 31 24 21 24 27 29 29 29 30 34 30 33 35 35 34 38 42 44 45 46 47 47 49 49 48 48 45 47 48 47 47 48 49 48 47 44 44 48 55 59 61 64 66 66 66 67 66 66
34 25 25 29 28 28 28 28 27 28 26 28 32 33 32 33 36 40 44 44 45 46 46 47 48 48 47 46 47 47 45 46 46 46 47 48 47 46 46 46 48 57 62 63 64 64 65 66 65
32 28 30 29 32 29 28 28 27 27 26 28 28 31 30 31 34 39 44 46 47 47 46 47 47 48 47 47 48 47 46 47 47 48 49 50 49 50 49 47 45 49 51 60 54 60 62 63 61
29 30 30 29 29 29 28 26 26 27 23 29 29 30 30 31 34 40 44 45 46 46 46 47 47 48 47 48 49 48 47 47 49 50 52 53 53 52 51 49 48 47 45 44 43 45 47 50 55
29 28 28 28 27 26 26 25 25 21 22 27 28 29 29 32 36 40 43 44 44 44 46 46 47 47 47 48 49 49 48 49 50 52 52 53 53 53 53 53 52 52 51 50 50 50 49 50 51
30 27 26 26 23 23 25 22 23 21 22 23 25 27 29 33 39 41 42 42 42 43 43 45 45 46 46 47 49 49 50 50 51 51 51 52 52 52 53 54 53 51 51 51 50 50 50 51 52
28 24 25 24 24 23 23 20 20 20 22 24 24 26 30 34 37 41 42 42 41 42 43 43 42 45 45 46 48 50 51 51 50 50 51 51 51 51 52 53 53 53 53 52 52 52 52 51 52
25 25 24 23 24 23 24 25 18 20 20 23 25 27 31 35 38 41 43 43 42 42 41 43 43 44 44 45 47 49 51 50 50 48 50 50 50 50 52 52 52 53 53 52 51 51 53 54 54
24 23 23 21 24 21 20 19 16 18 19 19 20 25 30 35 39 41 42 41 41 41 41 42 42 43 43 45 47 48 50 50 49 49 48 47 48 49 51 51 51 51 52 51 50 50 52 53 52
20 23 22 21 22 22 18 17 19 17 17 15 16 20 28 32 38 41 42 42 43 42 42 42 41 42 42 44 46 50 50 49 49 48 45 44 45 45 46 48 47 48 48 46 44 47 49 51 50
20 23 21 25 26 20 19 18 16 19 18 17 15 16 23 31 36 41 42 43 43 43 42 42 41 41 41 44 46 47 47 47 48 46 41 40 41 40 40 42 42 42 41 40 39 40 42 47 48
20 21 23 25 25 24 20 20 22 20 19 19 19 15 16 28 35 41 42 43 43 43 43 42 41 40 40 43 46 47 47 47 46 43 37 36 36 37 35 37 38 39 41 40 38 38 39 41 41
19 21 23 23 23 22 17 13 13 19 18 19 21 19 17 20 31 40 43 43 43 43 43 43 41 39 39 41 44 47 48 48 45 39 37 33 34 34 34 33 34 35 36 37 33 35 36 36 37
21 23 23 22 19 17 19 12 13 14 15 16 20 22 24 25 27 32 42 43 43 43 44 43 41 39 36 38 41 42 42 42 37 36 35 34 31 30 31 30 30 30 32 32 29 32 31 33 34
24 22 20 20 19 17 13 10 14 15 16 19 22 25 27 30 32 32 33 41 43 44 44 44 41 38 36 36 37 39 38 37 36 34 34 32 30 28 27 28 27 27 29 29 29 29 27 30 33
26 22 21 21 24 8 18 16 18 18 23 28 28 30 35 36 37 38 39 42 42 44 44 44 41 37 35 34 34 35 36 35 34 32 31 29 28 27 26 27 26 25 27 27 28 29 28 28 27
26 25 19 9 -1 19 23 15 15 22 27 30 31 33 36 37 38 39 40 42 42 43 44 44 43 38 35 33 32 32 33 32 31 30 29 27 27 26 26 25 24 24 24 26 27 28 27 27 28
26 27 25 9 8 23 22 9 20 27 31 30 32 34 36 38 39 40 41 42 42 43 43 44 42 40 36 34 32 30 30 30 30 28 28 27 25 25 24 24 23 23 23 24 25 27 27 26 29
21 26 25 22 19 17 21 23 25 28 29 30 33 35 36 37 38 39 41 42 43 43 44 43 43 41 40 37 32 29 28 29 29 29 28 28 27 25 23 22 23 22 22 23 23 25 26 26 27
29 27 17 24 13 12 20 17 27 27 29 28 32 30 31 34 36 38 40 41 42 43 44 43 43 43 41 40 35 28 26 26 27 27 27 27 26 25 22 22 21 21 21 21 21 22 25 25 25
23 24 25 24 21 23 14 20 23 28 30 28 28 30 31 32 33 34 36 39 41 42 42 42 42 42 42 39 37 31 25 23 24 25 25 24 24 23 22 19 18 17 17 17 18 19 20 22 22
30 27 21 18 20 19 19 17 25 29 30 26 23 24 24 25 26 29 31 35 36 38 39 40 40 40 42 41 36 32 25 22 22 22 23 23 23 23 20 18 16 15 15 15 16 16 16 17 20

GFSSGP_sfc_30mbdewp_135.txt.gz
Dewpoint
57 55 55 42 16 25 20 16 29 36 43 48 49 49 50 51 51 47 55 55 59 60 63 68 70 70 70 70 70 70 70 70 70 69 69 68 68 67 67 66 66 66 67 67 68 69 69 67 68
55 52 49 39 23 7 8 21 34 41 45 46 46 47 49 48 50 50 48 55 56 57 60 65 67 67 68 69 70 70 70 70 70 69 69 69 69 69 69 68 68 68 68 68 68 67 67 69 68
56 53 42 31 19 14 13 27 42 46 46 44 45 44 45 42 48 46 48 50 50 53 56 61 63 64 64 65 65 67 68 69 70 69 69 69 69 69 69 69 69 69 69 69 69 68 67 69 69
52 47 42 28 13 14 25 41 43 43 41 43 43 41 39 37 40 42 42 43 47 49 53 55 55 57 58 59 60 61 62 64 66 68 69 69 69 68 68 68 68 69 69 69 69 69 68 69 69
51 44 29 20 20 24 41 40 39 39 40 41 42 39 36 33 37 42 44 43 43 47 51 52 52 54 54 54 54 56 56 56 58 61 63 65 67 68 69 68 68 68 68 68 68 68 68 69 69
45 40 18 12 18 33 40 38 38 39 39 40 40 39 36 34 39 43 46 46 48 48 49 49 52 54 55 53 52 52 52 52 52 52 52 52 53 62 67 68 68 68 68 68 68 68 68 68 68
43 34 24 16 23 29 36 38 37 37 36 38 39 36 34 33 39 44 46 47 48 49 49 49 49 49 51 53 51 52 52 51 52 52 51 51 52 53 61 67 67 67 68 68 68 68 67 67 67
43 37 22 22 24 25 31 32 36 36 35 34 35 35 33 34 41 45 46 47 48 49 50 49 49 48 47 46 49 52 49 51 52 51 53 50 49 49 57 64 65 64 65 66 66 67 67 67 66
35 30 21 23 25 27 31 29 27 33 30 34 34 36 36 36 43 44 45 46 47 47 47 48 48 48 47 47 47 49 48 48 48 48 49 49 48 48 47 47 49 51 58 63 65 66 66 65 65
34 29 27 29 29 28 29 28 28 28 29 32 32 33 35 38 42 43 44 45 46 46 46 47 48 48 47 47 49 48 47 47 48 49 51 51 51 51 50 49 48 49 53 59 63 61 63 63 64
34 29 30 29 33 29 28 27 27 27 27 29 32 32 34 37 40 43 46 46 46 46 47 47 48 47 47 48 49 49 48 48 50 53 53 53 53 53 52 51 51 50 49 50 47 47 49 52 53
29 29 29 28 29 29 27 27 26 25 24 29 32 31 32 33 38 44 45 46 46 46 46 47 48 47 47 48 49 49 49 49 51 52 52 52 53 53 54 54 53 52 52 50 50 50 50 50 51
29 27 28 26 26 27 26 25 23 22 29 30 31 30 30 33 39 44 46 45 45 45 46 46 46 46 47 48 49 50 50 50 51 51 51 52 52 52 52 53 53 52 52 51 51 51 51 51 51
29 27 26 25 24 24 24 22 23 21 27 29 30 30 31 36 41 43 43 43 43 44 44 44 44 46 46 47 48 49 51 50 50 51 51 51 51 51 52 53 53 53 54 52 52 52 53 53 53
27 24 25 24 24 23 24 22 22 21 24 26 27 28 32 39 41 41 42 41 42 42 43 43 43 45 45 46 47 50 50 49 50 50 50 50 50 51 52 52 52 52 53 52 51 51 53 54 54
25 25 21 23 24 22 24 24 20 21 22 23 25 27 31 37 40 42 43 42 42 42 42 43 43 44 44 45 47 50 50 49 49 48 47 48 47 49 51 51 51 51 51 49 49 50 51 53 51
25 20 22 21 24 20 21 19 20 20 22 23 24 27 32 36 39 43 42 42 42 41 42 42 42 42 42 44 47 50 50 49 48 46 45 44 44 45 48 48 45 48 45 42 43 46 49 50 47
21 23 22 20 22 22 19 17 17 19 19 19 21 25 30 34 38 42 42 42 42 42 42 42 42 41 41 44 47 50 48 48 49 44 41 41 40 41 41 43 42 43 41 39 38 40 43 47 45
21 23 22 24 24 19 20 18 17 17 17 16 16 19 26 31 36 41 43 43 43 43 42 42 41 40 41 44 46 48 47 47 47 41 37 38 37 38 37 38 39 41 40 38 37 39 39 42 39
21 23 23 25 25 23 19 18 20 19 19 17 16 16 18 28 34 41 42 43 43 43 43 42 41 40 41 43 46 48 47 47 46 38 35 36 35 35 34 35 35 36 38 34 34 35 36 38 37
21 22 23 20 23 22 18 14 16 22 20 20 19 18 18 22 33 41 42 42 43 43 43 43 41 39 39 41 43 48 47 48 44 38 36 33 33 33 32 31 31 32 34 30 30 31 32 32 34
19 24 24 20 16 9 18 7 16 15 18 20 20 20 20 25 35 42 43 43 43 43 43 43 41 39 38 38 41 42 44 44 39 37 35 33 30 29 30 29 29 29 31 30 29 30 29 32 31
21 24 22 20 18 13 13 4 -1 17 14 17 20 22 24 27 28 33 42 44 44 44 44 43 42 39 37 36 38 39 38 37 37 35 34 34 31 28 27 27 26 27 29 29 29 29 27 30 27
25 22 26 28 21 7 17 11 12 16 20 28 28 30 34 36 37 38 39 43 43 44 44 44 42 39 37 35 35 36 38 36 34 33 33 31 30 29 26 26 25 25 26 27 29 29 27 28 27
25 22 9 -4 -0 2 24 14 10 25 29 29 32 35 36 37 38 39 40 41 42 43 43 44 43 41 37 34 34 34 35 35 33 33 30 29 28 27 26 25 24 24 24 26 27 28 27 27 28
26 29 3 -5 -1 13 22 11 12 28 31 32 34 36 37 38 39 39 40 41 42 42 43 44 43 42 39 35 33 33 32 32 32 31 30 29 27 27 26 24 24 23 23 24 25 27 27 27 28
21 24 26 18 21 16 15 21 26 30 30 30 34 35 36 37 38 39 40 42 42 43 43 43 44 43 41 37 34 32 30 30 30 30 29 29 28 27 24 23 22 22 23 23 23 24 26 26 27
25 26 13 21 7 4 21 19 20 27 27 33 31 30 31 34 36 38 39 40 42 43 43 44 44 43 43 41 38 33 30 28 29 29 28 28 28 28 23 21 22 22 22 22 22 22 24 25 25
24 22 25 23 24 18 16 18 25 29 31 27 28 29 30 31 32 34 35 37 40 42 43 43 43 43 43 42 41 37 31 27 27 26 26 27 27 26 25 23 22 20 19 20 20 20 20 21 22
30 26 21 15 17 20 18 16 28 29 28 25 23 22 22 22 21 22 23 24 25 34 40 42 42 42 42 42 41 39 36 29 25 24 25 25 25 25 24 22 20 18 16 15 15 15 16 16 18

GFSSGP_sfc_30mbdewp_138.txt.gz
Dewpoint
58 55 54 42 18 24 14 13 25 40 46 49 50 50 50 51 49 45 57 60 61 62 66 69 70 70 70 70 70 70 70 70 70 70 69 68 68 68 67 67 67 67 67 67 67 67 68 69 68
55 54 47 36 12 2 5 19 36 41 47 47 46 48 48 48 50 51 55 57 58 61 64 66 67 68 68 69 70 70 70 70 70 70 69 69 69 69 69 69 69 68 69 69 68 68 66 68 69
56 55 40 29 23 -8 1 28 44 46 46 45 44 42 42 48 47 47 53 53 55 56 59 64 65 65 65 65 66 66 67 69 69 70 69 69 69 68 69 69 69 69 69 69 69 69 68 67 69
52 47 40 27 13 17 22 37 46 42 42 43 42 39 36 35 41 45 47 48 47 52 54 56 56 56 57 58 59 60 61 62 64 66 66 67 69 69 68 68 69 68 68 68 68 69 69 68 69
51 42 30 24 19 21 39 43 41 40 41 42 41 37 33 37 43 43 44 46 47 50 52 53 55 56 55 53 53 54 53 54 54 53 55 57 58 63 67 68 68 68 68 68 68 68 68 68 68
45 36 23 14 17 36 40 40 39 40 40 40 38 36 34 38 43 46 47 48 49 48 49 49 54 55 54 51 52 52 52 51 52 53 52 52 53 53 57 67 68 68 68 68 68 68 68 67 67
41 36 17 15 28 38 38 38 38 38 38 39 38 34 33 37 45 47 48 49 50 50 49 49 48 49 50 53 53 54 51 52 52 53 53 53 53 54 57 62 67 65 65 66 67 67 67 67 67
44 35 25 18 31 33 36 34 37 35 34 37 37 32 32 36 45 47 47 48 48 48 48 48 48 48 47 47 52 53 53 53 53 52 54 53 51 53 51 50 53 53 56 61 63 65 66 67 66
35 31 21 21 26 30 31 33 30 32 33 33 33 36 35 40 45 45 46 47 46 47 47 48 48 47 47 48 49 49 50 51 52 53 54 53 52 52 51 52 54 54 55 58 62 63 60 64 64
34 29 26 29 29 30 29 31 30 32 32 32 33 35 39 44 44 44 45 45 45 45 46 47 48 47 47 48 49 49 48 50 52 52 52 53 54 54 54 53 53 53 53 53 53 53 52 53 57
34 26 30 29 30 30 28 27 28 31 30 33 33 34 39 42 43 44 45 46 45 46 46 47 48 47 47 49 50 49 49 51 52 51 51 52 53 53 54 53 53 52 52 51 51 51 50 51 52
29 28 29 26 28 29 27 27 27 25 27 31 34 35 37 40 42 45 46 46 45 45 46 47 47 46 47 48 49 50 50 51 51 50 51 51 52 52 53 53 53 53 52 52 51 52 52 51 52
28 27 27 26 27 26 26 25 23 25 30 33 33 34 35 37 42 45 46 46 45 44 45 46 46 46 46 47 49 50 50 50 50 50 51 51 51 51 52 53 52 53 53 52 52 52 53 53 54
28 27 26 25 25 25 23 22 23 26 31 31 31 31 33 35 42 45 45 44 44 44 44 44 44 45 45 47 48 50 50 50 50 50 50 51 51 52 52 52 52 51 52 51 51 52 53 53 53
27 24 25 24 25 23 25 23 21 25 30 30 30 30 32 38 43 43 44 43 43 43 44 43 43 45 44 45 47 50 50 49 49 49 48 47 48 51 51 51 50 50 50 47 49 49 52 51 50
24 24 21 23 24 21 25 22 21 24 28 28 28 30 35 40 42 42 43 42 43 42 43 43 43 44 43 44 47 50 49 49 47 46 45 45 44 46 49 46 46 46 43 41 44 46 50 47 45
25 19 20 22 24 21 22 21 21 22 24 24 25 29 34 38 40 42 42 42 42 42 42 42 42 42 42 44 48 50 49 49 46 43 42 41 41 43 44 43 43 42 40 38 40 41 46 42 42
21 22 21 20 23 21 20 18 20 20 22 23 24 26 31 36 39 43 43 43 42 41 42 42 42 41 41 46 50 49 48 48 45 41 39 38 38 38 40 40 41 41 38 37 36 38 40 43 38
24 20 18 23 23 21 21 17 18 19 19 19 21 23 28 32 37 42 42 42 42 42 42 42 41 40 41 44 48 47 46 47 45 38 37 36 37 37 36 37 37 40 35 34 33 36 37 38 37
25 22 23 25 24 22 20 20 19 18 17 17 17 18 21 28 33 39 43 42 42 42 42 42 41 40 41 43 46 47 47 47 44 37 35 35 34 34 33 34 33 35 32 28 30 32 34 34 36
22 21 22 20 23 21 19 17 18 21 20 19 18 18 18 20 27 36 42 42 43 43 43 43 42 40 40 41 44 48 47 47 41 38 36 33 33 32 31 30 30 31 31 28 30 29 30 30 32
20 24 23 21 16 13 16 6 14 17 19 21 20 19 19 18 24 36 41 42 42 43 43 43 42 40 38 39 41 43 46 46 44 38 36 33 30 29 29 28 28 29 30 28 29 28 30 32 23
21 26 21 21 17 11 14 8 4 17 14 17 20 21 21 26 32 38 41 42 43 43 43 43 42 41 39 36 38 40 40 40 38 37 35 34 32 28 27 26 26 27 28 28 28 28 27 28 25
25 23 23 21 15 8 13 8 -5 14 17 26 29 25 31 35 34 34 40 43 44 44 44 43 43 41 39 36 36 37 39 37 36 35 34 34 32 29 27 27 25 25 26 26 28 29 27 28 26
25 17 9 7 6 4 25 12 5 24 29 27 31 34 36 37 38 39 40 42 43 43 44 44 43 42 40 37 35 35 35 37 36 34 33 31 30 29 28 25 24 24 24 26 27 28 27 27 27
25 23 3 0 -0 13 21 12 8 28 32 34 35 36 37 37 38 39 40 41 42 43 43 43 43 43 42 38 35 34 34 35 36 34 33 32 29 28 28 26 24 24 24 24 25 26 27 27 28
23 23 26 18 22 12 17 18 26 29 29 31 33 35 35 37 38 39 40 41 41 42 42 43 43 43 43 41 37 35 33 32 32 32 31 30 30 29 27 26 24 23 23 23 23 24 25 26 26
23 25 18 19 8 -1 18 19 15 27 28 32 33 32 33 35 37 37 38 39 41 42 43 43 43 43 43 43 40 37 34 32 31 30 29 29 29 29 27 25 24 23 23 23 23 23 23 25 26
23 20 25 23 21 13 16 16 25 27 28 32 28 29 30 31 32 31 27 26 27 34 41 42 43 43 43 43 42 40 37 33 30 29 28 28 28 28 28 26 23 22 22 22 22 22 21 21 23
30 24 22 11 13 20 17 17 27 31 30 28 27 22 22 21 22 23 24 25 25 26 29 37 42 43 43 43 42 42 40 37 33 29 27 27 27 27 27 26 25 23 21 19 18 18 18 18 18

GFSSGP_sfc_30mbdewp_141.txt.gz
Dewpoint
57 55 53 36 16 21 11 11 23 43 46 50 51 49 50 50 50 45 59 62 64 66 67 69 69 70 70 70 70 70 70 70 70 69 69 68 68 68 68 67 67 67 68 68 67 67 67 68 68
54 53 45 33 8 0 4 17 31 44 49 48 46 47 48 49 50 55 57 60 62 64 66 67 68 68 68 69 69 70 70 70 70 70 69 69 69 69 69 69 69 69 69 69 69 68 67 66 68
56 53 36 26 17 -7 -4 16 41 47 48 45 42 41 46 47 46 50 55 57 58 59 62 65 65 65 65 65 65 65 66 67 68 68 68 69 69 68 68 69 69 69 68 68 69 69 69 68 68
52 47 38 24 9 17 10 33 46 45 43 43 40 40 36 36 42 51 51 51 51 53 55 57 57 57 56 56 58 58 58 59 59 59 61 61 62 65 68 68 68 68 68 68 68 68 68 68 68
49 39 30 27 20 17 31 43 43 41 42 42 40 35 34 41 45 46 47 49 50 50 52 56 57 56 54 53 53 53 53 52 53 54 54 55 56 56 58 67 68 68 68 68 68 68 67 68 67
44 32 23 17 17 24 40 44 40 41 40 39 36 34 33 42 44 45 48 48 49 48 49 49 54 55 54 54 54 53 52 53 53 54 54 54 54 55 58 62 67 66 64 66 67 67 67 67 66
41 30 18 16 16 36 40 39 39 39 39 39 37 33 34 40 45 48 49 49 50 49 48 48 48 49 51 53 55 54 53 54 54 54 55 55 55 55 54 55 56 54 56 57 62 64 65 65 66
43 32 19 15 31 35 38 36 36 36 38 38 36 32 34 38 47 48 48 48 47 47 48 48 47 47 47 48 53 53 54 55 55 56 56 56 54 55 54 56 57 56 56 59 61 63 57 60 65
37 33 20 17 33 32 35 34 31 33 33 33 34 34 35 43 47 46 46 46 45 46 47 48 47 47 48 49 50 49 52 55 54 53 54 53 53 54 53 56 56 56 56 56 56 56 55 57 57
35 31 23 25 29 32 33 34 31 33 33 33 34 37 43 45 45 44 44 44 44 44 46 47 47 47 48 49 49 49 50 52 51 50 52 52 53 53 54 54 55 55 54 55 55 55 53 52 54
35 28 29 29 29 31 30 29 30 33 33 33 33 39 43 44 44 44 45 45 44 45 46 47 46 47 48 49 50 50 50 51 50 50 52 52 52 52 53 53 53 53 52 52 52 52 52 51 52
30 29 29 26 29 29 30 28 30 26 30 33 35 41 42 42 43 44 45 45 45 45 45 46 46 46 47 48 49 50 51 50 50 50 51 51 51 52 52 52 52 52 52 51 52 53 53 54 53
29 27 26 27 29 27 27 27 26 26 31 34 37 39 41 42 43 45 46 46 45 44 45 45 45 45 46 47 49 50 50 50 50 50 50 51 51 52 52 51 51 51 51 51 51 52 53 53 52
28 26 25 26 25 25 25 23 26 28 33 33 35 36 39 39 43 45 46 45 44 44 44 44 44 45 45 46 48 50 49 49 50 49 49 48 51 51 51 50 50 49 49 48 49 50 52 51 49
27 24 25 24 25 23 26 24 24 29 32 32 33 33 35 37 44 44 45 44 43 44 44 43 44 45 44 45 48 50 49 48 47 46 46 45 47 50 49 48 46 45 43 42 45 47 49 45 45
24 24 24 23 24 22 26 23 24 29 31 30 30 31 33 37 42 44 44 43 43 43 43 43 44 43 43 44 47 50 49 47 46 44 43 43 44 47 45 43 42 41 39 39 40 44 45 40 42
24 19 21 23 23 22 22 23 22 25 29 28 29 30 33 37 42 43 43 43 43 42 42 42 42 42 42 44 48 50 49 48 45 42 41 40 40 42 42 42 42 40 38 36 38 39 43 38 40
21 20 21 22 23 22 20 20 20 23 26 26 26 28 32 37 39 41 43 42 42 42 42 42 42 41 42 47 49 48 48 48 43 40 39 38 38 38 39 39 41 39 34 32 32 36 38 39 38
23 19 18 22 23 22 20 17 20 20 22 22 23 25 29 33 38 42 43 43 42 42 42 42 41 40 41 44 48 47 46 47 44 38 37 36 36 35 36 35 36 37 30 29 30 33 34 34 36
21 19 20 24 23 21 21 18 18 19 19 20 21 22 24 27 34 39 43 42 42 41 42 42 41 41 40 43 45 47 47 47 45 38 35 35 34 33 31 31 32 32 28 26 27 29 30 31 35
23 17 21 19 22 20 19 19 19 20 19 18 19 19 20 23 27 33 40 42 42 42 42 42 42 41 40 41 43 47 47 47 43 38 37 34 32 31 29 29 29 29 29 26 28 27 29 28 28
20 24 23 21 18 12 17 3 14 19 20 21 19 18 18 18 20 26 36 41 42 42 43 43 43 41 39 40 41 44 46 45 45 41 37 34 30 28 28 27 27 28 28 26 28 27 29 31 19
21 25 22 19 15 14 15 9 9 17 16 17 20 21 20 20 23 24 34 40 42 43 43 43 43 41 40 38 38 40 41 42 41 39 36 34 33 29 27 26 25 26 27 27 27 26 25 26 23
26 21 18 16 16 7 12 10 2 13 16 24 27 22 22 30 30 35 40 43 42 43 43 43 43 42 41 38 36 37 39 39 38 37 35 34 34 32 28 27 25 25 25 25 27 28 26 27 25
22 17 11 10 9 8 23 11 7 21 28 26 28 31 35 37 37 38 37 40 43 43 43 43 43 43 42 39 37 35 35 37 38 36 35 34 33 31 29 27 25 24 23 25 27 27 27 26 26
21 14 9 6 5 10 21 9 7 26 32 34 34 35 36 37 38 38 39 40 41 43 43 43 43 43 43 41 39 36 35 35 36 37 36 34 33 31 30 28 27 24 24 24 25 26 27 27 28
22 19 22 17 20 14 17 16 23 29 30 32 34 35 35 36 38 38 39 40 41 41 42 43 43 43 43 43 41 38 35 34 34 34 35 34 33 31 30 28 27 25 24 24 24 23 23 27 26
22 26 19 19 6 2 14 16 11 27 28 30 33 33 34 36 37 37 37 37 37 39 41 43 43 43 43 43 43 41 38 35 33 32 32 31 31 30 29 28 27 25 24 23 23 23 23 23 26
21 19 24 22 19 9 8 8 23 26 28 30 32 30 29 31 32 30 25 25 26 27 31 38 42 43 43 43 43 42 41 38 35 33 31 31 30 29 28 28 27 25 24 23 23 23 22 21 22
29 21 22 12 12 20 16 14 24 29 29 32 28 29 25 26 23 23 24 25 26 27 29 30 35 39 42 43 43 42 42 41 39 36 33 31 30 29 28 28 27 26 24 23 22 21 20 19 19

GFSSGP_sfc_30mbdewp_144.txt.gz
Dewpoint
56 55 51 32 10 18 12 15 21 42 44 49 51 50 50 51 50 44 61 65 66 67 68 69 70 70 70 70 70 70 70 70 70 69 69 69 69 69 69 68 68 68 68 68 68 68 66 66 68
55 53 42 30 5 -2 2 15 22 43 49 48 45 48 49 49 51 57 59 63 65 65 66 67 68 68 68 68 68 68 69 69 69 69 69 69 69 69 69 69 69 68 68 68 68 68 68 67 67
56 51 34 23 11 -8 -9 11 32 48 48 45 43 42 48 48 53 55 56 60 61 61 64 65 64 64 63 63 63 63 63 64 64 64 64 63 64 66 68 68 68 68 68 68 68 68 68 69 68
53 46 37 21 6 11 -3 22 47 46 45 42 41 43 37 38 45 54 55 54 53 55 57 59 58 57 56 55 56 56 56 56 56 56 56 58 59 59 60 67 68 68 68 68 68 68 67 67 67
47 39 27 27 17 14 17 40 47 44 43 41 40 38 37 42 47 49 49 51 50 52 55 57 57 56 55 56 54 54 54 54 54 55 56 55 56 57 59 64 67 66 65 66 67 67 67 67 67
45 32 21 17 18 17 39 45 42 41 40 38 37 36 37 44 45 46 49 49 49 48 48 49 53 54 55 56 55 54 55 54 55 55 56 55 56 56 57 60 59 57 57 58 62 64 65 65 66
42 29 18 16 14 27 38 42 41 41 39 39 36 34 37 42 46 48 49 49 49 48 47 47 47 49 51 55 55 56 55 56 56 57 57 57 57 56 57 58 57 57 58 59 61 64 58 59 64
44 29 17 15 16 20 39 38 39 39 38 37 34 34 40 41 48 49 48 47 47 47 47 47 47 47 48 49 54 55 56 57 56 56 56 56 55 56 56 57 58 58 58 58 58 57 57 62 61
39 34 18 13 26 30 37 35 31 34 34 33 34 34 36 45 48 46 45 45 45 46 47 47 46 47 49 49 51 51 54 53 52 52 54 53 53 54 53 56 57 57 57 57 57 57 56 55 56
36 33 26 23 33 34 35 35 33 34 33 34 35 41 45 46 46 43 42 42 43 44 46 47 46 47 48 50 49 50 51 50 50 51 51 52 52 54 54 54 55 55 55 55 56 56 54 53 53
37 32 29 29 29 32 32 31 32 34 33 34 34 42 45 45 44 43 43 43 43 45 46 47 46 47 48 50 50 50 50 50 50 51 51 51 52 52 52 52 52 52 52 52 52 53 53 53 53
35 30 29 27 28 30 32 30 32 29 31 31 37 43 44 44 43 43 44 44 44 44 45 46 45 46 47 49 50 50 50 50 50 50 51 51 51 51 51 51 51 51 51 50 51 52 53 53 52
31 28 26 27 30 29 29 30 28 27 34 38 42 42 43 43 43 45 45 45 45 44 45 44 45 45 46 47 49 50 49 49 50 49 49 51 51 50 51 50 50 49 48 49 49 51 52 50 49
30 26 25 26 25 26 28 25 28 30 35 38 40 41 42 42 43 45 46 45 44 44 44 44 45 45 45 47 49 50 49 49 49 48 47 47 50 50 50 48 46 44 43 44 47 49 47 45 45
26 24 25 24 25 24 26 26 26 31 34 36 37 39 40 41 44 44 45 45 44 44 44 42 44 44 44 45 48 49 49 47 46 45 45 44 46 49 46 44 43 41 39 40 42 46 41 41 45
24 25 23 24 24 23 28 26 25 31 33 33 34 35 37 38 42 45 45 44 44 43 43 43 44 43 43 45 47 49 49 46 45 43 42 41 42 44 43 42 41 40 37 36 39 41 41 39 46
23 23 23 22 23 23 24 23 25 30 32 32 31 32 33 35 40 43 45 44 43 42 42 42 42 42 42 44 48 49 48 48 44 41 40 39 39 40 40 41 41 38 34 30 34 38 39 38 46
21 21 22 23 22 23 22 22 24 27 29 29 29 29 31 34 37 42 43 43 43 42 43 42 42 41 42 48 49 48 48 47 43 40 38 37 37 37 37 37 38 35 28 27 27 34 34 36 42
21 20 21 22 23 23 19 19 22 23 26 27 27 27 30 33 38 42 43 43 42 42 42 42 41 41 41 44 47 47 46 46 46 39 37 35 35 34 34 33 33 33 25 26 26 30 29 32 34
20 19 22 22 23 22 20 18 20 21 23 24 25 25 26 29 35 40 42 42 42 41 42 42 41 41 41 43 45 47 46 46 46 40 35 35 33 31 30 29 30 29 25 24 25 27 27 29 33
20 17 20 20 21 19 21 20 18 20 20 20 21 22 23 25 28 34 41 42 42 41 41 42 42 41 40 42 43 47 47 46 45 41 38 35 32 30 28 28 27 27 27 24 27 25 26 23 26
17 21 21 21 18 13 17 6 14 20 20 20 19 19 19 20 23 28 35 41 42 42 42 42 43 42 40 40 41 42 44 44 45 44 39 36 32 28 28 26 26 26 27 24 26 26 27 28 17
22 24 21 18 15 15 15 8 9 16 18 19 20 21 20 19 20 20 25 36 42 43 42 43 43 43 41 39 39 39 40 43 43 41 40 36 34 31 27 27 25 25 26 26 26 25 25 26 22
25 18 17 17 15 5 14 10 4 13 15 19 24 22 22 22 28 33 38 39 41 43 43 43 43 43 42 40 38 37 37 38 39 39 37 36 35 34 31 28 26 25 25 24 25 27 26 26 25
21 17 12 11 8 6 21 11 7 14 28 26 25 27 29 34 34 36 37 41 42 42 43 43 43 43 42 42 39 37 36 36 37 38 37 36 35 33 32 30 27 25 24 23 25 26 26 25 25
20 15 11 7 7 9 21 9 7 19 32 33 33 35 36 36 37 38 39 40 41 43 43 43 43 43 43 42 41 39 37 36 35 36 37 36 35 34 33 30 29 27 25 24 24 25 25 26 26
21 18 18 14 18 13 16 17 19 28 31 34 35 36 36 37 38 38 39 40 40 41 41 42 42 43 43 43 43 42 39 37 36 35 35 36 35 34 33 31 29 28 26 25 24 23 23 24 26
23 25 18 18 7 3 11 14 10 26 28 31 33 33 35 36 37 37 35 30 29 29 34 40 42 42 43 43 43 43 42 40 37 35 34 33 33 32 31 30 29 28 26 25 24 24 23 23 24
21 20 22 20 17 5 5 7 22 24 28 29 32 33 33 34 33 26 25 25 26 28 29 32 37 40 42 42 43 42 42 41 39 37 35 34 33 32 31 30 29 28 27 26 24 24 23 22 22
29 19 19 12 11 19 14 11 26 28 29 31 32 29 29 31 24 23 24 25 26 28 29 31 32 34 36 39 41 42 42 41 41 40 38 36 35 33 32 31 29 28 27 26 25 23 22 22 21

GFSSGP_sfc_30mbdewp_147.txt.gz
Dewpoint
57 55 49 32 12 18 9 16 21 30 39 49 53 51 50 51 50 44 63 66 67 68 69 69 70 70 70 70 70 70 69 69 70 69 69 69 69 69 69 69 69 68 68 68 68 68 68 66 66
55 53 40 28 7 -1 2 15 18 39 48 49 48 50 50 49 54 59 62 66 66 66 67 68 69 68 68 68 68 68 68 68 68 67 67 66 67 68 68 68 68 68 68 68 68 68 68 68 68
55 49 36 24 10 -3 -5 10 20 48 48 45 45 45 49 49 55 57 58 62 63 64 64 65 64 63 63 62 62 61 61 61 60 60 60 61 62 62 63 68 68 68 68 68 68 68 68 67 67
53 46 36 20 7 5 -4 12 45 47 46 42 44 45 39 40 50 55 58 56 57 58 59 60 59 58 57 57 56 56 56 57 57 58 58 58 58 60 61 67 68 67 67 67 67 67 67 67 67
46 40 27 26 14 12 13 32 48 46 44 41 42 41 41 43 51 54 52 52 55 55 57 58 58 58 57 57 55 56 55 56 57 57 57 57 57 58 62 65 63 60 60 61 64 65 66 66 67
46 34 22 19 18 16 32 43 45 43 41 39 39 42 41 46 50 49 50 50 50 49 49 51 55 56 56 56 56 56 56 57 57 57 57 56 57 57 58 59 58 58 58 58 61 64 62 61 65
44 31 21 17 14 20 33 44 43 42 40 39 38 39 40 45 47 49 49 49 48 48 47 47 48 51 55 56 56 56 57 57 57 57 57 57 57 57 58 59 58 58 58 59 61 59 59 62 64
45 32 19 17 11 14 39 41 41 40 39 36 35 40 43 44 49 49 48 47 47 48 47 47 48 49 49 51 55 57 56 55 54 55 56 56 55 56 56 57 58 58 58 58 58 57 58 60 60
40 36 21 13 16 18 39 39 33 35 36 34 35 38 39 47 49 47 46 46 46 47 47 47 48 49 50 50 52 53 53 52 52 52 54 53 52 54 54 56 57 57 57 58 58 57 56 55 55
40 36 31 20 27 32 38 37 34 36 34 34 36 43 46 47 46 44 43 42 43 45 47 46 48 48 50 49 50 51 51 50 51 51 52 52 53 53 53 54 54 54 54 55 56 56 55 54 53
39 34 32 28 29 33 36 34 34 35 35 34 34 42 45 46 45 43 43 42 43 46 47 46 47 48 49 51 50 51 51 50 51 51 51 51 52 52 52 52 52 52 52 51 52 53 53 54 53
37 37 29 29 27 31 33 32 33 33 33 32 38 44 45 45 43 43 43 44 44 44 45 46 46 47 49 50 50 50 50 50 50 50 51 51 51 52 51 51 51 50 49 50 50 51 52 51 51
35 30 26 27 29 30 31 32 31 29 36 40 43 44 44 44 43 44 45 44 44 44 45 45 46 46 48 49 50 50 49 50 49 48 48 51 51 51 50 49 47 44 43 47 48 50 47 46 46
38 27 26 26 27 26 30 27 29 31 40 42 42 43 43 43 43 45 45 44 44 44 44 45 45 45 47 48 50 50 49 49 48 47 46 46 50 49 48 45 43 40 39 43 45 46 40 43 46
28 25 25 25 25 26 27 28 28 33 39 40 41 42 42 43 44 44 45 44 43 44 44 43 45 44 45 47 50 50 49 47 46 45 44 44 47 46 44 44 41 39 37 39 42 42 39 48 52
25 25 23 24 24 24 28 30 26 33 37 37 39 40 41 42 43 45 46 45 44 44 43 43 45 43 44 46 49 49 49 47 45 43 42 41 42 43 43 42 41 39 34 33 39 38 39 48 52
24 23 24 22 23 23 27 24 27 32 34 35 37 38 39 39 42 44 46 45 44 43 43 43 43 42 43 46 49 49 49 48 45 42 40 39 39 40 40 41 40 34 30 27 33 35 38 47 50
22 22 23 22 22 22 24 23 28 31 32 33 33 34 35 36 38 43 45 44 44 43 43 43 42 42 44 48 49 49 48 48 44 41 38 37 37 37 37 36 35 31 26 25 26 32 35 42 44
22 23 22 22 23 21 22 24 27 28 30 31 30 30 31 33 36 41 44 44 43 43 43 42 42 41 42 45 47 47 47 47 47 41 38 36 35 35 34 33 31 30 25 25 24 29 30 33 35
22 23 22 22 22 22 19 20 23 24 27 28 28 28 29 31 35 40 43 43 43 42 42 42 42 41 41 43 45 47 47 47 47 44 37 36 34 33 30 30 30 29 26 25 26 28 27 29 33
21 23 22 21 20 21 21 19 20 21 22 23 25 26 27 28 31 36 41 42 43 42 42 42 42 42 41 42 44 47 47 47 46 43 41 38 34 32 30 29 28 28 28 26 28 27 28 25 26
18 21 22 20 19 18 17 17 16 20 21 21 21 22 23 24 27 31 37 41 42 42 42 42 43 43 42 42 42 42 43 43 45 45 42 39 34 31 30 29 27 28 29 26 28 27 28 27 19
20 24 21 17 15 16 16 8 9 17 19 21 21 21 20 21 22 23 29 36 42 43 43 43 43 44 42 41 41 40 40 42 44 43 41 41 37 35 31 30 27 26 27 27 27 27 26 27 24
21 18 17 17 15 8 15 10 3 12 17 19 20 21 22 21 21 27 29 30 37 43 43 43 43 43 43 41 40 39 39 39 39 39 39 39 38 37 35 32 30 28 27 26 26 28 28 27 27
19 17 12 9 7 6 20 10 6 9 27 26 24 25 23 27 32 36 39 40 41 41 43 43 43 43 43 42 41 40 38 38 38 38 38 38 38 36 36 34 32 29 28 27 27 27 28 27 27
19 16 10 4 5 8 20 8 6 16 33 33 31 32 35 36 37 38 39 40 42 42 43 43 43 43 43 43 43 42 40 39 38 37 37 37 37 37 37 34 32 31 29 28 27 27 27 27 28
22 18 17 14 17 10 15 16 17 25 32 33 34 35 35 36 37 39 40 40 40 41 41 42 43 43 43 43 43 43 42 40 39 38 37 37 37 36 36 36 34 32 30 29 27 26 25 26 27
22 23 17 17 6 0 11 13 8 22 29 33 34 34 36 37 37 37 33 29 27 29 32 37 41 42 42 43 43 43 43 42 41 39 38 37 36 35 34 34 32 31 30 29 28 27 26 25 25
23 20 21 20 17 4 5 7 19 21 29 31 33 34 35 36 34 26 25 26 28 29 30 32 35 37 39 41 42 42 42 42 42 40 39 38 36 35 34 33 32 31 30 29 28 27 26 25 25
27 19 17 11 12 18 11 8 24 28 28 31 32 33 33 33 25 24 25 26 27 28 28 30 32 33 35 38 39 40 40 40 40 40 40 40 38 37 36 34 33 32 31 30 28 27 26 25 24